﻿<?xml version="1.0" encoding="utf-8"?><gpx creator="Garmin Desktop App" version="1.1" xsi:schemaLocation="http://www.topografix.com/GPX/1/1 http://www.topografix.com/GPX/1/1/gpx.xsd http://www.garmin.com/xmlschemas/WaypointExtension/v1 http://www8.garmin.com/xmlschemas/WaypointExtensionv1.xsd http://www.garmin.com/xmlschemas/TrackPointExtension/v1 http://www.garmin.com/xmlschemas/TrackPointExtensionv1.xsd http://www.garmin.com/xmlschemas/GpxExtensions/v3 http://www8.garmin.com/xmlschemas/GpxExtensionsv3.xsd http://www.garmin.com/xmlschemas/ActivityExtension/v1 http://www8.garmin.com/xmlschemas/ActivityExtensionv1.xsd http://www.garmin.com/xmlschemas/AdventuresExtensions/v1 http://www8.garmin.com/xmlschemas/AdventuresExtensionv1.xsd http://www.garmin.com/xmlschemas/PressureExtension/v1 http://www.garmin.com/xmlschemas/PressureExtensionv1.xsd http://www.garmin.com/xmlschemas/TripExtensions/v1 http://www.garmin.com/xmlschemas/TripExtensionsv1.xsd http://www.garmin.com/xmlschemas/TripMetaDataExtensions/v1 http://www.garmin.com/xmlschemas/TripMetaDataExtensionsv1.xsd http://www.garmin.com/xmlschemas/ViaPointTransportationModeExtensions/v1 http://www.garmin.com/xmlschemas/ViaPointTransportationModeExtensionsv1.xsd http://www.garmin.com/xmlschemas/CreationTimeExtension/v1 http://www.garmin.com/xmlschemas/CreationTimeExtensionsv1.xsd http://www.garmin.com/xmlschemas/AccelerationExtension/v1 http://www.garmin.com/xmlschemas/AccelerationExtensionv1.xsd http://www.garmin.com/xmlschemas/PowerExtension/v1 http://www.garmin.com/xmlschemas/PowerExtensionv1.xsd http://www.garmin.com/xmlschemas/VideoExtension/v1 http://www.garmin.com/xmlschemas/VideoExtensionv1.xsd" xmlns="http://www.topografix.com/GPX/1/1" xmlns:xsi="http://www.w3.org/2001/XMLSchema-instance" xmlns:wptx1="http://www.garmin.com/xmlschemas/WaypointExtension/v1" xmlns:gpxtrx="http://www.garmin.com/xmlschemas/GpxExtensions/v3" xmlns:gpxtpx="http://www.garmin.com/xmlschemas/TrackPointExtension/v1" xmlns:gpxx="http://www.garmin.com/xmlschemas/GpxExtensions/v3" xmlns:trp="http://www.garmin.com/xmlschemas/TripExtensions/v1" xmlns:adv="http://www.garmin.com/xmlschemas/AdventuresExtensions/v1" xmlns:prs="http://www.garmin.com/xmlschemas/PressureExtension/v1" xmlns:tmd="http://www.garmin.com/xmlschemas/TripMetaDataExtensions/v1" xmlns:vptm="http://www.garmin.com/xmlschemas/ViaPointTransportationModeExtensions/v1" xmlns:ctx="http://www.garmin.com/xmlschemas/CreationTimeExtension/v1" xmlns:gpxacc="http://www.garmin.com/xmlschemas/AccelerationExtension/v1" xmlns:gpxpx="http://www.garmin.com/xmlschemas/PowerExtension/v1" xmlns:vidx1="http://www.garmin.com/xmlschemas/VideoExtension/v1">

  <metadata>
    <link href="http://www.garmin.com">
      <text>Garmin International</text>
    </link>
    <time>2021-09-20T02:58:27Z</time>
    <bounds maxlat="45.104247825220227" maxlon="7.356021841987968" minlat="45.09557775221765" minlon="7.34040635637939" />
  </metadata>

  <trk>
    <name>ferrata-sacra-di-san-michele2021-09-19</name>
    <extensions>
      <gpxx:TrackExtension>
        <gpxx:DisplayColor>Yellow</gpxx:DisplayColor>
      </gpxx:TrackExtension>
      <gpxtrkx:TrackStatsExtension xmlns:gpxtrkx="http://www.garmin.com/xmlschemas/TrackStatsExtension/v1">
        <gpxtrkx:Distance>6976</gpxtrkx:Distance>
        <gpxtrkx:TotalElapsedTime>26441</gpxtrkx:TotalElapsedTime>
        <gpxtrkx:MovingTime>10330</gpxtrkx:MovingTime>
        <gpxtrkx:StoppedTime>16100</gpxtrkx:StoppedTime>
        <gpxtrkx:MovingSpeed>0.675</gpxtrkx:MovingSpeed>
        <gpxtrkx:MaxSpeed>2.503</gpxtrkx:MaxSpeed>
        <gpxtrkx:MaxElevation>932.404</gpxtrkx:MaxElevation>
        <gpxtrkx:MinElevation>353.067</gpxtrkx:MinElevation>
        <gpxtrkx:Ascent>619</gpxtrkx:Ascent>
        <gpxtrkx:Descent>621.099</gpxtrkx:Descent>
        <gpxtrkx:AvgAscentRate>0.041</gpxtrkx:AvgAscentRate>
        <gpxtrkx:MaxAscentRate>0.288</gpxtrkx:MaxAscentRate>
        <gpxtrkx:AvgDescentRate>0.073</gpxtrkx:AvgDescentRate>
        <gpxtrkx:MaxDescentRate>-0.519</gpxtrkx:MaxDescentRate>
      </gpxtrkx:TrackStatsExtension>
    </extensions>
    <trkseg>
      <trkpt lat="45.104242293164134" lon="7.34690073877573">
        <ele>358.69999999999999</ele>
        <time>2021-09-19T07:03:27Z</time>
      </trkpt>
      <trkpt lat="45.104242293164134" lon="7.346900068223476">
        <ele>358.69999999999999</ele>
        <time>2021-09-19T07:03:28Z</time>
      </trkpt>
      <trkpt lat="45.104247825220227" lon="7.346883052960038">
        <ele>357.86000000000001</ele>
        <time>2021-09-19T07:03:49Z</time>
      </trkpt>
      <trkpt lat="45.104231899604201" lon="7.346863020211458">
        <ele>357.81999999999999</ele>
        <time>2021-09-19T07:04:04Z</time>
      </trkpt>
      <trkpt lat="45.104223685339093" lon="7.346867462620139">
        <ele>357.63999999999999</ele>
        <time>2021-09-19T07:04:22Z</time>
      </trkpt>
      <trkpt lat="45.104212034493685" lon="7.346869139000773">
        <ele>357.61000000000001</ele>
        <time>2021-09-19T07:04:41Z</time>
      </trkpt>
      <trkpt lat="45.104213375598192" lon="7.346869390457869">
        <ele>357.75999999999999</ele>
        <time>2021-09-19T07:05:01Z</time>
      </trkpt>
      <trkpt lat="45.104208933189511" lon="7.346876347437501">
        <ele>357.86000000000001</ele>
        <time>2021-09-19T07:05:12Z</time>
      </trkpt>
      <trkpt lat="45.104207592085004" lon="7.34687089920044">
        <ele>358.68000000000001</ele>
        <time>2021-09-19T07:05:31Z</time>
      </trkpt>
      <trkpt lat="45.104213459417224" lon="7.346873329952359">
        <ele>358.19</ele>
        <time>2021-09-19T07:05:46Z</time>
      </trkpt>
      <trkpt lat="45.104222847148776" lon="7.34686897136271">
        <ele>358.23000000000002</ele>
        <time>2021-09-19T07:06:09Z</time>
      </trkpt>
      <trkpt lat="45.104228965938091" lon="7.346870061010122">
        <ele>357.76999999999998</ele>
        <time>2021-09-19T07:06:23Z</time>
      </trkpt>
      <trkpt lat="45.104229971766472" lon="7.346860421821475">
        <ele>358.11000000000001</ele>
        <time>2021-09-19T07:06:36Z</time>
      </trkpt>
      <trkpt lat="45.104245562106371" lon="7.346849357709289">
        <ele>358.25999999999999</ele>
        <time>2021-09-19T07:06:48Z</time>
      </trkpt>
      <trkpt lat="45.104235336184502" lon="7.346848351880908">
        <ele>357.74000000000001</ele>
        <time>2021-09-19T07:07:02Z</time>
      </trkpt>
      <trkpt lat="45.104228043928742" lon="7.346853632479906">
        <ele>357.85000000000002</ele>
        <time>2021-09-19T07:07:14Z</time>
      </trkpt>
      <trkpt lat="45.104219494387507" lon="7.346852878108621">
        <ele>358.45999999999998</ele>
        <time>2021-09-19T07:07:34Z</time>
      </trkpt>
      <trkpt lat="45.104219159111381" lon="7.346823625266552">
        <ele>358.54000000000002</ele>
        <time>2021-09-19T07:07:48Z</time>
      </trkpt>
      <trkpt lat="45.104226367548108" lon="7.34677073545754">
        <ele>358.76999999999998</ele>
        <time>2021-09-19T07:08:00Z</time>
      </trkpt>
      <trkpt lat="45.104231145232916" lon="7.346764532849193">
        <ele>358.50999999999999</ele>
        <time>2021-09-19T07:08:16Z</time>
      </trkpt>
      <trkpt lat="45.104242460802197" lon="7.346772495657206">
        <ele>358.43000000000001</ele>
        <time>2021-09-19T07:08:33Z</time>
      </trkpt>
      <trkpt lat="45.104234414175153" lon="7.346748020499945">
        <ele>358.05000000000001</ele>
        <time>2021-09-19T07:08:49Z</time>
      </trkpt>
      <trkpt lat="45.104222092777491" lon="7.346746930852532">
        <ele>358.24000000000001</ele>
        <time>2021-09-19T07:09:00Z</time>
      </trkpt>
      <trkpt lat="45.104229301214218" lon="7.346777943894267">
        <ele>357.83999999999997</ele>
        <time>2021-09-19T07:09:16Z</time>
      </trkpt>
      <trkpt lat="45.104234917089343" lon="7.346842987462878">
        <ele>357.76999999999998</ele>
        <time>2021-09-19T07:09:26Z</time>
      </trkpt>
      <trkpt lat="45.104219997301698" lon="7.346859583631158">
        <ele>358.06</ele>
        <time>2021-09-19T07:09:28Z</time>
      </trkpt>
      <trkpt lat="45.104206586256623" lon="7.34685237519443">
        <ele>357.88999999999999</ele>
        <time>2021-09-19T07:09:40Z</time>
      </trkpt>
      <trkpt lat="45.10420105420053" lon="7.346847094595432">
        <ele>358.31</ele>
        <time>2021-09-19T07:10:15Z</time>
      </trkpt>
      <trkpt lat="45.104201892390847" lon="7.34684307128191">
        <ele>358.55000000000001</ele>
        <time>2021-09-19T07:10:39Z</time>
      </trkpt>
      <trkpt lat="45.104206670075655" lon="7.346857991069555">
        <ele>358.26999999999998</ele>
        <time>2021-09-19T07:11:00Z</time>
      </trkpt>
      <trkpt lat="45.104212872684002" lon="7.346868552267551">
        <ele>358.23000000000002</ele>
        <time>2021-09-19T07:11:23Z</time>
      </trkpt>
      <trkpt lat="45.10421865619719" lon="7.346869306638837">
        <ele>358.11000000000001</ele>
        <time>2021-09-19T07:11:45Z</time>
      </trkpt>
      <trkpt lat="45.1042215898633" lon="7.346862684935331">
        <ele>358.25</ele>
        <time>2021-09-19T07:12:06Z</time>
      </trkpt>
      <trkpt lat="45.104225110262632" lon="7.346872324123979">
        <ele>358.13</ele>
        <time>2021-09-19T07:12:25Z</time>
      </trkpt>
      <trkpt lat="45.104230893775821" lon="7.346864277496934">
        <ele>358.33999999999997</ele>
        <time>2021-09-19T07:12:42Z</time>
      </trkpt>
      <trkpt lat="45.104215303435922" lon="7.346849860623479">
        <ele>358.64999999999998</ele>
        <time>2021-09-19T07:13:03Z</time>
      </trkpt>
      <trkpt lat="45.104208597913384" lon="7.346848016604781">
        <ele>358.63</ele>
        <time>2021-09-19T07:13:27Z</time>
      </trkpt>
      <trkpt lat="45.10419862344861" lon="7.346857152879238">
        <ele>358.55000000000001</ele>
        <time>2021-09-19T07:13:39Z</time>
      </trkpt>
      <trkpt lat="45.104207340627909" lon="7.346887327730656">
        <ele>358.70999999999998</ele>
        <time>2021-09-19T07:13:55Z</time>
      </trkpt>
      <trkpt lat="45.104161156341434" lon="7.346964441239834">
        <ele>358.77999999999997</ele>
        <time>2021-09-19T07:14:09Z</time>
      </trkpt>
      <trkpt lat="45.104114385321736" lon="7.347006434574723">
        <ele>358.88</ele>
        <time>2021-09-19T07:14:16Z</time>
      </trkpt>
      <trkpt lat="45.104005672037601" lon="7.34703459776938">
        <ele>359.06999999999999</ele>
        <time>2021-09-19T07:14:29Z</time>
      </trkpt>
      <trkpt lat="45.103978766128421" lon="7.34704147092998">
        <ele>359.25999999999999</ele>
        <time>2021-09-19T07:14:40Z</time>
      </trkpt>
      <trkpt lat="45.103987315669656" lon="7.347052786499262">
        <ele>359.32999999999998</ele>
        <time>2021-09-19T07:14:57Z</time>
      </trkpt>
      <trkpt lat="45.103999385610223" lon="7.347053037956357">
        <ele>359.64999999999998</ele>
        <time>2021-09-19T07:15:17Z</time>
      </trkpt>
      <trkpt lat="45.104007013142109" lon="7.347053876146674">
        <ele>359.64999999999998</ele>
        <time>2021-09-19T07:15:37Z</time>
      </trkpt>
      <trkpt lat="45.104010701179504" lon="7.347054714336991">
        <ele>360.06999999999999</ele>
        <time>2021-09-19T07:15:51Z</time>
      </trkpt>
      <trkpt lat="45.104012964293361" lon="7.347054546698928">
        <ele>359.87</ele>
        <time>2021-09-19T07:16:03Z</time>
      </trkpt>
      <trkpt lat="45.104013048112392" lon="7.347062509506941">
        <ele>360.27999999999997</ele>
        <time>2021-09-19T07:16:19Z</time>
      </trkpt>
      <trkpt lat="45.104011036455631" lon="7.347062509506941">
        <ele>360.18000000000001</ele>
        <time>2021-09-19T07:16:35Z</time>
      </trkpt>
      <trkpt lat="45.10401246137917" lon="7.347064604982734">
        <ele>360.58999999999997</ele>
        <time>2021-09-19T07:16:54Z</time>
      </trkpt>
      <trkpt lat="45.104014221578836" lon="7.347065778449178">
        <ele>359.83999999999997</ele>
        <time>2021-09-19T07:17:19Z</time>
      </trkpt>
      <trkpt lat="45.104011204093695" lon="7.347059911116958">
        <ele>359.92000000000002</ele>
        <time>2021-09-19T07:17:35Z</time>
      </trkpt>
      <trkpt lat="45.104014975950122" lon="7.34706150367856">
        <ele>360.11000000000001</ele>
        <time>2021-09-19T07:18:05Z</time>
      </trkpt>
      <trkpt lat="45.104016400873661" lon="7.347059492021799">
        <ele>360.17000000000002</ele>
        <time>2021-09-19T07:18:22Z</time>
      </trkpt>
      <trkpt lat="45.104012964293361" lon="7.347065275534987">
        <ele>360.18000000000001</ele>
        <time>2021-09-19T07:18:42Z</time>
      </trkpt>
      <trkpt lat="45.103999637067318" lon="7.347047924995422">
        <ele>360.42000000000002</ele>
        <time>2021-09-19T07:19:00Z</time>
      </trkpt>
      <trkpt lat="45.104004666209221" lon="7.347043817862868">
        <ele>360.12</ele>
        <time>2021-09-19T07:19:13Z</time>
      </trkpt>
      <trkpt lat="45.104001481086016" lon="7.347042392939329">
        <ele>360.33999999999997</ele>
        <time>2021-09-19T07:19:21Z</time>
      </trkpt>
      <trkpt lat="45.103987064212561" lon="7.347033424302936">
        <ele>360.48000000000002</ele>
        <time>2021-09-19T07:19:35Z</time>
      </trkpt>
      <trkpt lat="45.103982118889689" lon="7.347035687416792">
        <ele>360.57999999999998</ele>
        <time>2021-09-19T07:19:50Z</time>
      </trkpt>
      <trkpt lat="45.103986226022243" lon="7.347017750144005">
        <ele>360.24000000000001</ele>
        <time>2021-09-19T07:20:04Z</time>
      </trkpt>
      <trkpt lat="45.103986226022243" lon="7.346994783729315">
        <ele>360.54000000000002</ele>
        <time>2021-09-19T07:20:18Z</time>
      </trkpt>
      <trkpt lat="45.103964097797871" lon="7.346984976902604">
        <ele>361.79000000000002</ele>
        <time>2021-09-19T07:20:30Z</time>
      </trkpt>
      <trkpt lat="45.10393182747066" lon="7.347033172845841">
        <ele>363.63999999999999</ele>
        <time>2021-09-19T07:20:45Z</time>
      </trkpt>
      <trkpt lat="45.103927133604884" lon="7.347039710730314">
        <ele>363.63</ele>
        <time>2021-09-19T07:21:04Z</time>
      </trkpt>
      <trkpt lat="45.103894947096705" lon="7.347047757357359">
        <ele>365.04000000000002</ele>
        <time>2021-09-19T07:21:20Z</time>
      </trkpt>
      <trkpt lat="45.103886481374502" lon="7.347045242786408">
        <ele>365.43000000000001</ele>
        <time>2021-09-19T07:21:41Z</time>
      </trkpt>
      <trkpt lat="45.103888073936105" lon="7.34704633243382">
        <ele>365.83999999999997</ele>
        <time>2021-09-19T07:21:44Z</time>
      </trkpt>
      <trkpt lat="45.103892516344786" lon="7.347046248614788">
        <ele>365.64999999999998</ele>
        <time>2021-09-19T07:21:52Z</time>
      </trkpt>
      <trkpt lat="45.103875333443284" lon="7.347040129825473">
        <ele>366.06999999999999</ele>
        <time>2021-09-19T07:22:02Z</time>
      </trkpt>
      <trkpt lat="45.103887571021914" lon="7.347055217251182">
        <ele>366.18000000000001</ele>
        <time>2021-09-19T07:22:13Z</time>
      </trkpt>
      <trkpt lat="45.103889834135771" lon="7.347045075148344">
        <ele>366.60000000000002</ele>
        <time>2021-09-19T07:22:19Z</time>
      </trkpt>
      <trkpt lat="45.103889247402549" lon="7.347043650224805">
        <ele>366.56999999999999</ele>
        <time>2021-09-19T07:22:20Z</time>
      </trkpt>
      <trkpt lat="45.103873070329428" lon="7.347031245008111">
        <ele>366.14999999999998</ele>
        <time>2021-09-19T07:22:27Z</time>
      </trkpt>
      <trkpt lat="45.103875333443284" lon="7.347029987722635">
        <ele>366.20999999999998</ele>
        <time>2021-09-19T07:22:44Z</time>
      </trkpt>
      <trkpt lat="45.103864604607224" lon="7.347042309120297">
        <ele>366.70999999999998</ele>
        <time>2021-09-19T07:22:59Z</time>
      </trkpt>
      <trkpt lat="45.1038624253124" lon="7.347043231129646">
        <ele>367.58999999999997</ele>
        <time>2021-09-19T07:23:04Z</time>
      </trkpt>
      <trkpt lat="45.103852367028594" lon="7.347042141482234">
        <ele>367.81</ele>
        <time>2021-09-19T07:23:11Z</time>
      </trkpt>
      <trkpt lat="45.103850271552801" lon="7.347030993551016">
        <ele>368.91000000000003</ele>
        <time>2021-09-19T07:23:23Z</time>
      </trkpt>
      <trkpt lat="45.103853875771165" lon="7.347033424302936">
        <ele>369.20999999999998</ele>
        <time>2021-09-19T07:23:28Z</time>
      </trkpt>
      <trkpt lat="45.103848008438945" lon="7.347023617476225">
        <ele>369.11000000000001</ele>
        <time>2021-09-19T07:23:36Z</time>
      </trkpt>
      <trkpt lat="45.1038433983922" lon="7.347026048228145">
        <ele>369.60000000000002</ele>
        <time>2021-09-19T07:23:44Z</time>
      </trkpt>
      <trkpt lat="45.103842979297042" lon="7.347040632739663">
        <ele>371.04000000000002</ele>
        <time>2021-09-19T07:23:53Z</time>
      </trkpt>
      <trkpt lat="45.103821940720081" lon="7.347012888640165">
        <ele>372.83999999999997</ele>
        <time>2021-09-19T07:24:07Z</time>
      </trkpt>
      <trkpt lat="45.103834681212902" lon="7.347021857276559">
        <ele>372.93000000000001</ele>
        <time>2021-09-19T07:24:14Z</time>
      </trkpt>
      <trkpt lat="45.103832418099046" lon="7.346986653283238">
        <ele>373.50999999999999</ele>
        <time>2021-09-19T07:24:24Z</time>
      </trkpt>
      <trkpt lat="45.103825042024255" lon="7.346976175904274">
        <ele>373.89999999999998</ele>
        <time>2021-09-19T07:24:32Z</time>
      </trkpt>
      <trkpt lat="45.103818001225591" lon="7.346954885870218">
        <ele>374.00999999999999</ele>
        <time>2021-09-19T07:24:39Z</time>
      </trkpt>
      <trkpt lat="45.103810792788863" lon="7.346953963860869">
        <ele>374.72000000000003</ele>
        <time>2021-09-19T07:24:47Z</time>
      </trkpt>
      <trkpt lat="45.103816911578178" lon="7.346954634413123">
        <ele>375.07999999999998</ele>
        <time>2021-09-19T07:24:54Z</time>
      </trkpt>
      <trkpt lat="45.103807104751468" lon="7.34693736769259">
        <ele>375.32999999999998</ele>
        <time>2021-09-19T07:25:03Z</time>
      </trkpt>
      <trkpt lat="45.103809786960483" lon="7.346939044073224">
        <ele>375.23000000000002</ele>
        <time>2021-09-19T07:25:08Z</time>
      </trkpt>
      <trkpt lat="45.103827808052301" lon="7.346966369077563">
        <ele>375.73000000000002</ele>
        <time>2021-09-19T07:25:18Z</time>
      </trkpt>
      <trkpt lat="45.103819761425257" lon="7.346962261945009">
        <ele>375.99000000000001</ele>
        <time>2021-09-19T07:25:28Z</time>
      </trkpt>
      <trkpt lat="45.103804422542453" lon="7.346945246681571">
        <ele>377.17000000000002</ele>
        <time>2021-09-19T07:25:43Z</time>
      </trkpt>
      <trkpt lat="45.103816743940115" lon="7.346948767080903">
        <ele>378.06999999999999</ele>
        <time>2021-09-19T07:25:54Z</time>
      </trkpt>
      <trkpt lat="45.10381355881691" lon="7.346913730725646">
        <ele>378.38</ele>
        <time>2021-09-19T07:26:02Z</time>
      </trkpt>
      <trkpt lat="45.103809870779514" lon="7.346907192841172">
        <ele>378.30000000000001</ele>
        <time>2021-09-19T07:26:14Z</time>
      </trkpt>
      <trkpt lat="45.103792520239949" lon="7.346886321902275">
        <ele>379.02999999999997</ele>
        <time>2021-09-19T07:26:24Z</time>
      </trkpt>
      <trkpt lat="45.103779109194875" lon="7.346893027424812">
        <ele>380.26999999999998</ele>
        <time>2021-09-19T07:26:41Z</time>
      </trkpt>
      <trkpt lat="45.103769470006227" lon="7.346911299973726">
        <ele>382.19</ele>
        <time>2021-09-19T07:26:54Z</time>
      </trkpt>
      <trkpt lat="45.103753879666328" lon="7.346925549209118">
        <ele>383.61000000000001</ele>
        <time>2021-09-19T07:27:05Z</time>
      </trkpt>
      <trkpt lat="45.103711551055312" lon="7.346933931112289">
        <ele>385.29000000000002</ele>
        <time>2021-09-19T07:27:15Z</time>
      </trkpt>
      <trkpt lat="45.103683723136783" lon="7.346967794001102">
        <ele>386.60000000000002</ele>
        <time>2021-09-19T07:27:28Z</time>
      </trkpt>
      <trkpt lat="45.103680370375514" lon="7.346954047679901">
        <ele>387.31999999999999</ele>
        <time>2021-09-19T07:27:44Z</time>
      </trkpt>
      <trkpt lat="45.103680370375514" lon="7.34695153310895">
        <ele>387.18000000000001</ele>
        <time>2021-09-19T07:27:57Z</time>
      </trkpt>
      <trkpt lat="45.103675676509738" lon="7.346937032416463">
        <ele>388.30000000000001</ele>
        <time>2021-09-19T07:28:03Z</time>
      </trkpt>
      <trkpt lat="45.103691685944796" lon="7.346927728503943">
        <ele>388.44</ele>
        <time>2021-09-19T07:28:12Z</time>
      </trkpt>
      <trkpt lat="45.103695038706064" lon="7.346931584179401">
        <ele>387.74000000000001</ele>
        <time>2021-09-19T07:28:35Z</time>
      </trkpt>
      <trkpt lat="45.1036914344877" lon="7.34692077152431">
        <ele>388.06</ele>
        <time>2021-09-19T07:28:50Z</time>
      </trkpt>
      <trkpt lat="45.103693278506398" lon="7.346927560865879">
        <ele>388.35000000000002</ele>
        <time>2021-09-19T07:29:03Z</time>
      </trkpt>
      <trkpt lat="45.103674000129104" lon="7.346931081265211">
        <ele>387.11000000000001</ele>
        <time>2021-09-19T07:29:20Z</time>
      </trkpt>
      <trkpt lat="45.103642735630274" lon="7.34692320227623">
        <ele>388</ele>
        <time>2021-09-19T07:29:32Z</time>
      </trkpt>
      <trkpt lat="45.10361960157752" lon="7.346912557259202">
        <ele>387.49000000000001</ele>
        <time>2021-09-19T07:29:43Z</time>
      </trkpt>
      <trkpt lat="45.10359026491642" lon="7.346918592229486">
        <ele>390.17000000000002</ele>
        <time>2021-09-19T07:29:54Z</time>
      </trkpt>
      <trkpt lat="45.103552462533116" lon="7.346927225589752">
        <ele>392.73000000000002</ele>
        <time>2021-09-19T07:30:09Z</time>
      </trkpt>
      <trkpt lat="45.103539889678359" lon="7.346935356035829">
        <ele>393.05000000000001</ele>
        <time>2021-09-19T07:30:21Z</time>
      </trkpt>
      <trkpt lat="45.103553049266338" lon="7.346949437633157">
        <ele>392.92000000000002</ele>
        <time>2021-09-19T07:30:27Z</time>
      </trkpt>
      <trkpt lat="45.103537710383534" lon="7.346959663555026">
        <ele>393.56999999999999</ele>
        <time>2021-09-19T07:30:38Z</time>
      </trkpt>
      <trkpt lat="45.103511894121766" lon="7.346959412097931">
        <ele>394.36000000000001</ele>
        <time>2021-09-19T07:30:53Z</time>
      </trkpt>
      <trkpt lat="45.103503512218595" lon="7.346955388784409">
        <ele>394.24000000000001</ele>
        <time>2021-09-19T07:31:03Z</time>
      </trkpt>
      <trkpt lat="45.103508038446307" lon="7.346950694918633">
        <ele>393.93000000000001</ele>
        <time>2021-09-19T07:31:17Z</time>
      </trkpt>
      <trkpt lat="45.103512732312083" lon="7.346950778737664">
        <ele>393.88</ele>
        <time>2021-09-19T07:31:24Z</time>
      </trkpt>
      <trkpt lat="45.103513654321432" lon="7.346954885870218">
        <ele>394</ele>
        <time>2021-09-19T07:31:30Z</time>
      </trkpt>
      <trkpt lat="45.10348909534514" lon="7.346959076821804">
        <ele>396.11000000000001</ele>
        <time>2021-09-19T07:31:41Z</time>
      </trkpt>
      <trkpt lat="45.103489933535457" lon="7.34696326777339">
        <ele>396.20999999999998</ele>
        <time>2021-09-19T07:31:50Z</time>
      </trkpt>
      <trkpt lat="45.103480881080031" lon="7.346952706575394">
        <ele>396.82999999999998</ele>
        <time>2021-09-19T07:31:53Z</time>
      </trkpt>
      <trkpt lat="45.10348180308938" lon="7.346984893083572">
        <ele>397.62</ele>
        <time>2021-09-19T07:32:02Z</time>
      </trkpt>
      <trkpt lat="45.103484401479363" lon="7.347002327442169">
        <ele>398.00999999999999</ele>
        <time>2021-09-19T07:32:20Z</time>
      </trkpt>
      <trkpt lat="45.103485072031617" lon="7.347015822306275">
        <ele>397.95999999999998</ele>
        <time>2021-09-19T07:32:34Z</time>
      </trkpt>
      <trkpt lat="45.103472247719765" lon="7.347016325220466">
        <ele>399.04000000000002</ele>
        <time>2021-09-19T07:32:50Z</time>
      </trkpt>
      <trkpt lat="45.103458669036627" lon="7.347016409039497">
        <ele>400.85000000000002</ele>
        <time>2021-09-19T07:33:05Z</time>
      </trkpt>
      <trkpt lat="45.103466380387545" lon="7.347007691860199">
        <ele>401.30000000000001</ele>
        <time>2021-09-19T07:33:20Z</time>
      </trkpt>
      <trkpt lat="45.103471493348479" lon="7.347006015479565">
        <ele>401.02999999999997</ele>
        <time>2021-09-19T07:33:43Z</time>
      </trkpt>
      <trkpt lat="45.103479204699397" lon="7.346990006044507">
        <ele>401.55000000000001</ele>
        <time>2021-09-19T07:33:57Z</time>
      </trkpt>
      <trkpt lat="45.103460429236293" lon="7.347005261108279">
        <ele>402.37</ele>
        <time>2021-09-19T07:34:09Z</time>
      </trkpt>
      <trkpt lat="45.103446682915092" lon="7.347022444009781">
        <ele>404.75999999999999</ele>
        <time>2021-09-19T07:34:22Z</time>
      </trkpt>
      <trkpt lat="45.103440647944808" lon="7.347034346312285">
        <ele>405.30000000000001</ele>
        <time>2021-09-19T07:34:33Z</time>
      </trkpt>
      <trkpt lat="45.103429164737463" lon="7.347039375454187">
        <ele>407.48000000000002</ele>
        <time>2021-09-19T07:34:39Z</time>
      </trkpt>
      <trkpt lat="45.103420782834291" lon="7.347048679366708">
        <ele>407.95999999999998</ele>
        <time>2021-09-19T07:34:52Z</time>
      </trkpt>
      <trkpt lat="45.103378621861339" lon="7.347062928602099">
        <ele>408.98000000000002</ele>
        <time>2021-09-19T07:35:03Z</time>
      </trkpt>
      <trkpt lat="45.103377616032958" lon="7.347070220857859">
        <ele>408.95999999999998</ele>
        <time>2021-09-19T07:35:19Z</time>
      </trkpt>
      <trkpt lat="45.103368060663342" lon="7.347062677145004">
        <ele>409.52999999999997</ele>
        <time>2021-09-19T07:35:27Z</time>
      </trkpt>
      <trkpt lat="45.103370575234294" lon="7.347061252221465">
        <ele>408.26999999999998</ele>
        <time>2021-09-19T07:35:35Z</time>
      </trkpt>
      <trkpt lat="45.103359678760171" lon="7.347057731822133">
        <ele>409.56999999999999</ele>
        <time>2021-09-19T07:35:50Z</time>
      </trkpt>
      <trkpt lat="45.103311482816935" lon="7.347069131210446">
        <ele>412.60000000000002</ele>
        <time>2021-09-19T07:36:02Z</time>
      </trkpt>
      <trkpt lat="45.103284325450659" lon="7.347086230292916">
        <ele>414.38999999999999</ele>
        <time>2021-09-19T07:36:14Z</time>
      </trkpt>
      <trkpt lat="45.103263957425952" lon="7.347095450386405">
        <ele>415.32999999999998</ele>
        <time>2021-09-19T07:36:27Z</time>
      </trkpt>
      <trkpt lat="45.103234369307756" lon="7.347088241949678">
        <ele>416.52999999999997</ele>
        <time>2021-09-19T07:36:39Z</time>
      </trkpt>
      <trkpt lat="45.103215677663684" lon="7.347064521163702">
        <ele>417.33999999999997</ele>
        <time>2021-09-19T07:36:49Z</time>
      </trkpt>
      <trkpt lat="45.10320670902729" lon="7.347049098461866">
        <ele>418.44</ele>
        <time>2021-09-19T07:37:01Z</time>
      </trkpt>
      <trkpt lat="45.10320570319891" lon="7.347043482586741">
        <ele>418.82999999999998</ele>
        <time>2021-09-19T07:37:13Z</time>
      </trkpt>
      <trkpt lat="45.103196147829294" lon="7.347030574455857">
        <ele>420.13</ele>
        <time>2021-09-19T07:37:27Z</time>
      </trkpt>
      <trkpt lat="45.103185083717108" lon="7.347037866711617">
        <ele>422.04000000000002</ele>
        <time>2021-09-19T07:37:37Z</time>
      </trkpt>
      <trkpt lat="45.103187095373869" lon="7.347038453444839">
        <ele>421.86000000000001</ele>
        <time>2021-09-19T07:37:51Z</time>
      </trkpt>
      <trkpt lat="45.103180557489395" lon="7.347033591940999">
        <ele>421.43000000000001</ele>
        <time>2021-09-19T07:38:09Z</time>
      </trkpt>
      <trkpt lat="45.103182652965188" lon="7.347032753750682">
        <ele>421.45999999999998</ele>
        <time>2021-09-19T07:38:22Z</time>
      </trkpt>
      <trkpt lat="45.103193130344152" lon="7.347027892246842">
        <ele>421.88</ele>
        <time>2021-09-19T07:38:51Z</time>
      </trkpt>
      <trkpt lat="45.103201093152165" lon="7.347050774842501">
        <ele>422.75999999999999</ele>
        <time>2021-09-19T07:39:05Z</time>
      </trkpt>
      <trkpt lat="45.103194722905755" lon="7.34704926609993">
        <ele>424.17000000000002</ele>
        <time>2021-09-19T07:39:23Z</time>
      </trkpt>
      <trkpt lat="45.103180725127459" lon="7.347059743478894">
        <ele>423.69</ele>
        <time>2021-09-19T07:39:36Z</time>
      </trkpt>
      <trkpt lat="45.10317443870008" lon="7.347054965794087">
        <ele>424.25</ele>
        <time>2021-09-19T07:39:52Z</time>
      </trkpt>
      <trkpt lat="45.10316513478756" lon="7.347066532820463">
        <ele>424.94</ele>
        <time>2021-09-19T07:40:14Z</time>
      </trkpt>
      <trkpt lat="45.103144012391567" lon="7.347097210586071">
        <ele>426.64999999999998</ele>
        <time>2021-09-19T07:40:27Z</time>
      </trkpt>
      <trkpt lat="45.103134708479047" lon="7.347103329375386">
        <ele>426.88999999999999</ele>
        <time>2021-09-19T07:40:42Z</time>
      </trkpt>
      <trkpt lat="45.103105790913105" lon="7.347073154523969">
        <ele>429</ele>
        <time>2021-09-19T07:40:55Z</time>
      </trkpt>
      <trkpt lat="45.103080393746495" lon="7.347047505900264">
        <ele>431.58999999999997</ele>
        <time>2021-09-19T07:41:06Z</time>
      </trkpt>
      <trkpt lat="45.103050218895078" lon="7.347016241401434">
        <ele>433.95999999999998</ele>
        <time>2021-09-19T07:41:21Z</time>
      </trkpt>
      <trkpt lat="45.103028677403927" lon="7.346996795386076">
        <ele>434.88</ele>
        <time>2021-09-19T07:41:33Z</time>
      </trkpt>
      <trkpt lat="45.102994814515114" lon="7.346963938325644">
        <ele>435.87</ele>
        <time>2021-09-19T07:41:45Z</time>
      </trkpt>
      <trkpt lat="45.102976206690073" lon="7.346929488703609">
        <ele>436.76999999999998</ele>
        <time>2021-09-19T07:41:59Z</time>
      </trkpt>
      <trkpt lat="45.102949887514114" lon="7.346917670220137">
        <ele>438.25999999999999</ele>
        <time>2021-09-19T07:42:13Z</time>
      </trkpt>
      <trkpt lat="45.102920215576887" lon="7.346886908635497">
        <ele>440.22000000000003</ele>
        <time>2021-09-19T07:42:30Z</time>
      </trkpt>
      <trkpt lat="45.102918120101094" lon="7.346876850351691">
        <ele>440.56999999999999</ele>
        <time>2021-09-19T07:42:45Z</time>
      </trkpt>
      <trkpt lat="45.102918203920126" lon="7.346883891150355">
        <ele>438.14999999999998</ele>
        <time>2021-09-19T07:43:00Z</time>
      </trkpt>
      <trkpt lat="45.102918790653348" lon="7.346882130950689">
        <ele>441.16000000000003</ele>
        <time>2021-09-19T07:43:02Z</time>
      </trkpt>
      <trkpt lat="45.102919209748507" lon="7.346882214769721">
        <ele>441.26999999999998</ele>
        <time>2021-09-19T07:43:03Z</time>
      </trkpt>
      <trkpt lat="45.102923316881061" lon="7.346881292760372">
        <ele>441.00999999999999</ele>
        <time>2021-09-19T07:43:08Z</time>
      </trkpt>
      <trkpt lat="45.102935722097754" lon="7.346884729340673">
        <ele>440.73000000000002</ele>
        <time>2021-09-19T07:43:27Z</time>
      </trkpt>
      <trkpt lat="45.1029281783849" lon="7.34686360694468">
        <ele>441.24000000000001</ele>
        <time>2021-09-19T07:43:42Z</time>
      </trkpt>
      <trkpt lat="45.102901523932815" lon="7.346856482326984">
        <ele>443.06</ele>
        <time>2021-09-19T07:43:53Z</time>
      </trkpt>
      <trkpt lat="45.102892890572548" lon="7.346843406558037">
        <ele>443.16000000000003</ele>
        <time>2021-09-19T07:44:11Z</time>
      </trkpt>
      <trkpt lat="45.10286564938724" lon="7.346838461235166">
        <ele>444.44999999999999</ele>
        <time>2021-09-19T07:44:26Z</time>
      </trkpt>
      <trkpt lat="45.102843521162868" lon="7.346832593902946">
        <ele>445.85000000000002</ele>
        <time>2021-09-19T07:44:38Z</time>
      </trkpt>
      <trkpt lat="45.102827092632651" lon="7.346806945279241">
        <ele>447.25</ele>
        <time>2021-09-19T07:44:52Z</time>
      </trkpt>
      <trkpt lat="45.102811921387911" lon="7.346786074340344">
        <ele>448.75</ele>
        <time>2021-09-19T07:45:07Z</time>
      </trkpt>
      <trkpt lat="45.102798258885741" lon="7.346770316362381">
        <ele>449.06</ele>
        <time>2021-09-19T07:45:21Z</time>
      </trkpt>
      <trkpt lat="45.102784680202603" lon="7.346752630546689">
        <ele>450.19</ele>
        <time>2021-09-19T07:45:34Z</time>
      </trkpt>
      <trkpt lat="45.102763725444674" lon="7.346745925024152">
        <ele>451.37</ele>
        <time>2021-09-19T07:45:46Z</time>
      </trkpt>
      <trkpt lat="45.102758361026645" lon="7.346762521192431">
        <ele>452.31</ele>
        <time>2021-09-19T07:45:58Z</time>
      </trkpt>
      <trkpt lat="45.102739920839667" lon="7.346764449030161">
        <ele>453.19999999999999</ele>
        <time>2021-09-19T07:46:10Z</time>
      </trkpt>
      <trkpt lat="45.102711590006948" lon="7.346764113754034">
        <ele>455.10000000000002</ele>
        <time>2021-09-19T07:46:24Z</time>
      </trkpt>
      <trkpt lat="45.102677727118134" lon="7.346771070733666">
        <ele>457.31999999999999</ele>
        <time>2021-09-19T07:46:41Z</time>
      </trkpt>
      <trkpt lat="45.102665992453694" lon="7.346773501485586">
        <ele>458.89999999999998</ele>
        <time>2021-09-19T07:46:56Z</time>
      </trkpt>
      <trkpt lat="45.102666914463043" lon="7.346787247806788">
        <ele>460.19999999999999</ele>
        <time>2021-09-19T07:47:09Z</time>
      </trkpt>
      <trkpt lat="45.102670518681407" lon="7.346801748499274">
        <ele>460.57999999999998</ele>
        <time>2021-09-19T07:47:21Z</time>
      </trkpt>
      <trkpt lat="45.102675128728151" lon="7.346798479557037">
        <ele>460.47000000000003</ele>
        <time>2021-09-19T07:47:41Z</time>
      </trkpt>
      <trkpt lat="45.102679571136832" lon="7.346794120967388">
        <ele>460.58999999999997</ele>
        <time>2021-09-19T07:48:01Z</time>
      </trkpt>
      <trkpt lat="45.102682756260037" lon="7.346791019663215">
        <ele>461.19999999999999</ele>
        <time>2021-09-19T07:48:20Z</time>
      </trkpt>
      <trkpt lat="45.102682672441006" lon="7.346789762377739">
        <ele>461.36000000000001</ele>
        <time>2021-09-19T07:48:36Z</time>
      </trkpt>
      <trkpt lat="45.102676386013627" lon="7.346779620274901">
        <ele>461.24000000000001</ele>
        <time>2021-09-19T07:48:57Z</time>
      </trkpt>
      <trkpt lat="45.102664064615965" lon="7.346794120967388">
        <ele>462.5</ele>
        <time>2021-09-19T07:49:13Z</time>
      </trkpt>
      <trkpt lat="45.102660711854696" lon="7.346810130402446">
        <ele>463.73000000000002</ele>
        <time>2021-09-19T07:49:24Z</time>
      </trkpt>
      <trkpt lat="45.102627016603947" lon="7.346809040755034">
        <ele>465.70999999999998</ele>
        <time>2021-09-19T07:49:35Z</time>
      </trkpt>
      <trkpt lat="45.10261888615787" lon="7.346797725185752">
        <ele>466.22000000000003</ele>
        <time>2021-09-19T07:49:49Z</time>
      </trkpt>
      <trkpt lat="45.102608744055033" lon="7.34679470770061">
        <ele>467.54000000000002</ele>
        <time>2021-09-19T07:50:01Z</time>
      </trkpt>
      <trkpt lat="45.102605894207954" lon="7.346798311918974">
        <ele>468.14999999999998</ele>
        <time>2021-09-19T07:50:16Z</time>
      </trkpt>
      <trkpt lat="45.102586364373565" lon="7.34678783454001">
        <ele>469.81999999999999</ele>
        <time>2021-09-19T07:50:28Z</time>
      </trkpt>
      <trkpt lat="45.102567756548524" lon="7.346771908923984">
        <ele>470.70999999999998</ele>
        <time>2021-09-19T07:50:43Z</time>
      </trkpt>
      <trkpt lat="45.102566163986921" lon="7.346777440980077">
        <ele>470.68000000000001</ele>
        <time>2021-09-19T07:51:01Z</time>
      </trkpt>
      <trkpt lat="45.102570522576571" lon="7.346779033541679">
        <ele>470.82999999999998</ele>
        <time>2021-09-19T07:51:27Z</time>
      </trkpt>
      <trkpt lat="45.102576222270727" lon="7.346776351332665">
        <ele>471.01999999999998</ele>
        <time>2021-09-19T07:51:53Z</time>
      </trkpt>
      <trkpt lat="45.102582005783916" lon="7.346778782084584">
        <ele>470.82999999999998</ele>
        <time>2021-09-19T07:52:27Z</time>
      </trkpt>
      <trkpt lat="45.102565828710794" lon="7.346780709922314">
        <ele>471.61000000000001</ele>
        <time>2021-09-19T07:52:39Z</time>
      </trkpt>
      <trkpt lat="45.102540766820312" lon="7.346764281392098">
        <ele>472.32999999999998</ele>
        <time>2021-09-19T07:52:50Z</time>
      </trkpt>
      <trkpt lat="45.102508077397943" lon="7.346761934459209">
        <ele>473.56</ele>
        <time>2021-09-19T07:53:04Z</time>
      </trkpt>
      <trkpt lat="45.102489804849029" lon="7.346752714365721">
        <ele>473.69</ele>
        <time>2021-09-19T07:53:16Z</time>
      </trkpt>
      <trkpt lat="45.102474968880415" lon="7.346737962216139">
        <ele>473.25999999999999</ele>
        <time>2021-09-19T07:53:28Z</time>
      </trkpt>
      <trkpt lat="45.102465162053704" lon="7.34671164304018">
        <ele>473.38999999999999</ele>
        <time>2021-09-19T07:53:42Z</time>
      </trkpt>
      <trkpt lat="45.102454852312803" lon="7.346689766272903">
        <ele>475.06999999999999</ele>
        <time>2021-09-19T07:54:00Z</time>
      </trkpt>
      <trkpt lat="45.102453427389264" lon="7.346691358834505">
        <ele>475.70999999999998</ele>
        <time>2021-09-19T07:54:14Z</time>
      </trkpt>
      <trkpt lat="45.102436328306794" lon="7.346679791808128">
        <ele>476.48000000000002</ele>
        <time>2021-09-19T07:54:26Z</time>
      </trkpt>
      <trkpt lat="45.102398190647364" lon="7.346687838435173">
        <ele>478.11000000000001</ele>
        <time>2021-09-19T07:54:44Z</time>
      </trkpt>
      <trkpt lat="45.102365585044026" lon="7.346663028001785">
        <ele>479.68000000000001</ele>
        <time>2021-09-19T07:55:01Z</time>
      </trkpt>
      <trkpt lat="45.102327028289437" lon="7.346632769331336">
        <ele>480.56999999999999</ele>
        <time>2021-09-19T07:55:20Z</time>
      </trkpt>
      <trkpt lat="45.102328285574913" lon="7.346645593643189">
        <ele>481.69</ele>
        <time>2021-09-19T07:55:38Z</time>
      </trkpt>
      <trkpt lat="45.102321077138186" lon="7.346653304994106">
        <ele>483.06</ele>
        <time>2021-09-19T07:55:52Z</time>
      </trkpt>
      <trkpt lat="45.102333901450038" lon="7.346661267802119">
        <ele>483.06999999999999</ele>
        <time>2021-09-19T07:56:04Z</time>
      </trkpt>
      <trkpt lat="45.102310767397285" lon="7.34665741212666">
        <ele>483.75999999999999</ele>
        <time>2021-09-19T07:56:20Z</time>
      </trkpt>
      <trkpt lat="45.102304480969906" lon="7.34666520729661">
        <ele>483.67000000000002</ele>
        <time>2021-09-19T07:56:35Z</time>
      </trkpt>
      <trkpt lat="45.102265505120158" lon="7.346633020788431">
        <ele>483.54000000000002</ele>
        <time>2021-09-19T07:56:44Z</time>
      </trkpt>
      <trkpt lat="45.102274809032679" lon="7.346660094335675">
        <ele>483.31</ele>
        <time>2021-09-19T07:57:04Z</time>
      </trkpt>
      <trkpt lat="45.102273970842361" lon="7.346645426005125">
        <ele>483.37</ele>
        <time>2021-09-19T07:57:19Z</time>
      </trkpt>
      <trkpt lat="45.102265169844031" lon="7.346641821786761">
        <ele>483.88999999999999</ele>
        <time>2021-09-19T07:57:41Z</time>
      </trkpt>
      <trkpt lat="45.102262571454048" lon="7.346644252538681">
        <ele>483.56999999999999</ele>
        <time>2021-09-19T07:58:05Z</time>
      </trkpt>
      <trkpt lat="45.102258631959558" lon="7.346645426005125">
        <ele>483.41000000000003</ele>
        <time>2021-09-19T07:58:20Z</time>
      </trkpt>
      <trkpt lat="45.102250417694449" lon="7.346640899777412">
        <ele>483.60000000000002</ele>
        <time>2021-09-19T07:58:43Z</time>
      </trkpt>
      <trkpt lat="45.102249663323164" lon="7.346631344407797">
        <ele>484.30000000000001</ele>
        <time>2021-09-19T07:59:01Z</time>
      </trkpt>
      <trkpt lat="45.102261817082763" lon="7.34660804271698">
        <ele>484.10000000000002</ele>
        <time>2021-09-19T07:59:18Z</time>
      </trkpt>
      <trkpt lat="45.102310515940189" lon="7.346637547016144">
        <ele>484.56999999999999</ele>
        <time>2021-09-19T07:59:29Z</time>
      </trkpt>
      <trkpt lat="45.102320406585932" lon="7.34662857837975">
        <ele>484.58999999999997</ele>
        <time>2021-09-19T07:59:38Z</time>
      </trkpt>
      <trkpt lat="45.102341361343861" lon="7.346629751846194">
        <ele>483.74000000000001</ele>
        <time>2021-09-19T07:59:49Z</time>
      </trkpt>
      <trkpt lat="45.102356532588601" lon="7.346611563116312">
        <ele>482.49000000000001</ele>
        <time>2021-09-19T08:00:04Z</time>
      </trkpt>
      <trkpt lat="45.102348905056715" lon="7.346613239496946">
        <ele>482.75</ele>
        <time>2021-09-19T08:00:20Z</time>
      </trkpt>
      <trkpt lat="45.10233742184937" lon="7.34663981013">
        <ele>484.10000000000002</ele>
        <time>2021-09-19T08:00:37Z</time>
      </trkpt>
      <trkpt lat="45.102342283353209" lon="7.346648359671235">
        <ele>483.49000000000001</ele>
        <time>2021-09-19T08:00:52Z</time>
      </trkpt>
      <trkpt lat="45.102346893399954" lon="7.346653724089265">
        <ele>484.24000000000001</ele>
        <time>2021-09-19T08:01:12Z</time>
      </trkpt>
      <trkpt lat="45.102335661649704" lon="7.346663530915976">
        <ele>484.92000000000002</ele>
        <time>2021-09-19T08:01:31Z</time>
      </trkpt>
      <trkpt lat="45.102334236726165" lon="7.346652299165726">
        <ele>485.13999999999999</ele>
        <time>2021-09-19T08:01:47Z</time>
      </trkpt>
      <trkpt lat="45.102336667478085" lon="7.346646767109633">
        <ele>485.06999999999999</ele>
        <time>2021-09-19T08:02:03Z</time>
      </trkpt>
      <trkpt lat="45.102343875914812" lon="7.34663737937808">
        <ele>485.00999999999999</ele>
        <time>2021-09-19T08:02:21Z</time>
      </trkpt>
      <trkpt lat="45.10233205743134" lon="7.346651377156377">
        <ele>484.81</ele>
        <time>2021-09-19T08:02:35Z</time>
      </trkpt>
      <trkpt lat="45.102299200370908" lon="7.346662441268563">
        <ele>485.11000000000001</ele>
        <time>2021-09-19T08:02:47Z</time>
      </trkpt>
      <trkpt lat="45.102257207036018" lon="7.346613071858883">
        <ele>485.69</ele>
        <time>2021-09-19T08:02:56Z</time>
      </trkpt>
      <trkpt lat="45.102206831797957" lon="7.346585327759385">
        <ele>488.31999999999999</ele>
        <time>2021-09-19T08:03:07Z</time>
      </trkpt>
      <trkpt lat="45.102171041071415" lon="7.346589183434844">
        <ele>491.14999999999998</ele>
        <time>2021-09-19T08:03:20Z</time>
      </trkpt>
      <trkpt lat="45.102141620591283" lon="7.346589434891939">
        <ele>493.66000000000003</ele>
        <time>2021-09-19T08:03:31Z</time>
      </trkpt>
      <trkpt lat="45.102114714682102" lon="7.34659287147224">
        <ele>494.73000000000002</ele>
        <time>2021-09-19T08:03:41Z</time>
      </trkpt>
      <trkpt lat="45.10208236053586" lon="7.346563786268234">
        <ele>497.33999999999997</ele>
        <time>2021-09-19T08:03:54Z</time>
      </trkpt>
      <trkpt lat="45.102070961147547" lon="7.346566552296281">
        <ele>498.07999999999998</ele>
        <time>2021-09-19T08:04:03Z</time>
      </trkpt>
      <trkpt lat="45.102062160149217" lon="7.346573173999786">
        <ele>498.64999999999998</ele>
        <time>2021-09-19T08:04:18Z</time>
      </trkpt>
      <trkpt lat="45.102057885378599" lon="7.34657384455204">
        <ele>499.63999999999999</ele>
        <time>2021-09-19T08:04:32Z</time>
      </trkpt>
      <trkpt lat="45.102049922570586" lon="7.346585998311639">
        <ele>500.62</ele>
        <time>2021-09-19T08:04:50Z</time>
      </trkpt>
      <trkpt lat="45.102038355544209" lon="7.346612485125661">
        <ele>500.99000000000001</ele>
        <time>2021-09-19T08:04:59Z</time>
      </trkpt>
      <trkpt lat="45.102028045803308" lon="7.3466139100492">
        <ele>501.87</ele>
        <time>2021-09-19T08:05:17Z</time>
      </trkpt>
      <trkpt lat="45.102027207612991" lon="7.34660804271698">
        <ele>502.72000000000003</ele>
        <time>2021-09-19T08:05:34Z</time>
      </trkpt>
      <trkpt lat="45.10202125646174" lon="7.346605276688933">
        <ele>503.69</ele>
        <time>2021-09-19T08:05:47Z</time>
      </trkpt>
      <trkpt lat="45.102021927013993" lon="7.346598068252206">
        <ele>504.51999999999998</ele>
        <time>2021-09-19T08:06:00Z</time>
      </trkpt>
      <trkpt lat="45.102032152935863" lon="7.346593206748366">
        <ele>504.48000000000002</ele>
        <time>2021-09-19T08:06:16Z</time>
      </trkpt>
      <trkpt lat="45.102036092430353" lon="7.346576442942023">
        <ele>504.29000000000002</ele>
        <time>2021-09-19T08:06:30Z</time>
      </trkpt>
      <trkpt lat="45.102028045803308" lon="7.346558254212141">
        <ele>505.12</ele>
        <time>2021-09-19T08:06:55Z</time>
      </trkpt>
      <trkpt lat="45.102011533454061" lon="7.346543585881591">
        <ele>506.64999999999998</ele>
        <time>2021-09-19T08:07:09Z</time>
      </trkpt>
      <trkpt lat="45.101995943114161" lon="7.346512405201793">
        <ele>508.20999999999998</ele>
        <time>2021-09-19T08:07:20Z</time>
      </trkpt>
      <trkpt lat="45.102003319188952" lon="7.346523972228169">
        <ele>508.25</ele>
        <time>2021-09-19T08:07:34Z</time>
      </trkpt>
      <trkpt lat="45.102010108530521" lon="7.34653034247458">
        <ele>508.45999999999998</ele>
        <time>2021-09-19T08:07:48Z</time>
      </trkpt>
      <trkpt lat="45.102015724405646" lon="7.346537718549371">
        <ele>508.63</ele>
        <time>2021-09-19T08:08:08Z</time>
      </trkpt>
      <trkpt lat="45.101996026933193" lon="7.346511483192444">
        <ele>509.37</ele>
        <time>2021-09-19T08:08:26Z</time>
      </trkpt>
      <trkpt lat="45.102012455463409" lon="7.346505364403129">
        <ele>509.62</ele>
        <time>2021-09-19T08:08:45Z</time>
      </trkpt>
      <trkpt lat="45.101999463513494" lon="7.346499999985099">
        <ele>509.81</ele>
        <time>2021-09-19T08:09:01Z</time>
      </trkpt>
      <trkpt lat="45.101977335289121" lon="7.346461862325668">
        <ele>509.69999999999999</ele>
        <time>2021-09-19T08:09:14Z</time>
      </trkpt>
      <trkpt lat="45.101955709978938" lon="7.346427915617824">
        <ele>510.55000000000001</ele>
        <time>2021-09-19T08:09:27Z</time>
      </trkpt>
      <trkpt lat="45.101932156831026" lon="7.346374522894621">
        <ele>513.23000000000002</ele>
        <time>2021-09-19T08:09:41Z</time>
      </trkpt>
      <trkpt lat="45.101887313649058" lon="7.346362704411149">
        <ele>513.96000000000004</ele>
        <time>2021-09-19T08:09:59Z</time>
      </trkpt>
      <trkpt lat="45.10188153013587" lon="7.346353819593787">
        <ele>514.87</ele>
        <time>2021-09-19T08:10:15Z</time>
      </trkpt>
      <trkpt lat="45.10187566280365" lon="7.346363039687276">
        <ele>515.74000000000001</ele>
        <time>2021-09-19T08:10:35Z</time>
      </trkpt>
      <trkpt lat="45.101894270628691" lon="7.34637058340013">
        <ele>516.88</ele>
        <time>2021-09-19T08:10:52Z</time>
      </trkpt>
      <trkpt lat="45.101901730522513" lon="7.346364296972752">
        <ele>517.67999999999995</ele>
        <time>2021-09-19T08:11:06Z</time>
      </trkpt>
      <trkpt lat="45.101911453530192" lon="7.346375277265906">
        <ele>517.57000000000005</ele>
        <time>2021-09-19T08:11:29Z</time>
      </trkpt>
      <trkpt lat="45.101923858746886" lon="7.346360022202134">
        <ele>518.11000000000001</ele>
        <time>2021-09-19T08:11:49Z</time>
      </trkpt>
      <trkpt lat="45.101930145174265" lon="7.346384832635522">
        <ele>518</ele>
        <time>2021-09-19T08:12:10Z</time>
      </trkpt>
      <trkpt lat="45.10192503221333" lon="7.346413834020495">
        <ele>518.19000000000005</ele>
        <time>2021-09-19T08:12:31Z</time>
      </trkpt>
      <trkpt lat="45.101922601461411" lon="7.34643311239779">
        <ele>518.44000000000005</ele>
        <time>2021-09-19T08:12:58Z</time>
      </trkpt>
      <trkpt lat="45.101924948394299" lon="7.346433028578758">
        <ele>518.20000000000005</ele>
        <time>2021-09-19T08:13:21Z</time>
      </trkpt>
      <trkpt lat="45.101931737735868" lon="7.346425903961062">
        <ele>518.52999999999997</ele>
        <time>2021-09-19T08:13:49Z</time>
      </trkpt>
      <trkpt lat="45.101939868181944" lon="7.346375193446875">
        <ele>519.58000000000004</ele>
        <time>2021-09-19T08:14:05Z</time>
      </trkpt>
      <trkpt lat="45.10193676687777" lon="7.346369829028845">
        <ele>519.61000000000001</ele>
        <time>2021-09-19T08:14:26Z</time>
      </trkpt>
      <trkpt lat="45.10194506496191" lon="7.346361866220832">
        <ele>520.25999999999999</ele>
        <time>2021-09-19T08:14:38Z</time>
      </trkpt>
      <trkpt lat="45.101940538734198" lon="7.346356837078929">
        <ele>521.12</ele>
        <time>2021-09-19T08:14:52Z</time>
      </trkpt>
      <trkpt lat="45.101946573704481" lon="7.346353819593787">
        <ele>522.69000000000005</ele>
        <time>2021-09-19T08:15:09Z</time>
      </trkpt>
      <trkpt lat="45.101944142952561" lon="7.346333619207144">
        <ele>523.57000000000005</ele>
        <time>2021-09-19T08:15:25Z</time>
      </trkpt>
      <trkpt lat="45.101948333904147" lon="7.346323896199465">
        <ele>525.00999999999999</ele>
        <time>2021-09-19T08:15:41Z</time>
      </trkpt>
      <trkpt lat="45.101949088275433" lon="7.346305036917329">
        <ele>525.19000000000005</ele>
        <time>2021-09-19T08:15:57Z</time>
      </trkpt>
      <trkpt lat="45.101949004456401" lon="7.346320208162069">
        <ele>525.39999999999998</ele>
        <time>2021-09-19T08:16:13Z</time>
      </trkpt>
      <trkpt lat="45.101967947557569" lon="7.34630947932601">
        <ele>526.67999999999995</ele>
        <time>2021-09-19T08:16:36Z</time>
      </trkpt>
      <trkpt lat="45.101970126852393" lon="7.346315262839198">
        <ele>526.40999999999997</ele>
        <time>2021-09-19T08:16:54Z</time>
      </trkpt>
      <trkpt lat="45.101975239813328" lon="7.346298918128014">
        <ele>526.58000000000004</ele>
        <time>2021-09-19T08:17:10Z</time>
      </trkpt>
      <trkpt lat="45.101975575089455" lon="7.346293050795794">
        <ele>528.14999999999998</ele>
        <time>2021-09-19T08:17:27Z</time>
      </trkpt>
      <trkpt lat="45.101981274783611" lon="7.346282238140702">
        <ele>529.58000000000004</ele>
        <time>2021-09-19T08:17:43Z</time>
      </trkpt>
      <trkpt lat="45.101989405229688" lon="7.346256002783775">
        <ele>530.48000000000002</ele>
        <time>2021-09-19T08:17:55Z</time>
      </trkpt>
      <trkpt lat="45.102001558989286" lon="7.346260696649551">
        <ele>530.25</ele>
        <time>2021-09-19T08:18:15Z</time>
      </trkpt>
      <trkpt lat="45.102003151550889" lon="7.346254996955395">
        <ele>530.47000000000003</ele>
        <time>2021-09-19T08:18:36Z</time>
      </trkpt>
      <trkpt lat="45.102021340280771" lon="7.346271425485611">
        <ele>530.24000000000001</ele>
        <time>2021-09-19T08:19:06Z</time>
      </trkpt>
      <trkpt lat="45.102019244804978" lon="7.346277041360736">
        <ele>530.79999999999995</ele>
        <time>2021-09-19T08:19:30Z</time>
      </trkpt>
      <trkpt lat="45.102015975862741" lon="7.346245106309652">
        <ele>532.17999999999995</ele>
        <time>2021-09-19T08:19:53Z</time>
      </trkpt>
      <trkpt lat="45.102002983912826" lon="7.346247788518667">
        <ele>532.25999999999999</ele>
        <time>2021-09-19T08:20:13Z</time>
      </trkpt>
      <trkpt lat="45.101985717192292" lon="7.346232030540705">
        <ele>531.90999999999997</ele>
        <time>2021-09-19T08:20:32Z</time>
      </trkpt>
      <trkpt lat="45.101955374702811" lon="7.346236305311322">
        <ele>531.60000000000002</ele>
        <time>2021-09-19T08:20:54Z</time>
      </trkpt>
      <trkpt lat="45.101987645030022" lon="7.346274275332689">
        <ele>532.57000000000005</ele>
        <time>2021-09-19T08:21:13Z</time>
      </trkpt>
      <trkpt lat="45.101992171257734" lon="7.346286261454225">
        <ele>532.42999999999995</ele>
        <time>2021-09-19T08:21:14Z</time>
      </trkpt>
      <trkpt lat="45.102001978084445" lon="7.346296487376094">
        <ele>532.39999999999998</ele>
        <time>2021-09-19T08:21:35Z</time>
      </trkpt>
      <trkpt lat="45.102018574252725" lon="7.346270335838199">
        <ele>533.55999999999995</ele>
        <time>2021-09-19T08:21:52Z</time>
      </trkpt>
      <trkpt lat="45.102030225098133" lon="7.346246782690287">
        <ele>533.85000000000002</ele>
        <time>2021-09-19T08:22:10Z</time>
      </trkpt>
      <trkpt lat="45.102020250633359" lon="7.346202526241541">
        <ele>536.01999999999998</ele>
        <time>2021-09-19T08:22:32Z</time>
      </trkpt>
      <trkpt lat="45.102038020268083" lon="7.346188025549054">
        <ele>536.75</ele>
        <time>2021-09-19T08:22:46Z</time>
      </trkpt>
      <trkpt lat="45.102027961984277" lon="7.346182325854898">
        <ele>537.28999999999996</ele>
        <time>2021-09-19T08:23:00Z</time>
      </trkpt>
      <trkpt lat="45.102037768810987" lon="7.346195988357067">
        <ele>538.58000000000004</ele>
        <time>2021-09-19T08:23:10Z</time>
      </trkpt>
      <trkpt lat="45.102038271725178" lon="7.346194563433528">
        <ele>538.45000000000005</ele>
        <time>2021-09-19T08:23:11Z</time>
      </trkpt>
      <trkpt lat="45.102029722183943" lon="7.346178470179439">
        <ele>538.09000000000003</ele>
        <time>2021-09-19T08:23:19Z</time>
      </trkpt>
      <trkpt lat="45.102036343887448" lon="7.346176374703646">
        <ele>538</ele>
        <time>2021-09-19T08:23:33Z</time>
      </trkpt>
      <trkpt lat="45.102040618658066" lon="7.346169333904982">
        <ele>538.26999999999998</ele>
        <time>2021-09-19T08:23:55Z</time>
      </trkpt>
      <trkpt lat="45.102039193734527" lon="7.346163047477603">
        <ele>539.74000000000001</ele>
        <time>2021-09-19T08:24:16Z</time>
      </trkpt>
      <trkpt lat="45.102038774639368" lon="7.346145864576101">
        <ele>541.33000000000004</ele>
        <time>2021-09-19T08:24:30Z</time>
      </trkpt>
      <trkpt lat="45.102040786296129" lon="7.346146618947387">
        <ele>540.83000000000004</ele>
        <time>2021-09-19T08:24:46Z</time>
      </trkpt>
      <trkpt lat="45.102045396342874" lon="7.346134716644883">
        <ele>541.64999999999998</ele>
        <time>2021-09-19T08:25:00Z</time>
      </trkpt>
      <trkpt lat="45.102043133229017" lon="7.346147624775767">
        <ele>541.51999999999998</ele>
        <time>2021-09-19T08:25:23Z</time>
      </trkpt>
      <trkpt lat="45.102046485990286" lon="7.34614284709096">
        <ele>541.80999999999995</ele>
        <time>2021-09-19T08:25:36Z</time>
      </trkpt>
      <trkpt lat="45.102042714133859" lon="7.346140583977103">
        <ele>542.91999999999996</ele>
        <time>2021-09-19T08:25:52Z</time>
      </trkpt>
      <trkpt lat="45.102026201784611" lon="7.346118958666921">
        <ele>544.57000000000005</ele>
        <time>2021-09-19T08:26:06Z</time>
      </trkpt>
      <trkpt lat="45.102024944499135" lon="7.34608568251133">
        <ele>544.96000000000004</ele>
        <time>2021-09-19T08:26:19Z</time>
      </trkpt>
      <trkpt lat="45.102031817659736" lon="7.346083503216505">
        <ele>545.22000000000003</ele>
        <time>2021-09-19T08:26:38Z</time>
      </trkpt>
      <trkpt lat="45.102021675556898" lon="7.346074283123016">
        <ele>546.19000000000005</ele>
        <time>2021-09-19T08:26:54Z</time>
      </trkpt>
      <trkpt lat="45.102016646414995" lon="7.346075037494302">
        <ele>546.17999999999995</ele>
        <time>2021-09-19T08:27:12Z</time>
      </trkpt>
      <trkpt lat="45.10201689787209" lon="7.346069253981113">
        <ele>545.85000000000002</ele>
        <time>2021-09-19T08:27:33Z</time>
      </trkpt>
      <trkpt lat="45.102019077166915" lon="7.346070259809494">
        <ele>546.72000000000003</ele>
        <time>2021-09-19T08:27:35Z</time>
      </trkpt>
      <trkpt lat="45.102022429928184" lon="7.34606615267694">
        <ele>546.46000000000004</ele>
        <time>2021-09-19T08:27:53Z</time>
      </trkpt>
      <trkpt lat="45.102024860680103" lon="7.346052238717675">
        <ele>547.41999999999996</ele>
        <time>2021-09-19T08:28:09Z</time>
      </trkpt>
      <trkpt lat="45.102036679163575" lon="7.346054837107658">
        <ele>547.48000000000002</ele>
        <time>2021-09-19T08:28:28Z</time>
      </trkpt>
      <trkpt lat="45.102040786296129" lon="7.346056681126356">
        <ele>549.76999999999998</ele>
        <time>2021-09-19T08:28:47Z</time>
      </trkpt>
      <trkpt lat="45.102037852630019" lon="7.346058106049895">
        <ele>549.69000000000005</ele>
        <time>2021-09-19T08:29:01Z</time>
      </trkpt>
      <trkpt lat="45.102028464898467" lon="7.346052071079612">
        <ele>549.70000000000005</ele>
        <time>2021-09-19T08:29:17Z</time>
      </trkpt>
      <trkpt lat="45.102015053853393" lon="7.346050310879946">
        <ele>552.39999999999998</ele>
        <time>2021-09-19T08:29:27Z</time>
      </trkpt>
      <trkpt lat="45.102012623101473" lon="7.34606028534472">
        <ele>551.23000000000002</ele>
        <time>2021-09-19T08:29:44Z</time>
      </trkpt>
      <trkpt lat="45.102008432149887" lon="7.346052071079612">
        <ele>552.79999999999995</ele>
        <time>2021-09-19T08:29:51Z</time>
      </trkpt>
      <trkpt lat="45.102002900093794" lon="7.346046790480614">
        <ele>555.17999999999995</ele>
        <time>2021-09-19T08:30:01Z</time>
      </trkpt>
      <trkpt lat="45.102002397179604" lon="7.346045868471265">
        <ele>554.22000000000003</ele>
        <time>2021-09-19T08:30:17Z</time>
      </trkpt>
      <trkpt lat="45.10200759395957" lon="7.346044024452567">
        <ele>554.11000000000001</ele>
        <time>2021-09-19T08:30:40Z</time>
      </trkpt>
      <trkpt lat="45.101994099095464" lon="7.346053328365088">
        <ele>553.59000000000003</ele>
        <time>2021-09-19T08:31:07Z</time>
      </trkpt>
      <trkpt lat="45.101989740505815" lon="7.346054585650563">
        <ele>554.73000000000002</ele>
        <time>2021-09-19T08:31:24Z</time>
      </trkpt>
      <trkpt lat="45.101992506533861" lon="7.346059447154403">
        <ele>552.76999999999998</ele>
        <time>2021-09-19T08:31:44Z</time>
      </trkpt>
      <trkpt lat="45.101988231763244" lon="7.346055926755071">
        <ele>552.87</ele>
        <time>2021-09-19T08:32:05Z</time>
      </trkpt>
      <trkpt lat="45.101980771869421" lon="7.346048718318343">
        <ele>553.20000000000005</ele>
        <time>2021-09-19T08:32:28Z</time>
      </trkpt>
      <trkpt lat="45.101987980306149" lon="7.346026841551065">
        <ele>552.49000000000001</ele>
        <time>2021-09-19T08:32:42Z</time>
      </trkpt>
      <trkpt lat="45.1019904948771" lon="7.346022902056575">
        <ele>552.42999999999995</ele>
        <time>2021-09-19T08:33:08Z</time>
      </trkpt>
      <trkpt lat="45.101989489048719" lon="7.346032289788127">
        <ele>553.28999999999996</ele>
        <time>2021-09-19T08:33:28Z</time>
      </trkpt>
      <trkpt lat="45.10197582654655" lon="7.34606321901083">
        <ele>552.69000000000005</ele>
        <time>2021-09-19T08:33:42Z</time>
      </trkpt>
      <trkpt lat="45.101964846253395" lon="7.346045533195138">
        <ele>553.08000000000004</ele>
        <time>2021-09-19T08:33:59Z</time>
      </trkpt>
      <trkpt lat="45.101957973092794" lon="7.346040923148394">
        <ele>552.97000000000003</ele>
        <time>2021-09-19T08:34:20Z</time>
      </trkpt>
      <trkpt lat="45.101958895102143" lon="7.346053663641214">
        <ele>555.08000000000004</ele>
        <time>2021-09-19T08:34:33Z</time>
      </trkpt>
      <trkpt lat="45.101954201236367" lon="7.346045197919011">
        <ele>555.48000000000002</ele>
        <time>2021-09-19T08:34:48Z</time>
      </trkpt>
      <trkpt lat="45.101948920637369" lon="7.346052238717675">
        <ele>555.09000000000003</ele>
        <time>2021-09-19T08:35:06Z</time>
      </trkpt>
      <trkpt lat="45.101956715807319" lon="7.34605148434639">
        <ele>555.91999999999996</ele>
        <time>2021-09-19T08:35:27Z</time>
      </trkpt>
      <trkpt lat="45.101955542340875" lon="7.346048718318343">
        <ele>555.63</ele>
        <time>2021-09-19T08:35:53Z</time>
      </trkpt>
      <trkpt lat="45.10194405913353" lon="7.346036648377776">
        <ele>556.75999999999999</ele>
        <time>2021-09-19T08:36:00Z</time>
      </trkpt>
      <trkpt lat="45.101937437430024" lon="7.346016028895974">
        <ele>557.60000000000002</ele>
        <time>2021-09-19T08:36:13Z</time>
      </trkpt>
      <trkpt lat="45.101924445480108" lon="7.346004964783788">
        <ele>557.26999999999998</ele>
        <time>2021-09-19T08:36:34Z</time>
      </trkpt>
      <trkpt lat="45.101924948394299" lon="7.346008904278278">
        <ele>556.92999999999995</ele>
        <time>2021-09-19T08:36:50Z</time>
      </trkpt>
      <trkpt lat="45.101924445480108" lon="7.346012005582452">
        <ele>558.20000000000005</ele>
        <time>2021-09-19T08:36:57Z</time>
      </trkpt>
      <trkpt lat="45.101900557056069" lon="7.345981914550066">
        <ele>556.77999999999997</ele>
        <time>2021-09-19T08:37:08Z</time>
      </trkpt>
      <trkpt lat="45.101913716644049" lon="7.345888875424862">
        <ele>556.63999999999999</ele>
        <time>2021-09-19T08:37:20Z</time>
      </trkpt>
      <trkpt lat="45.101903658360243" lon="7.345873033627868">
        <ele>556.19000000000005</ele>
        <time>2021-09-19T08:37:35Z</time>
      </trkpt>
      <trkpt lat="45.101877171546221" lon="7.345855683088303">
        <ele>556.76999999999998</ele>
        <time>2021-09-19T08:37:49Z</time>
      </trkpt>
      <trkpt lat="45.101876249536872" lon="7.345853252336383">
        <ele>558.13</ele>
        <time>2021-09-19T08:38:07Z</time>
      </trkpt>
      <trkpt lat="45.101871890947223" lon="7.345852162688971">
        <ele>558.84000000000003</ele>
        <time>2021-09-19T08:38:24Z</time>
      </trkpt>
      <trkpt lat="45.101863844320178" lon="7.345848977565765">
        <ele>560.09000000000003</ele>
        <time>2021-09-19T08:38:36Z</time>
      </trkpt>
      <trkpt lat="45.101860156282783" lon="7.345846462994814">
        <ele>560.29999999999995</ele>
        <time>2021-09-19T08:38:50Z</time>
      </trkpt>
      <trkpt lat="45.101864011958241" lon="7.345808073878288">
        <ele>562.14999999999998</ele>
        <time>2021-09-19T08:39:03Z</time>
      </trkpt>
      <trkpt lat="45.101857641711831" lon="7.345806481316686">
        <ele>563.00999999999999</ele>
        <time>2021-09-19T08:39:18Z</time>
      </trkpt>
      <trkpt lat="45.101853366941214" lon="7.345798686146736">
        <ele>563.24000000000001</ele>
        <time>2021-09-19T08:39:37Z</time>
      </trkpt>
      <trkpt lat="45.101844985038042" lon="7.34579592011869">
        <ele>562.88999999999999</ele>
        <time>2021-09-19T08:39:54Z</time>
      </trkpt>
      <trkpt lat="45.101846409961581" lon="7.345796003937721">
        <ele>563.42999999999995</ele>
        <time>2021-09-19T08:40:16Z</time>
      </trkpt>
      <trkpt lat="45.101843643933535" lon="7.34579055570066">
        <ele>563.5</ele>
        <time>2021-09-19T08:40:35Z</time>
      </trkpt>
      <trkpt lat="45.101840542629361" lon="7.345790890976787">
        <ele>563.13</ele>
        <time>2021-09-19T08:40:48Z</time>
      </trkpt>
      <trkpt lat="45.101843057200313" lon="7.345787370577455">
        <ele>563.50999999999999</ele>
        <time>2021-09-19T08:41:08Z</time>
      </trkpt>
      <trkpt lat="45.101819420233369" lon="7.345787035301328">
        <ele>563.34000000000003</ele>
        <time>2021-09-19T08:41:17Z</time>
      </trkpt>
      <trkpt lat="45.101734092459083" lon="7.345787873491645">
        <ele>565.07000000000005</ele>
        <time>2021-09-19T08:41:30Z</time>
      </trkpt>
      <trkpt lat="45.101694110780954" lon="7.34579449519515">
        <ele>567.42999999999995</ele>
        <time>2021-09-19T08:41:43Z</time>
      </trkpt>
      <trkpt lat="45.101682962849736" lon="7.345787705853581">
        <ele>568.61000000000001</ele>
        <time>2021-09-19T08:41:47Z</time>
      </trkpt>
      <trkpt lat="45.101661253720522" lon="7.345785275101662">
        <ele>569.61000000000001</ele>
        <time>2021-09-19T08:41:56Z</time>
      </trkpt>
      <trkpt lat="45.101667121052742" lon="7.345780078321695">
        <ele>570.44000000000005</ele>
        <time>2021-09-19T08:42:10Z</time>
      </trkpt>
      <trkpt lat="45.10165873914957" lon="7.345790388062596">
        <ele>571.30999999999995</ele>
        <time>2021-09-19T08:42:28Z</time>
      </trkpt>
      <trkpt lat="45.101640298962593" lon="7.345812432467938">
        <ele>572.94000000000005</ele>
        <time>2021-09-19T08:42:44Z</time>
      </trkpt>
      <trkpt lat="45.101644489914179" lon="7.345823245123029">
        <ele>573.02999999999997</ele>
        <time>2021-09-19T08:43:00Z</time>
      </trkpt>
      <trkpt lat="45.101637030020356" lon="7.345822574570775">
        <ele>573.59000000000003</ele>
        <time>2021-09-19T08:43:14Z</time>
      </trkpt>
      <trkpt lat="45.101635437458754" lon="7.345820898190141">
        <ele>574.30999999999995</ele>
        <time>2021-09-19T08:43:32Z</time>
      </trkpt>
      <trkpt lat="45.101642394438386" lon="7.345827519893646">
        <ele>574.04999999999995</ele>
        <time>2021-09-19T08:43:50Z</time>
      </trkpt>
      <trkpt lat="45.101645160466433" lon="7.345826514065266">
        <ele>574.14999999999998</ele>
        <time>2021-09-19T08:44:08Z</time>
      </trkpt>
      <trkpt lat="45.101655721664429" lon="7.345827938988805">
        <ele>573.54999999999995</ele>
        <time>2021-09-19T08:44:17Z</time>
      </trkpt>
      <trkpt lat="45.101657900959253" lon="7.345834393054247">
        <ele>573.66999999999996</ele>
        <time>2021-09-19T08:44:33Z</time>
      </trkpt>
      <trkpt lat="45.101645076647401" lon="7.345832632854581">
        <ele>573.67999999999995</ele>
        <time>2021-09-19T08:44:57Z</time>
      </trkpt>
      <trkpt lat="45.101637616753578" lon="7.345826178789139">
        <ele>573.97000000000003</ele>
        <time>2021-09-19T08:45:15Z</time>
      </trkpt>
      <trkpt lat="45.101633090525866" lon="7.345811259001494">
        <ele>575</ele>
        <time>2021-09-19T08:45:34Z</time>
      </trkpt>
      <trkpt lat="45.101624540984631" lon="7.345799272879958">
        <ele>576.38</ele>
        <time>2021-09-19T08:45:45Z</time>
      </trkpt>
      <trkpt lat="45.101629234850407" lon="7.345792064443231">
        <ele>577.16999999999996</ele>
        <time>2021-09-19T08:46:00Z</time>
      </trkpt>
      <trkpt lat="45.101623367518187" lon="7.345800446346402">
        <ele>577.32000000000005</ele>
        <time>2021-09-19T08:46:22Z</time>
      </trkpt>
      <trkpt lat="45.101631078869104" lon="7.345797512680292">
        <ele>577.49000000000001</ele>
        <time>2021-09-19T08:46:45Z</time>
      </trkpt>
      <trkpt lat="45.101630827412009" lon="7.3457988537848">
        <ele>577.70000000000005</ele>
        <time>2021-09-19T08:47:14Z</time>
      </trkpt>
      <trkpt lat="45.101641807705164" lon="7.345782425254583">
        <ele>577.19000000000005</ele>
        <time>2021-09-19T08:47:37Z</time>
      </trkpt>
      <trkpt lat="45.101636694744229" lon="7.345787789672613">
        <ele>576.57000000000005</ele>
        <time>2021-09-19T08:47:53Z</time>
      </trkpt>
      <trkpt lat="45.10164063423872" lon="7.345798183232546">
        <ele>576.53999999999996</ele>
        <time>2021-09-19T08:48:06Z</time>
      </trkpt>
      <trkpt lat="45.101638957858086" lon="7.345809331163764">
        <ele>575.83000000000004</ele>
        <time>2021-09-19T08:48:19Z</time>
      </trkpt>
      <trkpt lat="45.101655386388302" lon="7.345809079706669">
        <ele>574.84000000000003</ele>
        <time>2021-09-19T08:48:33Z</time>
      </trkpt>
      <trkpt lat="45.101653626188636" lon="7.345807151868939">
        <ele>575</ele>
        <time>2021-09-19T08:49:03Z</time>
      </trkpt>
      <trkpt lat="45.101644909009337" lon="7.345802960917354">
        <ele>574.69000000000005</ele>
        <time>2021-09-19T08:49:16Z</time>
      </trkpt>
      <trkpt lat="45.101647339761257" lon="7.3457988537848">
        <ele>574.42999999999995</ele>
        <time>2021-09-19T08:49:24Z</time>
      </trkpt>
      <trkpt lat="45.101637868210673" lon="7.345790136605501">
        <ele>575.38999999999999</ele>
        <time>2021-09-19T08:49:42Z</time>
      </trkpt>
      <trkpt lat="45.101635940372944" lon="7.345810001716018">
        <ele>575.22000000000003</ele>
        <time>2021-09-19T08:49:56Z</time>
      </trkpt>
      <trkpt lat="45.101646082475781" lon="7.345808073878288">
        <ele>574.84000000000003</ele>
        <time>2021-09-19T08:50:12Z</time>
      </trkpt>
      <trkpt lat="45.101644154638052" lon="7.345814360305667">
        <ele>575.09000000000003</ele>
        <time>2021-09-19T08:50:38Z</time>
      </trkpt>
      <trkpt lat="45.101662594825029" lon="7.345809834077954">
        <ele>575.05999999999995</ele>
        <time>2021-09-19T08:50:54Z</time>
      </trkpt>
      <trkpt lat="45.101658990606666" lon="7.345805140212178">
        <ele>574.98000000000002</ele>
        <time>2021-09-19T08:51:03Z</time>
      </trkpt>
      <trkpt lat="45.101657146587968" lon="7.345803547650576">
        <ele>574.88</ele>
        <time>2021-09-19T08:51:17Z</time>
      </trkpt>
      <trkpt lat="45.101636862382293" lon="7.345795333385468">
        <ele>575.63999999999999</ele>
        <time>2021-09-19T08:51:34Z</time>
      </trkpt>
      <trkpt lat="45.101621020585299" lon="7.345801200717688">
        <ele>576.35000000000002</ele>
        <time>2021-09-19T08:51:51Z</time>
      </trkpt>
      <trkpt lat="45.101617500185966" lon="7.345788711681962">
        <ele>577.09000000000003</ele>
        <time>2021-09-19T08:52:08Z</time>
      </trkpt>
      <trkpt lat="45.101618673652411" lon="7.345812600106001">
        <ele>577.5</ele>
        <time>2021-09-19T08:52:22Z</time>
      </trkpt>
      <trkpt lat="45.101594533771276" lon="7.345831962302327">
        <ele>578.94000000000005</ele>
        <time>2021-09-19T08:52:36Z</time>
      </trkpt>
      <trkpt lat="45.101585732772946" lon="7.345837997272611">
        <ele>579.95000000000005</ele>
        <time>2021-09-19T08:52:53Z</time>
      </trkpt>
      <trkpt lat="45.101576009765267" lon="7.345827100798488">
        <ele>580.72000000000003</ele>
        <time>2021-09-19T08:53:14Z</time>
      </trkpt>
      <trkpt lat="45.101564107462764" lon="7.34580765478313">
        <ele>581.66999999999996</ele>
        <time>2021-09-19T08:53:30Z</time>
      </trkpt>
      <trkpt lat="45.101574752479792" lon="7.345809247344732">
        <ele>581.51999999999998</ele>
        <time>2021-09-19T08:53:47Z</time>
      </trkpt>
      <trkpt lat="45.101574752479792" lon="7.345806648954749">
        <ele>581.41999999999996</ele>
        <time>2021-09-19T08:54:06Z</time>
      </trkpt>
      <trkpt lat="45.101576177403331" lon="7.345806481316686">
        <ele>581.66999999999996</ele>
        <time>2021-09-19T08:54:25Z</time>
      </trkpt>
      <trkpt lat="45.101575674489141" lon="7.345807151868939">
        <ele>581.66999999999996</ele>
        <time>2021-09-19T08:54:41Z</time>
      </trkpt>
      <trkpt lat="45.101577434688807" lon="7.345811929553747">
        <ele>582.19000000000005</ele>
        <time>2021-09-19T08:55:00Z</time>
      </trkpt>
      <trkpt lat="45.101563101634383" lon="7.345799691975117">
        <ele>583.22000000000003</ele>
        <time>2021-09-19T08:55:17Z</time>
      </trkpt>
      <trkpt lat="45.101557904854417" lon="7.345801535993815">
        <ele>583.83000000000004</ele>
        <time>2021-09-19T08:55:31Z</time>
      </trkpt>
      <trkpt lat="45.101566957309842" lon="7.345801116898656">
        <ele>584.02999999999997</ele>
        <time>2021-09-19T08:56:03Z</time>
      </trkpt>
      <trkpt lat="45.101568382233381" lon="7.34579935669899">
        <ele>583.99000000000001</ele>
        <time>2021-09-19T08:56:33Z</time>
      </trkpt>
      <trkpt lat="45.101568466052413" lon="7.345799524337053">
        <ele>583.92999999999995</ele>
        <time>2021-09-19T08:56:34Z</time>
      </trkpt>
      <trkpt lat="45.101569555699825" lon="7.345799524337053">
        <ele>583.65999999999997</ele>
        <time>2021-09-19T08:56:40Z</time>
      </trkpt>
      <trkpt lat="45.101568633690476" lon="7.345793154090643">
        <ele>584.01999999999998</ele>
        <time>2021-09-19T08:57:00Z</time>
      </trkpt>
      <trkpt lat="45.101547343656421" lon="7.345801871269941">
        <ele>585.96000000000004</ele>
        <time>2021-09-19T08:57:16Z</time>
      </trkpt>
      <trkpt lat="45.101557485759258" lon="7.345793824642897">
        <ele>586.08000000000004</ele>
        <time>2021-09-19T08:57:21Z</time>
      </trkpt>
      <trkpt lat="45.101548852398992" lon="7.345787286758423">
        <ele>586.90999999999997</ele>
        <time>2021-09-19T08:57:32Z</time>
      </trkpt>
      <trkpt lat="45.101554216817021" lon="7.345800111070275">
        <ele>587.32000000000005</ele>
        <time>2021-09-19T08:57:46Z</time>
      </trkpt>
      <trkpt lat="45.101541727781296" lon="7.345791812986136">
        <ele>588.19000000000005</ele>
        <time>2021-09-19T08:57:58Z</time>
      </trkpt>
      <trkpt lat="45.101540051400661" lon="7.345786532387137">
        <ele>588.41999999999996</ele>
        <time>2021-09-19T08:58:14Z</time>
      </trkpt>
      <trkpt lat="45.101529490202665" lon="7.345811929553747">
        <ele>590.07000000000005</ele>
        <time>2021-09-19T08:58:24Z</time>
      </trkpt>
      <trkpt lat="45.101528149098158" lon="7.345808995887637">
        <ele>590.47000000000003</ele>
        <time>2021-09-19T08:58:26Z</time>
      </trkpt>
      <trkpt lat="45.101519264280796" lon="7.345830872654915">
        <ele>590.44000000000005</ele>
        <time>2021-09-19T08:58:36Z</time>
      </trkpt>
      <trkpt lat="45.101517336443067" lon="7.345829950645566">
        <ele>590.92999999999995</ele>
        <time>2021-09-19T08:58:56Z</time>
      </trkpt>
      <trkpt lat="45.101509792730212" lon="7.345810672268271">
        <ele>590.62</ele>
        <time>2021-09-19T08:59:28Z</time>
      </trkpt>
      <trkpt lat="45.101493783295155" lon="7.345810504630208">
        <ele>590.88</ele>
        <time>2021-09-19T08:59:44Z</time>
      </trkpt>
      <trkpt lat="45.101499147713184" lon="7.34580472111702">
        <ele>591.73000000000002</ele>
        <time>2021-09-19T09:00:03Z</time>
      </trkpt>
      <trkpt lat="45.10149110108614" lon="7.345785526558757">
        <ele>592.96000000000004</ele>
        <time>2021-09-19T09:00:15Z</time>
      </trkpt>
      <trkpt lat="45.101500069722533" lon="7.345793321728706">
        <ele>592.70000000000005</ele>
        <time>2021-09-19T09:00:33Z</time>
      </trkpt>
      <trkpt lat="45.101506859064102" lon="7.345784101635218">
        <ele>593.14999999999998</ele>
        <time>2021-09-19T09:00:55Z</time>
      </trkpt>
      <trkpt lat="45.101505937054753" lon="7.34578862786293">
        <ele>593.77999999999997</ele>
        <time>2021-09-19T09:01:17Z</time>
      </trkpt>
      <trkpt lat="45.10150677524507" lon="7.345788711681962">
        <ele>593.72000000000003</ele>
        <time>2021-09-19T09:01:18Z</time>
      </trkpt>
      <trkpt lat="45.101519096642733" lon="7.34578175470233">
        <ele>593.69000000000005</ele>
        <time>2021-09-19T09:01:27Z</time>
      </trkpt>
      <trkpt lat="45.101482886821032" lon="7.345823412761092">
        <ele>596.22000000000003</ele>
        <time>2021-09-19T09:01:43Z</time>
      </trkpt>
      <trkpt lat="45.101438546553254" lon="7.345846798270941">
        <ele>596.71000000000004</ele>
        <time>2021-09-19T09:01:57Z</time>
      </trkpt>
      <trkpt lat="45.101437792181969" lon="7.345836069434881">
        <ele>596.60000000000002</ele>
        <time>2021-09-19T09:02:08Z</time>
      </trkpt>
      <trkpt lat="45.101440222933888" lon="7.345830202102661">
        <ele>595.75999999999999</ele>
        <time>2021-09-19T09:02:27Z</time>
      </trkpt>
      <trkpt lat="45.101438714191318" lon="7.345814444124699">
        <ele>595.10000000000002</ele>
        <time>2021-09-19T09:02:48Z</time>
      </trkpt>
      <trkpt lat="45.10142614133656" lon="7.34581452794373">
        <ele>594.79999999999995</ele>
        <time>2021-09-19T09:03:02Z</time>
      </trkpt>
      <trkpt lat="45.101430416107178" lon="7.345818132162094">
        <ele>596.05999999999995</ele>
        <time>2021-09-19T09:03:21Z</time>
      </trkpt>
      <trkpt lat="45.101432343944907" lon="7.345826765522361">
        <ele>595.88</ele>
        <time>2021-09-19T09:03:42Z</time>
      </trkpt>
      <trkpt lat="45.101438462734222" lon="7.34581352211535">
        <ele>596.29999999999995</ele>
        <time>2021-09-19T09:03:55Z</time>
      </trkpt>
      <trkpt lat="45.101449275389314" lon="7.345812683925033">
        <ele>596.52999999999997</ele>
        <time>2021-09-19T09:04:16Z</time>
      </trkpt>
      <trkpt lat="45.101446509361267" lon="7.345808912068605">
        <ele>596.35000000000002</ele>
        <time>2021-09-19T09:04:33Z</time>
      </trkpt>
      <trkpt lat="45.101449023932219" lon="7.345798937603831">
        <ele>596.25999999999999</ele>
        <time>2021-09-19T09:04:49Z</time>
      </trkpt>
      <trkpt lat="45.101443575695157" lon="7.345803212374449">
        <ele>596.04999999999995</ele>
        <time>2021-09-19T09:05:17Z</time>
      </trkpt>
      <trkpt lat="45.101430164650083" lon="7.345817042514682">
        <ele>596.36000000000001</ele>
        <time>2021-09-19T09:05:38Z</time>
      </trkpt>
      <trkpt lat="45.101429158821702" lon="7.345809666439891">
        <ele>597.01999999999998</ele>
        <time>2021-09-19T09:05:48Z</time>
      </trkpt>
      <trkpt lat="45.101423375308514" lon="7.34582039527595">
        <ele>597.12</ele>
        <time>2021-09-19T09:06:02Z</time>
      </trkpt>
      <trkpt lat="45.101419184356928" lon="7.345825424417853">
        <ele>596.83000000000004</ele>
        <time>2021-09-19T09:06:13Z</time>
      </trkpt>
      <trkpt lat="45.101420693099499" lon="7.345823664218187">
        <ele>596.67999999999995</ele>
        <time>2021-09-19T09:06:24Z</time>
      </trkpt>
      <trkpt lat="45.101420944556594" lon="7.345822071656585">
        <ele>596.72000000000003</ele>
        <time>2021-09-19T09:06:44Z</time>
      </trkpt>
      <trkpt lat="45.101416083052754" lon="7.345820059999824">
        <ele>597.04999999999995</ele>
        <time>2021-09-19T09:06:59Z</time>
      </trkpt>
      <trkpt lat="45.101417172700167" lon="7.345825005322695">
        <ele>597.19000000000005</ele>
        <time>2021-09-19T09:07:15Z</time>
      </trkpt>
      <trkpt lat="45.101418178528547" lon="7.345822574570775">
        <ele>596.86000000000001</ele>
        <time>2021-09-19T09:07:30Z</time>
      </trkpt>
      <trkpt lat="45.101419016718864" lon="7.345820479094982">
        <ele>596.78999999999996</ele>
        <time>2021-09-19T09:07:52Z</time>
      </trkpt>
      <trkpt lat="45.101456735283136" lon="7.345877224579454">
        <ele>597.36000000000001</ele>
        <time>2021-09-19T09:08:05Z</time>
      </trkpt>
      <trkpt lat="45.10146813467145" lon="7.345830453559756">
        <ele>596.26999999999998</ele>
        <time>2021-09-19T09:08:18Z</time>
      </trkpt>
      <trkpt lat="45.101472577080131" lon="7.345842188224196">
        <ele>596.45000000000005</ele>
        <time>2021-09-19T09:08:38Z</time>
      </trkpt>
      <trkpt lat="45.101451119408011" lon="7.345851743593812">
        <ele>596.02999999999997</ele>
        <time>2021-09-19T09:08:49Z</time>
      </trkpt>
      <trkpt lat="45.101449945941567" lon="7.345851408317685">
        <ele>596.11000000000001</ele>
        <time>2021-09-19T09:09:06Z</time>
      </trkpt>
      <trkpt lat="45.101449778303504" lon="7.345854761078954">
        <ele>596.25999999999999</ele>
        <time>2021-09-19T09:09:30Z</time>
      </trkpt>
      <trkpt lat="45.101448353379965" lon="7.345854844897986">
        <ele>596.55999999999995</ele>
        <time>2021-09-19T09:09:46Z</time>
      </trkpt>
      <trkpt lat="45.101448269560933" lon="7.345815533772111">
        <ele>595.87</ele>
        <time>2021-09-19T09:09:59Z</time>
      </trkpt>
      <trkpt lat="45.101458244025707" lon="7.345810253173113">
        <ele>596.55999999999995</ele>
        <time>2021-09-19T09:10:23Z</time>
      </trkpt>
      <trkpt lat="45.101443491876125" lon="7.345818299800158">
        <ele>597.30999999999995</ele>
        <time>2021-09-19T09:10:37Z</time>
      </trkpt>
      <trkpt lat="45.101431170478463" lon="7.345808744430542">
        <ele>597.13999999999999</ele>
        <time>2021-09-19T09:10:53Z</time>
      </trkpt>
      <trkpt lat="45.101421112194657" lon="7.345810756087303">
        <ele>598.76999999999998</ele>
        <time>2021-09-19T09:11:07Z</time>
      </trkpt>
      <trkpt lat="45.101401330903172" lon="7.345793740823865">
        <ele>600.19000000000005</ele>
        <time>2021-09-19T09:11:23Z</time>
      </trkpt>
      <trkpt lat="45.101409545168281" lon="7.345803799107671">
        <ele>599.58000000000004</ele>
        <time>2021-09-19T09:11:39Z</time>
      </trkpt>
      <trkpt lat="45.101408455520868" lon="7.345806146040559">
        <ele>599.92999999999995</ele>
        <time>2021-09-19T09:11:59Z</time>
      </trkpt>
      <trkpt lat="45.101399151608348" lon="7.345803547650576">
        <ele>602.11000000000001</ele>
        <time>2021-09-19T09:12:04Z</time>
      </trkpt>
      <trkpt lat="45.101390518248081" lon="7.345814863219857">
        <ele>602</ele>
        <time>2021-09-19T09:12:17Z</time>
      </trkpt>
      <trkpt lat="45.101374760270119" lon="7.345819724723697">
        <ele>603.75</ele>
        <time>2021-09-19T09:12:29Z</time>
      </trkpt>
      <trkpt lat="45.101362355053425" lon="7.345816707238555">
        <ele>605.13</ele>
        <time>2021-09-19T09:12:41Z</time>
      </trkpt>
      <trkpt lat="45.101363360881805" lon="7.34577882103622">
        <ele>606.47000000000003</ele>
        <time>2021-09-19T09:12:53Z</time>
      </trkpt>
      <trkpt lat="45.101370317861438" lon="7.345761302858591">
        <ele>607</ele>
        <time>2021-09-19T09:13:05Z</time>
      </trkpt>
      <trkpt lat="45.10137191042304" lon="7.345724254846573">
        <ele>607.25999999999999</ele>
        <time>2021-09-19T09:13:16Z</time>
      </trkpt>
      <trkpt lat="45.101379118859768" lon="7.345708664506674">
        <ele>608.13999999999999</ele>
        <time>2021-09-19T09:13:30Z</time>
      </trkpt>
      <trkpt lat="45.101383896544576" lon="7.345698857679963">
        <ele>608.55999999999995</ele>
        <time>2021-09-19T09:13:51Z</time>
      </trkpt>
      <trkpt lat="45.10137970559299" lon="7.345686871558428">
        <ele>609.88</ele>
        <time>2021-09-19T09:14:07Z</time>
      </trkpt>
      <trkpt lat="45.1013860758394" lon="7.345677902922034">
        <ele>609.48000000000002</ele>
        <time>2021-09-19T09:14:23Z</time>
      </trkpt>
      <trkpt lat="45.101373251527548" lon="7.345660552382469">
        <ele>610.96000000000004</ele>
        <time>2021-09-19T09:14:39Z</time>
      </trkpt>
      <trkpt lat="45.101361935958266" lon="7.34564546495676">
        <ele>612.09000000000003</ele>
        <time>2021-09-19T09:14:52Z</time>
      </trkpt>
      <trkpt lat="45.101362522691488" lon="7.345644291490316">
        <ele>612.61000000000001</ele>
        <time>2021-09-19T09:15:11Z</time>
      </trkpt>
      <trkpt lat="45.10136310942471" lon="7.34562736004591">
        <ele>613.87</ele>
        <time>2021-09-19T09:15:25Z</time>
      </trkpt>
      <trkpt lat="45.101352212950587" lon="7.345608836039901">
        <ele>616.37</ele>
        <time>2021-09-19T09:15:39Z</time>
      </trkpt>
      <trkpt lat="45.101332431659102" lon="7.345555862411857">
        <ele>617.71000000000004</ele>
        <time>2021-09-19T09:15:54Z</time>
      </trkpt>
      <trkpt lat="45.101331425830722" lon="7.345549324527383">
        <ele>618.50999999999999</ele>
        <time>2021-09-19T09:16:09Z</time>
      </trkpt>
      <trkpt lat="45.101325307041407" lon="7.345489980652928">
        <ele>620.25999999999999</ele>
        <time>2021-09-19T09:16:20Z</time>
      </trkpt>
      <trkpt lat="45.101330252364278" lon="7.345497524365783">
        <ele>620.30999999999995</ele>
        <time>2021-09-19T09:16:36Z</time>
      </trkpt>
      <trkpt lat="45.101335532963276" lon="7.345497943460941">
        <ele>620.23000000000002</ele>
        <time>2021-09-19T09:17:00Z</time>
      </trkpt>
      <trkpt lat="45.10132497176528" lon="7.345482688397169">
        <ele>621.85000000000002</ele>
        <time>2021-09-19T09:17:17Z</time>
      </trkpt>
      <trkpt lat="45.101312231272459" lon="7.345486711710692">
        <ele>623.98000000000002</ele>
        <time>2021-09-19T09:17:35Z</time>
      </trkpt>
      <trkpt lat="45.10130301117897" lon="7.345485370606184">
        <ele>624.61000000000001</ele>
        <time>2021-09-19T09:17:51Z</time>
      </trkpt>
      <trkpt lat="45.101282140240073" lon="7.345474977046251">
        <ele>626.28999999999996</ele>
        <time>2021-09-19T09:18:09Z</time>
      </trkpt>
      <trkpt lat="45.101274596527219" lon="7.345480257645249">
        <ele>627.44000000000005</ele>
        <time>2021-09-19T09:18:29Z</time>
      </trkpt>
      <trkpt lat="45.101260347291827" lon="7.345497692003846">
        <ele>629.25999999999999</ele>
        <time>2021-09-19T09:18:45Z</time>
      </trkpt>
      <trkpt lat="45.101250289008021" lon="7.345505654811859">
        <ele>629.52999999999997</ele>
        <time>2021-09-19T09:18:58Z</time>
      </trkpt>
      <trkpt lat="45.101238805800676" lon="7.345491070300341">
        <ele>630.75</ele>
        <time>2021-09-19T09:19:10Z</time>
      </trkpt>
      <trkpt lat="45.101224053651094" lon="7.34549785964191">
        <ele>631.73000000000002</ele>
        <time>2021-09-19T09:19:28Z</time>
      </trkpt>
      <trkpt lat="45.101205613464117" lon="7.345486795529723">
        <ele>633.5</ele>
        <time>2021-09-19T09:19:39Z</time>
      </trkpt>
      <trkpt lat="45.101172169670463" lon="7.345482017844915">
        <ele>634.44000000000005</ele>
        <time>2021-09-19T09:19:51Z</time>
      </trkpt>
      <trkpt lat="45.101146772503853" lon="7.345464415848255">
        <ele>635.88</ele>
        <time>2021-09-19T09:20:02Z</time>
      </trkpt>
      <trkpt lat="45.101139396429062" lon="7.345436587929726">
        <ele>637.76999999999998</ele>
        <time>2021-09-19T09:20:14Z</time>
      </trkpt>
      <trkpt lat="45.101133193820715" lon="7.345429295673966">
        <ele>638.70000000000005</ele>
        <time>2021-09-19T09:20:30Z</time>
      </trkpt>
      <trkpt lat="45.101113747805357" lon="7.345407586544752">
        <ele>639.57000000000005</ele>
        <time>2021-09-19T09:20:43Z</time>
      </trkpt>
      <trkpt lat="45.10110704228282" lon="7.345384955406189">
        <ele>640.63999999999999</ele>
        <time>2021-09-19T09:20:54Z</time>
      </trkpt>
      <trkpt lat="45.101073095574975" lon="7.345376489683986">
        <ele>641.99000000000001</ele>
        <time>2021-09-19T09:21:04Z</time>
      </trkpt>
      <trkpt lat="45.101073430851102" lon="7.345341369509697">
        <ele>643.36000000000001</ele>
        <time>2021-09-19T09:21:14Z</time>
      </trkpt>
      <trkpt lat="45.101015763357282" lon="7.345310691744089">
        <ele>642.37</ele>
        <time>2021-09-19T09:21:25Z</time>
      </trkpt>
      <trkpt lat="45.100981397554278" lon="7.345230476930738">
        <ele>642.41999999999996</ele>
        <time>2021-09-19T09:21:37Z</time>
      </trkpt>
      <trkpt lat="45.100967735052109" lon="7.345217233523727">
        <ele>642.35000000000002</ele>
        <time>2021-09-19T09:21:57Z</time>
      </trkpt>
      <trkpt lat="45.100968573242426" lon="7.345228297635913">
        <ele>642.30999999999995</ele>
        <time>2021-09-19T09:22:15Z</time>
      </trkpt>
      <trkpt lat="45.100969914346933" lon="7.345223017036915">
        <ele>642.66999999999996</ele>
        <time>2021-09-19T09:22:33Z</time>
      </trkpt>
      <trkpt lat="45.10094434954226" lon="7.345213880762458">
        <ele>642.76999999999998</ele>
        <time>2021-09-19T09:22:43Z</time>
      </trkpt>
      <trkpt lat="45.100944517180324" lon="7.345205917954445">
        <ele>643.02999999999997</ele>
        <time>2021-09-19T09:23:06Z</time>
      </trkpt>
      <trkpt lat="45.10093211196363" lon="7.345205079764128">
        <ele>642.94000000000005</ele>
        <time>2021-09-19T09:23:21Z</time>
      </trkpt>
      <trkpt lat="45.100934626534581" lon="7.345193093642592">
        <ele>643.13</ele>
        <time>2021-09-19T09:23:42Z</time>
      </trkpt>
      <trkpt lat="45.101015511900187" lon="7.345247492194176">
        <ele>644.23000000000002</ele>
        <time>2021-09-19T09:23:54Z</time>
      </trkpt>
      <trkpt lat="45.10105381719768" lon="7.34527699649334">
        <ele>645.59000000000003</ele>
        <time>2021-09-19T09:24:05Z</time>
      </trkpt>
      <trkpt lat="45.101079801097512" lon="7.34530633315444">
        <ele>646.08000000000004</ele>
        <time>2021-09-19T09:24:17Z</time>
      </trkpt>
      <trkpt lat="45.101086590439081" lon="7.345301304012537">
        <ele>646.16999999999996</ele>
        <time>2021-09-19T09:24:30Z</time>
      </trkpt>
      <trkpt lat="45.101086506620049" lon="7.345302980393171">
        <ele>645.78999999999996</ele>
        <time>2021-09-19T09:25:01Z</time>
      </trkpt>
      <trkpt lat="45.101086674258113" lon="7.345305411145091">
        <ele>646.62</ele>
        <time>2021-09-19T09:25:30Z</time>
      </trkpt>
      <trkpt lat="45.101084662601352" lon="7.345301890745759">
        <ele>646.74000000000001</ele>
        <time>2021-09-19T09:25:57Z</time>
      </trkpt>
      <trkpt lat="45.101090362295508" lon="7.345306919887662">
        <ele>646.59000000000003</ele>
        <time>2021-09-19T09:26:25Z</time>
      </trkpt>
      <trkpt lat="45.101088602095842" lon="7.345314966514707">
        <ele>646.79999999999995</ele>
        <time>2021-09-19T09:27:06Z</time>
      </trkpt>
      <trkpt lat="45.101088602095842" lon="7.345320247113705">
        <ele>646.39999999999998</ele>
        <time>2021-09-19T09:27:31Z</time>
      </trkpt>
      <trkpt lat="45.101088602095842" lon="7.345322845503688">
        <ele>645.90999999999997</ele>
        <time>2021-09-19T09:27:57Z</time>
      </trkpt>
      <trkpt lat="45.101094469428062" lon="7.345327036455274">
        <ele>647.38999999999999</ele>
        <time>2021-09-19T09:28:17Z</time>
      </trkpt>
      <trkpt lat="45.101094972342253" lon="7.345336508005858">
        <ele>647.25</ele>
        <time>2021-09-19T09:28:37Z</time>
      </trkpt>
      <trkpt lat="45.101094553247094" lon="7.345329718664289">
        <ele>646.88999999999999</ele>
        <time>2021-09-19T09:29:11Z</time>
      </trkpt>
      <trkpt lat="45.101068736985326" lon="7.345313373953104">
        <ele>646.13999999999999</ele>
        <time>2021-09-19T09:29:28Z</time>
      </trkpt>
      <trkpt lat="45.101038059219718" lon="7.345321588218212">
        <ele>644.05999999999995</ele>
        <time>2021-09-19T09:29:37Z</time>
      </trkpt>
      <trkpt lat="45.100988941267133" lon="7.345243971794844">
        <ele>644.25999999999999</ele>
        <time>2021-09-19T09:29:47Z</time>
      </trkpt>
      <trkpt lat="45.100987264886498" lon="7.345270877704024">
        <ele>644.27999999999997</ele>
        <time>2021-09-19T09:29:55Z</time>
      </trkpt>
      <trkpt lat="45.100982235744596" lon="7.345246486365795">
        <ele>644.47000000000003</ele>
        <time>2021-09-19T09:30:06Z</time>
      </trkpt>
      <trkpt lat="45.100976452231407" lon="7.345242546871305">
        <ele>644.24000000000001</ele>
        <time>2021-09-19T09:30:20Z</time>
      </trkpt>
      <trkpt lat="45.100967232137918" lon="7.345220670104027">
        <ele>644.00999999999999</ele>
        <time>2021-09-19T09:30:30Z</time>
      </trkpt>
      <trkpt lat="45.100976871326566" lon="7.345211450010538">
        <ele>644.12</ele>
        <time>2021-09-19T09:31:04Z</time>
      </trkpt>
      <trkpt lat="45.100956251844764" lon="7.345197116956115">
        <ele>643.78999999999996</ele>
        <time>2021-09-19T09:31:21Z</time>
      </trkpt>
      <trkpt lat="45.100946864113212" lon="7.34520373865962">
        <ele>644</ele>
        <time>2021-09-19T09:31:38Z</time>
      </trkpt>
      <trkpt lat="45.100951809436083" lon="7.345190327614546">
        <ele>643.92999999999995</ele>
        <time>2021-09-19T09:31:55Z</time>
      </trkpt>
      <trkpt lat="45.100952731445432" lon="7.3451978713274">
        <ele>644.37</ele>
        <time>2021-09-19T09:32:09Z</time>
      </trkpt>
      <trkpt lat="45.100950133055449" lon="7.345207761973143">
        <ele>644.41999999999996</ele>
        <time>2021-09-19T09:32:24Z</time>
      </trkpt>
      <trkpt lat="45.100955748930573" lon="7.345220167189837">
        <ele>644.38</ele>
        <time>2021-09-19T09:32:35Z</time>
      </trkpt>
      <trkpt lat="45.100934123620391" lon="7.345161912962794">
        <ele>645.39999999999998</ele>
        <time>2021-09-19T09:32:48Z</time>
      </trkpt>
      <trkpt lat="45.100932698696852" lon="7.34510499984026">
        <ele>645.17999999999995</ele>
        <time>2021-09-19T09:33:03Z</time>
      </trkpt>
      <trkpt lat="45.100877964869142" lon="7.344972649589181">
        <ele>647.20000000000005</ele>
        <time>2021-09-19T09:33:16Z</time>
      </trkpt>
      <trkpt lat="45.100824404507875" lon="7.344877347350121">
        <ele>649.49000000000001</ele>
        <time>2021-09-19T09:33:30Z</time>
      </trkpt>
      <trkpt lat="45.100761707872152" lon="7.344791432842612">
        <ele>651.30999999999995</ele>
        <time>2021-09-19T09:33:44Z</time>
      </trkpt>
      <trkpt lat="45.100771430879831" lon="7.344692945480347">
        <ele>652.12</ele>
        <time>2021-09-19T09:33:57Z</time>
      </trkpt>
      <trkpt lat="45.10077428072691" lon="7.344579622149468">
        <ele>650.09000000000003</ele>
        <time>2021-09-19T09:34:11Z</time>
      </trkpt>
      <trkpt lat="45.100766317918897" lon="7.34454357996583">
        <ele>649.55999999999995</ele>
        <time>2021-09-19T09:34:15Z</time>
      </trkpt>
      <trkpt lat="45.100760869681835" lon="7.34448348172009">
        <ele>648.80999999999995</ele>
        <time>2021-09-19T09:34:20Z</time>
      </trkpt>
      <trkpt lat="45.100752739235759" lon="7.344375355169177">
        <ele>647.82000000000005</ele>
        <time>2021-09-19T09:34:30Z</time>
      </trkpt>
      <trkpt lat="45.100767491385341" lon="7.344252644106746">
        <ele>648.25999999999999</ele>
        <time>2021-09-19T09:34:40Z</time>
      </trkpt>
      <trkpt lat="45.100791631266475" lon="7.344149881973863">
        <ele>649.46000000000004</ele>
        <time>2021-09-19T09:34:49Z</time>
      </trkpt>
      <trkpt lat="45.100796325132251" lon="7.344081904739142">
        <ele>651.27999999999997</ele>
        <time>2021-09-19T09:34:57Z</time>
      </trkpt>
      <trkpt lat="45.100799761712551" lon="7.344070924445987">
        <ele>651.38</ele>
        <time>2021-09-19T09:34:58Z</time>
      </trkpt>
      <trkpt lat="45.100807640701532" lon="7.343948883935809">
        <ele>650.92999999999995</ele>
        <time>2021-09-19T09:35:09Z</time>
      </trkpt>
      <trkpt lat="45.100799510255456" lon="7.343858275562525">
        <ele>651.16999999999996</ele>
        <time>2021-09-19T09:35:23Z</time>
      </trkpt>
      <trkpt lat="45.100775035098195" lon="7.343778060749173">
        <ele>651.63</ele>
        <time>2021-09-19T09:35:32Z</time>
      </trkpt>
      <trkpt lat="45.100763300433755" lon="7.343675214797258">
        <ele>651.24000000000001</ele>
        <time>2021-09-19T09:35:41Z</time>
      </trkpt>
      <trkpt lat="45.100747290998697" lon="7.343587456271052">
        <ele>650.74000000000001</ele>
        <time>2021-09-19T09:35:50Z</time>
      </trkpt>
      <trkpt lat="45.10069515556097" lon="7.343535907566547">
        <ele>652.60000000000002</ele>
        <time>2021-09-19T09:36:05Z</time>
      </trkpt>
      <trkpt lat="45.100681912153959" lon="7.343412777408958">
        <ele>654.53999999999996</ele>
        <time>2021-09-19T09:36:19Z</time>
      </trkpt>
      <trkpt lat="45.100701861083508" lon="7.343342453241348">
        <ele>654.77999999999997</ele>
        <time>2021-09-19T09:36:33Z</time>
      </trkpt>
      <trkpt lat="45.100678643211722" lon="7.343339519575238">
        <ele>655.54999999999995</ele>
        <time>2021-09-19T09:36:51Z</time>
      </trkpt>
      <trkpt lat="45.100682331249118" lon="7.343352595344186">
        <ele>654.14999999999998</ele>
        <time>2021-09-19T09:37:04Z</time>
      </trkpt>
      <trkpt lat="45.100652240216732" lon="7.34337137080729">
        <ele>655.30999999999995</ele>
        <time>2021-09-19T09:37:21Z</time>
      </trkpt>
      <trkpt lat="45.100644696503878" lon="7.343283360823989">
        <ele>655.14999999999998</ele>
        <time>2021-09-19T09:37:39Z</time>
      </trkpt>
      <trkpt lat="45.10068241506815" lon="7.343167439103127">
        <ele>657.22000000000003</ele>
        <time>2021-09-19T09:37:53Z</time>
      </trkpt>
      <trkpt lat="45.100696161389351" lon="7.343139695003629">
        <ele>657.21000000000004</ele>
        <time>2021-09-19T09:38:01Z</time>
      </trkpt>
      <trkpt lat="45.100709404796362" lon="7.343126367777586">
        <ele>655.83000000000004</ele>
        <time>2021-09-19T09:38:12Z</time>
      </trkpt>
      <trkpt lat="45.100701190531254" lon="7.343072472140193">
        <ele>655.99000000000001</ele>
        <time>2021-09-19T09:38:24Z</time>
      </trkpt>
      <trkpt lat="45.100724659860134" lon="7.343055289238691">
        <ele>656.34000000000003</ele>
        <time>2021-09-19T09:38:39Z</time>
      </trkpt>
      <trkpt lat="45.100724827498198" lon="7.34305084683001">
        <ele>656.88</ele>
        <time>2021-09-19T09:39:05Z</time>
      </trkpt>
      <trkpt lat="45.100721642374992" lon="7.343047242611647">
        <ele>656.65999999999997</ele>
        <time>2021-09-19T09:39:08Z</time>
      </trkpt>
      <trkpt lat="45.10069951415062" lon="7.343031233176589">
        <ele>656.71000000000004</ele>
        <time>2021-09-19T09:39:13Z</time>
      </trkpt>
      <trkpt lat="45.100722648203373" lon="7.343015559017658">
        <ele>656.39999999999998</ele>
        <time>2021-09-19T09:39:23Z</time>
      </trkpt>
      <trkpt lat="45.100738741457462" lon="7.342996280640364">
        <ele>656.47000000000003</ele>
        <time>2021-09-19T09:39:41Z</time>
      </trkpt>
      <trkpt lat="45.100744524970651" lon="7.342981528490782">
        <ele>656.17999999999995</ele>
        <time>2021-09-19T09:40:04Z</time>
      </trkpt>
      <trkpt lat="45.100751649588346" lon="7.34297557733953">
        <ele>656.5</ele>
        <time>2021-09-19T09:40:11Z</time>
      </trkpt>
      <trkpt lat="45.10075181722641" lon="7.342928973957896">
        <ele>656.09000000000003</ele>
        <time>2021-09-19T09:40:25Z</time>
      </trkpt>
      <trkpt lat="45.100767323747277" lon="7.342897541821003">
        <ele>656.23000000000002</ele>
        <time>2021-09-19T09:40:43Z</time>
      </trkpt>
      <trkpt lat="45.100758774206042" lon="7.342879939824343">
        <ele>656.27999999999997</ele>
        <time>2021-09-19T09:40:50Z</time>
      </trkpt>
      <trkpt lat="45.100776627659798" lon="7.34285244718194">
        <ele>656.38</ele>
        <time>2021-09-19T09:41:11Z</time>
      </trkpt>
      <trkpt lat="45.100784758105874" lon="7.342847920954227">
        <ele>656.47000000000003</ele>
        <time>2021-09-19T09:41:27Z</time>
      </trkpt>
      <trkpt lat="45.100792469456792" lon="7.342818081378937">
        <ele>656.63</ele>
        <time>2021-09-19T09:41:38Z</time>
      </trkpt>
      <trkpt lat="45.100802863016725" lon="7.342767035588622">
        <ele>657.07000000000005</ele>
        <time>2021-09-19T09:41:59Z</time>
      </trkpt>
      <trkpt lat="45.100806467235088" lon="7.342748176306486">
        <ele>656.73000000000002</ele>
        <time>2021-09-19T09:42:17Z</time>
      </trkpt>
      <trkpt lat="45.100814178586006" lon="7.342713391408324">
        <ele>657.32000000000005</ele>
        <time>2021-09-19T09:42:35Z</time>
      </trkpt>
      <trkpt lat="45.100824823603034" lon="7.342679360881448">
        <ele>658.05999999999995</ele>
        <time>2021-09-19T09:42:54Z</time>
      </trkpt>
      <trkpt lat="45.100825075060129" lon="7.342664105817676">
        <ele>658.24000000000001</ele>
        <time>2021-09-19T09:43:08Z</time>
      </trkpt>
      <trkpt lat="45.100831110030413" lon="7.342639127746224">
        <ele>658.11000000000001</ele>
        <time>2021-09-19T09:43:29Z</time>
      </trkpt>
      <trkpt lat="45.100840916857123" lon="7.342610210180283">
        <ele>658.46000000000004</ele>
        <time>2021-09-19T09:43:46Z</time>
      </trkpt>
      <trkpt lat="45.10083831846714" lon="7.342577520757914">
        <ele>658.71000000000004</ele>
        <time>2021-09-19T09:44:02Z</time>
      </trkpt>
      <trkpt lat="45.100846532732248" lon="7.342570899054408">
        <ele>658.80999999999995</ele>
        <time>2021-09-19T09:44:14Z</time>
      </trkpt>
      <trkpt lat="45.100854998454452" lon="7.342575173825026">
        <ele>658.86000000000001</ele>
        <time>2021-09-19T09:44:26Z</time>
      </trkpt>
      <trkpt lat="45.100858435034752" lon="7.34255438670516">
        <ele>659.01999999999998</ele>
        <time>2021-09-19T09:44:33Z</time>
      </trkpt>
      <trkpt lat="45.100866565480828" lon="7.342524714767933">
        <ele>660.89999999999998</ele>
        <time>2021-09-19T09:44:55Z</time>
      </trkpt>
      <trkpt lat="45.10086908005178" lon="7.34252748079598">
        <ele>661.32000000000005</ele>
        <time>2021-09-19T09:45:08Z</time>
      </trkpt>
      <trkpt lat="45.100877042859793" lon="7.342526223510504">
        <ele>660.66999999999996</ele>
        <time>2021-09-19T09:45:18Z</time>
      </trkpt>
      <trkpt lat="45.100891711190343" lon="7.34249328263104">
        <ele>660.79999999999995</ele>
        <time>2021-09-19T09:45:40Z</time>
      </trkpt>
      <trkpt lat="45.100884083658457" lon="7.342445841059089">
        <ele>661.10000000000002</ele>
        <time>2021-09-19T09:45:54Z</time>
      </trkpt>
      <trkpt lat="45.100889531895518" lon="7.342436872422695">
        <ele>661.74000000000001</ele>
        <time>2021-09-19T09:46:08Z</time>
      </trkpt>
      <trkpt lat="45.100895147770643" lon="7.342453049495816">
        <ele>662.05999999999995</ele>
        <time>2021-09-19T09:46:25Z</time>
      </trkpt>
      <trkpt lat="45.100890537723899" lon="7.342485906556249">
        <ele>662.46000000000004</ele>
        <time>2021-09-19T09:46:46Z</time>
      </trkpt>
      <trkpt lat="45.100888526067138" lon="7.34247324988246">
        <ele>661.90999999999997</ele>
        <time>2021-09-19T09:47:11Z</time>
      </trkpt>
      <trkpt lat="45.100905289873481" lon="7.342439386993647">
        <ele>662.37</ele>
        <time>2021-09-19T09:47:29Z</time>
      </trkpt>
      <trkpt lat="45.100910067558289" lon="7.342411475256085">
        <ele>662.94000000000005</ele>
        <time>2021-09-19T09:47:48Z</time>
      </trkpt>
      <trkpt lat="45.100912163034081" lon="7.342412397265434">
        <ele>663.17999999999995</ele>
        <time>2021-09-19T09:48:10Z</time>
      </trkpt>
      <trkpt lat="45.100918198004365" lon="7.342394292354584">
        <ele>664.13</ele>
        <time>2021-09-19T09:48:26Z</time>
      </trkpt>
      <trkpt lat="45.100923562422395" lon="7.342372247949243">
        <ele>664.89999999999998</ele>
        <time>2021-09-19T09:48:42Z</time>
      </trkpt>
      <trkpt lat="45.100919874384999" lon="7.342363111674786">
        <ele>665.5</ele>
        <time>2021-09-19T09:48:57Z</time>
      </trkpt>
      <trkpt lat="45.100929513573647" lon="7.342340731993318">
        <ele>666.08000000000004</ele>
        <time>2021-09-19T09:49:13Z</time>
      </trkpt>
      <trkpt lat="45.100932782515883" lon="7.342325644567609">
        <ele>666.49000000000001</ele>
        <time>2021-09-19T09:49:28Z</time>
      </trkpt>
      <trkpt lat="45.100935883820057" lon="7.342329081147909">
        <ele>666.88999999999999</ele>
        <time>2021-09-19T09:49:44Z</time>
      </trkpt>
      <trkpt lat="45.100934542715549" lon="7.342321202158928">
        <ele>667.44000000000005</ele>
        <time>2021-09-19T09:50:01Z</time>
      </trkpt>
      <trkpt lat="45.100932950153947" lon="7.342286165803671">
        <ele>669</ele>
        <time>2021-09-19T09:50:16Z</time>
      </trkpt>
      <trkpt lat="45.100936386734247" lon="7.342263953760266">
        <ele>670.16999999999996</ele>
        <time>2021-09-19T09:50:31Z</time>
      </trkpt>
      <trkpt lat="45.100945355370641" lon="7.342249285429716">
        <ele>671.62</ele>
        <time>2021-09-19T09:50:45Z</time>
      </trkpt>
      <trkpt lat="45.100945439189672" lon="7.342228917405009">
        <ele>673.32000000000005</ele>
        <time>2021-09-19T09:51:01Z</time>
      </trkpt>
      <trkpt lat="45.100958431139588" lon="7.342203268781304">
        <ele>673.75999999999999</ele>
        <time>2021-09-19T09:51:21Z</time>
      </trkpt>
      <trkpt lat="45.100953821092844" lon="7.342191953212023">
        <ele>674.40999999999997</ele>
        <time>2021-09-19T09:51:40Z</time>
      </trkpt>
      <trkpt lat="45.100948959589005" lon="7.342192875221372">
        <ele>674.16999999999996</ele>
        <time>2021-09-19T09:51:53Z</time>
      </trkpt>
      <trkpt lat="45.100940242409706" lon="7.342244675382972">
        <ele>674.41999999999996</ele>
        <time>2021-09-19T09:52:13Z</time>
      </trkpt>
      <trkpt lat="45.10094434954226" lon="7.342263953760266">
        <ele>675.54999999999995</ele>
        <time>2021-09-19T09:52:32Z</time>
      </trkpt>
      <trkpt lat="45.100970501080155" lon="7.342330170795322">
        <ele>676.73000000000002</ele>
        <time>2021-09-19T09:52:50Z</time>
      </trkpt>
      <trkpt lat="45.100957676768303" lon="7.342307539656758">
        <ele>676.77999999999997</ele>
        <time>2021-09-19T09:53:06Z</time>
      </trkpt>
      <trkpt lat="45.10094384662807" lon="7.342268563807011">
        <ele>677.66999999999996</ele>
        <time>2021-09-19T09:53:22Z</time>
      </trkpt>
      <trkpt lat="45.10094191879034" lon="7.342235036194325">
        <ele>679.84000000000003</ele>
        <time>2021-09-19T09:53:38Z</time>
      </trkpt>
      <trkpt lat="45.100936135277152" lon="7.342222547158599">
        <ele>681.73000000000002</ele>
        <time>2021-09-19T09:53:57Z</time>
      </trkpt>
      <trkpt lat="45.100942337885499" lon="7.342216931283474">
        <ele>681.69000000000005</ele>
        <time>2021-09-19T09:54:13Z</time>
      </trkpt>
      <trkpt lat="45.100957090035081" lon="7.342224894091487">
        <ele>681.70000000000005</ele>
        <time>2021-09-19T09:54:23Z</time>
      </trkpt>
      <trkpt lat="45.100973267108202" lon="7.342228246852756">
        <ele>682.14999999999998</ele>
        <time>2021-09-19T09:54:35Z</time>
      </trkpt>
      <trkpt lat="45.100954826921225" lon="7.342223972082138">
        <ele>681.98000000000002</ele>
        <time>2021-09-19T09:54:52Z</time>
      </trkpt>
      <trkpt lat="45.100879305973649" lon="7.342317597940564">
        <ele>682.28999999999996</ele>
        <time>2021-09-19T09:55:23Z</time>
      </trkpt>
      <trkpt lat="45.100874863564968" lon="7.342340229079127">
        <ele>682.13</ele>
        <time>2021-09-19T09:55:50Z</time>
      </trkpt>
      <trkpt lat="45.100877042859793" lon="7.342332936823368">
        <ele>682.60000000000002</ele>
        <time>2021-09-19T09:55:57Z</time>
      </trkpt>
      <trkpt lat="45.100940829142928" lon="7.342277029529214">
        <ele>683.85000000000002</ele>
        <time>2021-09-19T09:56:10Z</time>
      </trkpt>
      <trkpt lat="45.100940493866801" lon="7.342268647626042">
        <ele>685.08000000000004</ele>
        <time>2021-09-19T09:56:13Z</time>
      </trkpt>
      <trkpt lat="45.100962789729238" lon="7.342219110578299">
        <ele>687.13999999999999</ele>
        <time>2021-09-19T09:56:29Z</time>
      </trkpt>
      <trkpt lat="45.101005034521222" lon="7.342206286266446">
        <ele>687.64999999999998</ele>
        <time>2021-09-19T09:56:40Z</time>
      </trkpt>
      <trkpt lat="45.101043675094843" lon="7.342189103364945">
        <ele>688.28999999999996</ele>
        <time>2021-09-19T09:56:51Z</time>
      </trkpt>
      <trkpt lat="45.101050296798348" lon="7.34216739423573">
        <ele>688.88</ele>
        <time>2021-09-19T09:57:06Z</time>
      </trkpt>
      <trkpt lat="45.101049458608031" lon="7.342145685106516">
        <ele>689.88999999999999</ele>
        <time>2021-09-19T09:57:22Z</time>
      </trkpt>
      <trkpt lat="45.101086338981986" lon="7.342147696763277">
        <ele>691.30999999999995</ele>
        <time>2021-09-19T09:57:29Z</time>
      </trkpt>
      <trkpt lat="45.101142581552267" lon="7.34212338924408">
        <ele>692.91999999999996</ele>
        <time>2021-09-19T09:57:40Z</time>
      </trkpt>
      <trkpt lat="45.101134367287159" lon="7.342127077281475">
        <ele>693.13</ele>
        <time>2021-09-19T09:57:59Z</time>
      </trkpt>
      <trkpt lat="45.101134618744254" lon="7.342103440314531">
        <ele>694.95000000000005</ele>
        <time>2021-09-19T09:58:13Z</time>
      </trkpt>
      <trkpt lat="45.101131852716208" lon="7.342042420059443">
        <ele>697.08000000000004</ele>
        <time>2021-09-19T09:58:26Z</time>
      </trkpt>
      <trkpt lat="45.101147526875138" lon="7.341956337913871">
        <ele>699.51999999999998</ele>
        <time>2021-09-19T09:58:41Z</time>
      </trkpt>
      <trkpt lat="45.101175103336573" lon="7.341918786987662">
        <ele>700.19000000000005</ele>
        <time>2021-09-19T09:58:56Z</time>
      </trkpt>
      <trkpt lat="45.101168565452099" lon="7.341919038444758">
        <ele>698.98000000000002</ele>
        <time>2021-09-19T09:59:10Z</time>
      </trkpt>
      <trkpt lat="45.10118130594492" lon="7.341909483075142">
        <ele>700.42999999999995</ele>
        <time>2021-09-19T09:59:34Z</time>
      </trkpt>
      <trkpt lat="45.101173846051097" lon="7.341926079243422">
        <ele>700.63</ele>
        <time>2021-09-19T09:59:53Z</time>
      </trkpt>
      <trkpt lat="45.101183652877808" lon="7.341928174719214">
        <ele>700.45000000000005</ele>
        <time>2021-09-19T10:00:12Z</time>
      </trkpt>
      <trkpt lat="45.101167308166623" lon="7.341945357620716">
        <ele>699.44000000000005</ele>
        <time>2021-09-19T10:00:26Z</time>
      </trkpt>
      <trkpt lat="45.101193459704518" lon="7.34187176451087">
        <ele>700.61000000000001</ele>
        <time>2021-09-19T10:00:43Z</time>
      </trkpt>
      <trkpt lat="45.101211648434401" lon="7.341754669323564">
        <ele>702.88</ele>
        <time>2021-09-19T10:00:57Z</time>
      </trkpt>
      <trkpt lat="45.101209888234735" lon="7.34169633127749">
        <ele>702.75</ele>
        <time>2021-09-19T10:01:03Z</time>
      </trkpt>
      <trkpt lat="45.101221036165953" lon="7.341557778418064">
        <ele>704.58000000000004</ele>
        <time>2021-09-19T10:01:17Z</time>
      </trkpt>
      <trkpt lat="45.101201925426722" lon="7.341452836990356">
        <ele>706.01999999999998</ele>
        <time>2021-09-19T10:01:28Z</time>
      </trkpt>
      <trkpt lat="45.101156244054437" lon="7.341327359899879">
        <ele>707.38999999999999</ele>
        <time>2021-09-19T10:01:45Z</time>
      </trkpt>
      <trkpt lat="45.101096648722887" lon="7.341270782053471">
        <ele>709.00999999999999</ele>
        <time>2021-09-19T10:02:00Z</time>
      </trkpt>
      <trkpt lat="45.10107091628015" lon="7.341181598603725">
        <ele>709.05999999999995</ele>
        <time>2021-09-19T10:02:14Z</time>
      </trkpt>
      <trkpt lat="45.101051051169634" lon="7.341106245294213">
        <ele>707.89999999999998</ele>
        <time>2021-09-19T10:02:24Z</time>
      </trkpt>
      <trkpt lat="45.101041160523891" lon="7.341083781793714">
        <ele>708.09000000000003</ele>
        <time>2021-09-19T10:02:35Z</time>
      </trkpt>
      <trkpt lat="45.101037137210369" lon="7.341043800115585">
        <ele>709.23000000000002</ele>
        <time>2021-09-19T10:02:47Z</time>
      </trkpt>
      <trkpt lat="45.101037556305528" lon="7.341019492596388">
        <ele>710.01999999999998</ele>
        <time>2021-09-19T10:02:59Z</time>
      </trkpt>
      <trkpt lat="45.101029509678483" lon="7.341000884771347">
        <ele>710.70000000000005</ele>
        <time>2021-09-19T10:03:12Z</time>
      </trkpt>
      <trkpt lat="45.101025486364961" lon="7.340986216440797">
        <ele>711.37</ele>
        <time>2021-09-19T10:03:24Z</time>
      </trkpt>
      <trkpt lat="45.101015344262123" lon="7.34096928499639">
        <ele>712.90999999999997</ele>
        <time>2021-09-19T10:03:39Z</time>
      </trkpt>
      <trkpt lat="45.101006627082825" lon="7.340941792353988">
        <ele>713.51999999999998</ele>
        <time>2021-09-19T10:03:50Z</time>
      </trkpt>
      <trkpt lat="45.100987516343594" lon="7.340911030769348">
        <ele>714.61000000000001</ele>
        <time>2021-09-19T10:04:07Z</time>
      </trkpt>
      <trkpt lat="45.100981649011374" lon="7.340892171487212">
        <ele>714.88</ele>
        <time>2021-09-19T10:04:20Z</time>
      </trkpt>
      <trkpt lat="45.100976284593344" lon="7.340874737128615">
        <ele>715.55999999999995</ele>
        <time>2021-09-19T10:04:34Z</time>
      </trkpt>
      <trkpt lat="45.100959939882159" lon="7.340852860361338">
        <ele>715.82000000000005</ele>
        <time>2021-09-19T10:04:45Z</time>
      </trkpt>
      <trkpt lat="45.100947618484497" lon="7.340823607519269">
        <ele>715.55999999999995</ele>
        <time>2021-09-19T10:04:57Z</time>
      </trkpt>
      <trkpt lat="45.10094971396029" lon="7.340822517871857">
        <ele>715.38999999999999</ele>
        <time>2021-09-19T10:05:15Z</time>
      </trkpt>
      <trkpt lat="45.100960275158286" lon="7.340814806520939">
        <ele>715.37</ele>
        <time>2021-09-19T10:05:33Z</time>
      </trkpt>
      <trkpt lat="45.100948875769973" lon="7.340822014957666">
        <ele>716.13999999999999</ele>
        <time>2021-09-19T10:05:46Z</time>
      </trkpt>
      <trkpt lat="45.100921047851443" lon="7.340785972774029">
        <ele>717.94000000000005</ele>
        <time>2021-09-19T10:06:01Z</time>
      </trkpt>
      <trkpt lat="45.10091601870954" lon="7.340779015794396">
        <ele>719.26999999999998</ele>
        <time>2021-09-19T10:06:15Z</time>
      </trkpt>
      <trkpt lat="45.100913168862462" lon="7.340764431282878">
        <ele>719.99000000000001</ele>
        <time>2021-09-19T10:06:30Z</time>
      </trkpt>
      <trkpt lat="45.100901266559958" lon="7.340763593092561">
        <ele>720.35000000000002</ele>
        <time>2021-09-19T10:06:44Z</time>
      </trkpt>
      <trkpt lat="45.100886849686503" lon="7.3407615814358">
        <ele>721.69000000000005</ele>
        <time>2021-09-19T10:07:00Z</time>
      </trkpt>
      <trkpt lat="45.100867403671145" lon="7.340751942247152">
        <ele>722.92999999999995</ele>
        <time>2021-09-19T10:07:15Z</time>
      </trkpt>
      <trkpt lat="45.100864972919226" lon="7.340748254209757">
        <ele>723.13</ele>
        <time>2021-09-19T10:07:33Z</time>
      </trkpt>
      <trkpt lat="45.100856339558959" lon="7.340759569779038">
        <ele>724.46000000000004</ele>
        <time>2021-09-19T10:07:49Z</time>
      </trkpt>
      <trkpt lat="45.100849969312549" lon="7.340753534808755">
        <ele>725.40999999999997</ele>
        <time>2021-09-19T10:08:04Z</time>
      </trkpt>
      <trkpt lat="45.100847203284502" lon="7.340758563950658">
        <ele>726.66999999999996</ele>
        <time>2021-09-19T10:08:18Z</time>
      </trkpt>
      <trkpt lat="45.100829098373652" lon="7.340737860649824">
        <ele>727.49000000000001</ele>
        <time>2021-09-19T10:08:28Z</time>
      </trkpt>
      <trkpt lat="45.100817698985338" lon="7.34072981402278">
        <ele>728.00999999999999</ele>
        <time>2021-09-19T10:08:41Z</time>
      </trkpt>
      <trkpt lat="45.100798923522234" lon="7.340711960569024">
        <ele>728.91999999999996</ele>
        <time>2021-09-19T10:08:57Z</time>
      </trkpt>
      <trkpt lat="45.100796325132251" lon="7.340694526210427">
        <ele>729.13999999999999</ele>
        <time>2021-09-19T10:09:14Z</time>
      </trkpt>
      <trkpt lat="45.100802192464471" lon="7.340680696070194">
        <ele>729.04999999999995</ele>
        <time>2021-09-19T10:09:25Z</time>
      </trkpt>
      <trkpt lat="45.100790625438094" lon="7.340668207034469">
        <ele>730.21000000000004</ele>
        <time>2021-09-19T10:09:38Z</time>
      </trkpt>
      <trkpt lat="45.100765312090516" lon="7.340624872595072">
        <ele>731.13</ele>
        <time>2021-09-19T10:09:50Z</time>
      </trkpt>
      <trkpt lat="45.100757433101535" lon="7.340614730492234">
        <ele>730.94000000000005</ele>
        <time>2021-09-19T10:10:03Z</time>
      </trkpt>
      <trkpt lat="45.100712506100535" lon="7.340594697743654">
        <ele>731.00999999999999</ele>
        <time>2021-09-19T10:10:16Z</time>
      </trkpt>
      <trkpt lat="45.100707896053791" lon="7.340585561469197">
        <ele>731.11000000000001</ele>
        <time>2021-09-19T10:10:31Z</time>
      </trkpt>
      <trkpt lat="45.100705549120903" lon="7.340583885088563">
        <ele>727.80999999999995</ele>
        <time>2021-09-19T10:10:38Z</time>
      </trkpt>
      <trkpt lat="45.100706638768315" lon="7.340584136545658">
        <ele>732.14999999999998</ele>
        <time>2021-09-19T10:10:39Z</time>
      </trkpt>
      <trkpt lat="45.100713009014726" lon="7.340576592832804">
        <ele>729.13</ele>
        <time>2021-09-19T10:10:55Z</time>
      </trkpt>
      <trkpt lat="45.100738490000367" lon="7.340586818754673">
        <ele>730.78999999999996</ele>
        <time>2021-09-19T10:11:09Z</time>
      </trkpt>
      <trkpt lat="45.100735137239099" lon="7.340591009706259">
        <ele>730.89999999999998</ele>
        <time>2021-09-19T10:11:27Z</time>
      </trkpt>
      <trkpt lat="45.100733377039433" lon="7.340593943372369">
        <ele>731.14999999999998</ele>
        <time>2021-09-19T10:11:41Z</time>
      </trkpt>
      <trkpt lat="45.100728766992688" lon="7.340590925887227">
        <ele>731.36000000000001</ele>
        <time>2021-09-19T10:11:59Z</time>
      </trkpt>
      <trkpt lat="45.100719379261136" lon="7.34058522619307">
        <ele>731.33000000000004</ele>
        <time>2021-09-19T10:12:14Z</time>
      </trkpt>
      <trkpt lat="45.100713260471821" lon="7.34059302136302">
        <ele>731.79999999999995</ele>
        <time>2021-09-19T10:12:32Z</time>
      </trkpt>
      <trkpt lat="45.100706638768315" lon="7.340600062161684">
        <ele>732.13999999999999</ele>
        <time>2021-09-19T10:12:52Z</time>
      </trkpt>
      <trkpt lat="45.100694904103875" lon="7.340588998049498">
        <ele>731.95000000000005</ele>
        <time>2021-09-19T10:13:09Z</time>
      </trkpt>
      <trkpt lat="45.10066531598568" lon="7.340567372739315">
        <ele>731.37</ele>
        <time>2021-09-19T10:13:18Z</time>
      </trkpt>
      <trkpt lat="45.100648971274495" lon="7.34053929336369">
        <ele>731.09000000000003</ele>
        <time>2021-09-19T10:13:28Z</time>
      </trkpt>
      <trkpt lat="45.100634135305882" lon="7.340515488758683">
        <ele>732.16999999999996</ele>
        <time>2021-09-19T10:13:36Z</time>
      </trkpt>
      <trkpt lat="45.100625418126583" lon="7.340504424646497">
        <ele>731.99000000000001</ele>
        <time>2021-09-19T10:13:40Z</time>
      </trkpt>
      <trkpt lat="45.100620640441775" lon="7.340487912297249">
        <ele>731.40999999999997</ele>
        <time>2021-09-19T10:13:49Z</time>
      </trkpt>
      <trkpt lat="45.100605553016067" lon="7.340475590899587">
        <ele>730.94000000000005</ele>
        <time>2021-09-19T10:14:01Z</time>
      </trkpt>
      <trkpt lat="45.100581329315901" lon="7.340472405776382">
        <ele>732.97000000000003</ele>
        <time>2021-09-19T10:14:18Z</time>
      </trkpt>
      <trkpt lat="45.100571103394032" lon="7.340467041358352">
        <ele>733.04999999999995</ele>
        <time>2021-09-19T10:14:34Z</time>
      </trkpt>
      <trkpt lat="45.100561212748289" lon="7.340470310300589">
        <ele>733.37</ele>
        <time>2021-09-19T10:14:49Z</time>
      </trkpt>
      <trkpt lat="45.100558949634433" lon="7.340472992509604">
        <ele>733.58000000000004</ele>
        <time>2021-09-19T10:15:05Z</time>
      </trkpt>
      <trkpt lat="45.100560877472162" lon="7.340478105470538">
        <ele>734.24000000000001</ele>
        <time>2021-09-19T10:15:21Z</time>
      </trkpt>
      <trkpt lat="45.100546628236771" lon="7.340483637526631">
        <ele>735.07000000000005</ele>
        <time>2021-09-19T10:15:44Z</time>
      </trkpt>
      <trkpt lat="45.100541263818741" lon="7.340479530394077">
        <ele>735.49000000000001</ele>
        <time>2021-09-19T10:16:05Z</time>
      </trkpt>
      <trkpt lat="45.10053925216198" lon="7.340483637526631">
        <ele>735.74000000000001</ele>
        <time>2021-09-19T10:16:27Z</time>
      </trkpt>
      <trkpt lat="45.100517375394702" lon="7.340466203168035">
        <ele>736.12</ele>
        <time>2021-09-19T10:16:44Z</time>
      </trkpt>
      <trkpt lat="45.100499019026756" lon="7.340452037751675">
        <ele>736.75999999999999</ele>
        <time>2021-09-19T10:16:55Z</time>
      </trkpt>
      <trkpt lat="45.100496504455805" lon="7.34043225646019">
        <ele>737.29999999999995</ele>
        <time>2021-09-19T10:17:14Z</time>
      </trkpt>
      <trkpt lat="45.100480662658811" lon="7.340422868728638">
        <ele>738.21000000000004</ele>
        <time>2021-09-19T10:17:41Z</time>
      </trkpt>
      <trkpt lat="45.100483344867826" lon="7.340424042195082">
        <ele>737.70000000000005</ele>
        <time>2021-09-19T10:17:57Z</time>
      </trkpt>
      <trkpt lat="45.100471191108227" lon="7.340427143499255">
        <ele>738.66999999999996</ele>
        <time>2021-09-19T10:18:08Z</time>
      </trkpt>
      <trkpt lat="45.100471107289195" lon="7.340438961982727">
        <ele>740.45000000000005</ele>
        <time>2021-09-19T10:18:22Z</time>
      </trkpt>
      <trkpt lat="45.100473454222083" lon="7.340439213439822">
        <ele>740.32000000000005</ele>
        <time>2021-09-19T10:18:42Z</time>
      </trkpt>
      <trkpt lat="45.100453421473503" lon="7.340417923405767">
        <ele>740.67999999999995</ele>
        <time>2021-09-19T10:19:00Z</time>
      </trkpt>
      <trkpt lat="45.100440848618746" lon="7.340409457683563">
        <ele>740.19000000000005</ele>
        <time>2021-09-19T10:19:23Z</time>
      </trkpt>
      <trkpt lat="45.100441854447126" lon="7.34040635637939">
        <ele>740.77999999999997</ele>
        <time>2021-09-19T10:19:31Z</time>
      </trkpt>
      <trkpt lat="45.100443614646792" lon="7.340406775474548">
        <ele>740.73000000000002</ele>
        <time>2021-09-19T10:19:56Z</time>
      </trkpt>
      <trkpt lat="45.100439004600048" lon="7.340414319187403">
        <ele>740.54999999999995</ele>
        <time>2021-09-19T10:20:06Z</time>
      </trkpt>
      <trkpt lat="45.100431041792035" lon="7.340435357764363">
        <ele>743.34000000000003</ele>
        <time>2021-09-19T10:20:24Z</time>
      </trkpt>
      <trkpt lat="45.100431209430099" lon="7.340440722182393">
        <ele>743.00999999999999</ele>
        <time>2021-09-19T10:20:32Z</time>
      </trkpt>
      <trkpt lat="45.100434562191367" lon="7.340448684990406">
        <ele>743</ele>
        <time>2021-09-19T10:20:40Z</time>
      </trkpt>
      <trkpt lat="45.100399777293205" lon="7.340418426319957">
        <ele>743.67999999999995</ele>
        <time>2021-09-19T10:20:45Z</time>
      </trkpt>
      <trkpt lat="45.100400112569332" lon="7.340427562594414">
        <ele>743.97000000000003</ele>
        <time>2021-09-19T10:20:48Z</time>
      </trkpt>
      <trkpt lat="45.10039852000773" lon="7.340445164591074">
        <ele>744.16999999999996</ele>
        <time>2021-09-19T10:20:54Z</time>
      </trkpt>
      <trkpt lat="45.100415367633104" lon="7.340460000559688">
        <ele>744.20000000000005</ele>
        <time>2021-09-19T10:21:03Z</time>
      </trkpt>
      <trkpt lat="45.100407656282187" lon="7.340483888983727">
        <ele>744.00999999999999</ele>
        <time>2021-09-19T10:21:15Z</time>
      </trkpt>
      <trkpt lat="45.100413775071502" lon="7.340496880933642">
        <ele>745.12</ele>
        <time>2021-09-19T10:21:30Z</time>
      </trkpt>
      <trkpt lat="45.100403549149632" lon="7.340498389676213">
        <ele>746.03999999999996</ele>
        <time>2021-09-19T10:21:46Z</time>
      </trkpt>
      <trkpt lat="45.10040245950222" lon="7.340499311685562">
        <ele>745.96000000000004</ele>
        <time>2021-09-19T10:21:52Z</time>
      </trkpt>
      <trkpt lat="45.100394496694207" lon="7.340491348877549">
        <ele>745.73000000000002</ele>
        <time>2021-09-19T10:22:01Z</time>
      </trkpt>
      <trkpt lat="45.100386366248131" lon="7.340491432696581">
        <ele>746.14999999999998</ele>
        <time>2021-09-19T10:22:10Z</time>
      </trkpt>
      <trkpt lat="45.100386785343289" lon="7.340503083541989">
        <ele>745.50999999999999</ele>
        <time>2021-09-19T10:22:34Z</time>
      </trkpt>
      <trkpt lat="45.100379325449467" lon="7.340519512072206">
        <ele>745.95000000000005</ele>
        <time>2021-09-19T10:22:39Z</time>
      </trkpt>
      <trkpt lat="45.100357532501221" lon="7.340493109077215">
        <ele>746.09000000000003</ele>
        <time>2021-09-19T10:22:44Z</time>
      </trkpt>
      <trkpt lat="45.100354850292206" lon="7.340487996116281">
        <ele>746.24000000000001</ele>
        <time>2021-09-19T10:23:07Z</time>
      </trkpt>
      <trkpt lat="45.100341690704226" lon="7.340494282543659">
        <ele>745.87</ele>
        <time>2021-09-19T10:23:18Z</time>
      </trkpt>
      <trkpt lat="45.100344037637115" lon="7.34049579128623">
        <ele>745.89999999999998</ele>
        <time>2021-09-19T10:23:21Z</time>
      </trkpt>
      <trkpt lat="45.100358203053474" lon="7.340488834306598">
        <ele>746.08000000000004</ele>
        <time>2021-09-19T10:23:32Z</time>
      </trkpt>
      <trkpt lat="45.100357616320252" lon="7.340491097420454">
        <ele>746.99000000000001</ele>
        <time>2021-09-19T10:23:43Z</time>
      </trkpt>
      <trkpt lat="45.100335404276848" lon="7.340511716902256">
        <ele>747.49000000000001</ele>
        <time>2021-09-19T10:23:49Z</time>
      </trkpt>
      <trkpt lat="45.10034185834229" lon="7.340498473495245">
        <ele>747.5</ele>
        <time>2021-09-19T10:23:55Z</time>
      </trkpt>
      <trkpt lat="45.100343367084861" lon="7.340494366362691">
        <ele>746.98000000000002</ele>
        <time>2021-09-19T10:24:13Z</time>
      </trkpt>
      <trkpt lat="45.10034185834229" lon="7.340494869276881">
        <ele>746.74000000000001</ele>
        <time>2021-09-19T10:24:27Z</time>
      </trkpt>
      <trkpt lat="45.100364740937948" lon="7.34048162586987">
        <ele>746.00999999999999</ele>
        <time>2021-09-19T10:24:36Z</time>
      </trkpt>
      <trkpt lat="45.100364657118917" lon="7.34049185179174">
        <ele>745.88</ele>
        <time>2021-09-19T10:24:48Z</time>
      </trkpt>
      <trkpt lat="45.100363232195377" lon="7.34052219428122">
        <ele>747.14999999999998</ele>
        <time>2021-09-19T10:24:56Z</time>
      </trkpt>
      <trkpt lat="45.100362813100219" lon="7.340528396889567">
        <ele>747.19000000000005</ele>
        <time>2021-09-19T10:25:01Z</time>
      </trkpt>
      <trkpt lat="45.100392485037446" lon="7.340552117675543">
        <ele>748.09000000000003</ele>
        <time>2021-09-19T10:25:10Z</time>
      </trkpt>
      <trkpt lat="45.100393490865827" lon="7.340563433244824">
        <ele>748.26999999999998</ele>
        <time>2021-09-19T10:25:19Z</time>
      </trkpt>
      <trkpt lat="45.100386617705226" lon="7.340566366910934">
        <ele>749.07000000000005</ele>
        <time>2021-09-19T10:25:27Z</time>
      </trkpt>
      <trkpt lat="45.100382091477513" lon="7.340566869825125">
        <ele>749.98000000000002</ele>
        <time>2021-09-19T10:25:34Z</time>
      </trkpt>
      <trkpt lat="45.100382762029767" lon="7.340573575347662">
        <ele>750.39999999999998</ele>
        <time>2021-09-19T10:25:36Z</time>
      </trkpt>
      <trkpt lat="45.100386198610067" lon="7.340570306405425">
        <ele>750.54999999999995</ele>
        <time>2021-09-19T10:25:40Z</time>
      </trkpt>
      <trkpt lat="45.100382175296545" lon="7.340577011927962">
        <ele>750.53999999999996</ele>
        <time>2021-09-19T10:25:45Z</time>
      </trkpt>
      <trkpt lat="45.100380918011069" lon="7.340581370517612">
        <ele>750.71000000000004</ele>
        <time>2021-09-19T10:25:47Z</time>
      </trkpt>
      <trkpt lat="45.100388713181019" lon="7.34059302136302">
        <ele>750.63</ele>
        <time>2021-09-19T10:25:54Z</time>
      </trkpt>
      <trkpt lat="45.100387539714575" lon="7.340613724663854">
        <ele>751.5</ele>
        <time>2021-09-19T10:26:08Z</time>
      </trkpt>
      <trkpt lat="45.100385863333941" lon="7.340613473206759">
        <ele>751.95000000000005</ele>
        <time>2021-09-19T10:26:24Z</time>
      </trkpt>
      <trkpt lat="45.100372955203056" lon="7.340604504570365">
        <ele>751.99000000000001</ele>
        <time>2021-09-19T10:26:41Z</time>
      </trkpt>
      <trkpt lat="45.100375805050135" lon="7.340602492913604">
        <ele>751.46000000000004</ele>
        <time>2021-09-19T10:26:55Z</time>
      </trkpt>
      <trkpt lat="45.100368596613407" lon="7.340598134323955">
        <ele>751.69000000000005</ele>
        <time>2021-09-19T10:27:09Z</time>
      </trkpt>
      <trkpt lat="45.100366501137614" lon="7.340592099353671">
        <ele>752.61000000000001</ele>
        <time>2021-09-19T10:27:27Z</time>
      </trkpt>
      <trkpt lat="45.100365914404392" lon="7.340588076040149">
        <ele>753.04999999999995</ele>
        <time>2021-09-19T10:27:41Z</time>
      </trkpt>
      <trkpt lat="45.100385276600718" lon="7.340611126273871">
        <ele>754.23000000000002</ele>
        <time>2021-09-19T10:27:53Z</time>
      </trkpt>
      <trkpt lat="45.10039659217" lon="7.340616993606091">
        <ele>755.02999999999997</ele>
        <time>2021-09-19T10:28:04Z</time>
      </trkpt>
      <trkpt lat="45.100416457280517" lon="7.340636774897575">
        <ele>755.75999999999999</ele>
        <time>2021-09-19T10:28:17Z</time>
      </trkpt>
      <trkpt lat="45.100437328219414" lon="7.340653035789728">
        <ele>757.69000000000005</ele>
        <time>2021-09-19T10:28:31Z</time>
      </trkpt>
      <trkpt lat="45.100442441180348" lon="7.340657478198409">
        <ele>757.75999999999999</ele>
        <time>2021-09-19T10:28:44Z</time>
      </trkpt>
      <trkpt lat="45.100443195551634" lon="7.34066728502512">
        <ele>757.62</ele>
        <time>2021-09-19T10:29:06Z</time>
      </trkpt>
      <trkpt lat="45.100443949922919" lon="7.34068245626986">
        <ele>759.51999999999998</ele>
        <time>2021-09-19T10:29:21Z</time>
      </trkpt>
      <trkpt lat="45.10044545866549" lon="7.340686731040478">
        <ele>759.66999999999996</ele>
        <time>2021-09-19T10:29:34Z</time>
      </trkpt>
      <trkpt lat="45.100442357361317" lon="7.340696370229125">
        <ele>759.88</ele>
        <time>2021-09-19T10:29:55Z</time>
      </trkpt>
      <trkpt lat="45.100441686809063" lon="7.340716738253832">
        <ele>762.13999999999999</ele>
        <time>2021-09-19T10:30:13Z</time>
      </trkpt>
      <trkpt lat="45.100424084812403" lon="7.340726461261511">
        <ele>763.15999999999997</ele>
        <time>2021-09-19T10:30:27Z</time>
      </trkpt>
      <trkpt lat="45.100418804213405" lon="7.340711457654834">
        <ele>763.63</ele>
        <time>2021-09-19T10:30:43Z</time>
      </trkpt>
      <trkpt lat="45.100423498079181" lon="7.340698381885886">
        <ele>763.83000000000004</ele>
        <time>2021-09-19T10:31:04Z</time>
      </trkpt>
      <trkpt lat="45.10042542591691" lon="7.340697376057506">
        <ele>763.71000000000004</ele>
        <time>2021-09-19T10:31:21Z</time>
      </trkpt>
      <trkpt lat="45.100422324612737" lon="7.340699471533299">
        <ele>763.73000000000002</ele>
        <time>2021-09-19T10:31:38Z</time>
      </trkpt>
      <trkpt lat="45.100430957973003" lon="7.340706009417772">
        <ele>763.75</ele>
        <time>2021-09-19T10:32:05Z</time>
      </trkpt>
      <trkpt lat="45.100426096469164" lon="7.340684300288558">
        <ele>763.85000000000002</ele>
        <time>2021-09-19T10:32:36Z</time>
      </trkpt>
      <trkpt lat="45.100430706515908" lon="7.340692095458508">
        <ele>763.61000000000001</ele>
        <time>2021-09-19T10:32:53Z</time>
      </trkpt>
      <trkpt lat="45.10042785666883" lon="7.340676505118609">
        <ele>763.48000000000002</ele>
        <time>2021-09-19T10:33:08Z</time>
      </trkpt>
      <trkpt lat="45.100434310734272" lon="7.340690754354">
        <ele>763.74000000000001</ele>
        <time>2021-09-19T10:33:19Z</time>
      </trkpt>
      <trkpt lat="45.100429868325591" lon="7.340726209804416">
        <ele>766.51999999999998</ele>
        <time>2021-09-19T10:33:34Z</time>
      </trkpt>
      <trkpt lat="45.10041662491858" lon="7.340757474303246">
        <ele>766.84000000000003</ele>
        <time>2021-09-19T10:33:49Z</time>
      </trkpt>
      <trkpt lat="45.100402710959315" lon="7.340837605297566">
        <ele>767.40999999999997</ele>
        <time>2021-09-19T10:34:01Z</time>
      </trkpt>
      <trkpt lat="45.100417546927929" lon="7.340888064354658">
        <ele>768.58000000000004</ele>
        <time>2021-09-19T10:34:10Z</time>
      </trkpt>
      <trkpt lat="45.100439423695207" lon="7.340981857851148">
        <ele>768.88999999999999</ele>
        <time>2021-09-19T10:34:23Z</time>
      </trkpt>
      <trkpt lat="45.10042148642242" lon="7.341044638305903">
        <ele>770.19000000000005</ele>
        <time>2021-09-19T10:34:35Z</time>
      </trkpt>
      <trkpt lat="45.100416708737612" lon="7.341067437082529">
        <ele>771.17999999999995</ele>
        <time>2021-09-19T10:34:54Z</time>
      </trkpt>
      <trkpt lat="45.100417966023088" lon="7.341079423204064">
        <ele>771.29999999999995</ele>
        <time>2021-09-19T10:35:11Z</time>
      </trkpt>
      <trkpt lat="45.100415116176009" lon="7.34109777957201">
        <ele>770.64999999999998</ele>
        <time>2021-09-19T10:35:34Z</time>
      </trkpt>
      <trkpt lat="45.10041712783277" lon="7.341098114848137">
        <ele>770.59000000000003</ele>
        <time>2021-09-19T10:35:47Z</time>
      </trkpt>
      <trkpt lat="45.100418468937278" lon="7.341094426810741">
        <ele>770.65999999999997</ele>
        <time>2021-09-19T10:36:04Z</time>
      </trkpt>
      <trkpt lat="45.100426180288196" lon="7.341093504801393">
        <ele>770.79999999999995</ele>
        <time>2021-09-19T10:36:19Z</time>
      </trkpt>
      <trkpt lat="45.100415032356977" lon="7.341085039079189">
        <ele>771.01999999999998</ele>
        <time>2021-09-19T10:36:32Z</time>
      </trkpt>
      <trkpt lat="45.100407404825091" lon="7.341109849512577">
        <ele>773.13</ele>
        <time>2021-09-19T10:36:46Z</time>
      </trkpt>
      <trkpt lat="45.100398939102888" lon="7.341123595833778">
        <ele>774.04999999999995</ele>
        <time>2021-09-19T10:36:59Z</time>
      </trkpt>
      <trkpt lat="45.100401034578681" lon="7.341123009100556">
        <ele>775.88999999999999</ele>
        <time>2021-09-19T10:37:13Z</time>
      </trkpt>
      <trkpt lat="45.100397011265159" lon="7.341117393225431">
        <ele>776.65999999999997</ele>
        <time>2021-09-19T10:37:26Z</time>
      </trkpt>
      <trkpt lat="45.100402291864157" lon="7.341128289699554">
        <ele>778.25</ele>
        <time>2021-09-19T10:37:44Z</time>
      </trkpt>
      <trkpt lat="45.100396424531937" lon="7.341113202273846">
        <ele>779.10000000000002</ele>
        <time>2021-09-19T10:37:56Z</time>
      </trkpt>
      <trkpt lat="45.100395083427429" lon="7.341092498973012">
        <ele>779.11000000000001</ele>
        <time>2021-09-19T10:38:03Z</time>
      </trkpt>
      <trkpt lat="45.100391898304224" lon="7.341082524508238">
        <ele>780.5</ele>
        <time>2021-09-19T10:38:16Z</time>
      </trkpt>
      <trkpt lat="45.100380498915911" lon="7.341071460396051">
        <ele>781.25999999999999</ele>
        <time>2021-09-19T10:38:32Z</time>
      </trkpt>
      <trkpt lat="45.100379325449467" lon="7.341067772358656">
        <ele>781.20000000000005</ele>
        <time>2021-09-19T10:38:33Z</time>
      </trkpt>
      <trkpt lat="45.100375805050135" lon="7.341073472052813">
        <ele>781.69000000000005</ele>
        <time>2021-09-19T10:38:43Z</time>
      </trkpt>
      <trkpt lat="45.100370859727263" lon="7.341070873662829">
        <ele>781.98000000000002</ele>
        <time>2021-09-19T10:38:55Z</time>
      </trkpt>
      <trkpt lat="45.100371278822422" lon="7.341063413769007">
        <ele>782.73000000000002</ele>
        <time>2021-09-19T10:39:12Z</time>
      </trkpt>
      <trkpt lat="45.100365076214075" lon="7.341067185625434">
        <ele>783.89999999999998</ele>
        <time>2021-09-19T10:39:25Z</time>
      </trkpt>
      <trkpt lat="45.100364238023758" lon="7.341068023815751">
        <ele>784.25</ele>
        <time>2021-09-19T10:39:40Z</time>
      </trkpt>
      <trkpt lat="45.100382259115577" lon="7.341065173968673">
        <ele>785.03999999999996</ele>
        <time>2021-09-19T10:39:57Z</time>
      </trkpt>
      <trkpt lat="45.10037848725915" lon="7.341052265837789">
        <ele>786.48000000000002</ele>
        <time>2021-09-19T10:40:13Z</time>
      </trkpt>
      <trkpt lat="45.100360298529267" lon="7.341069281101227">
        <ele>787.13</ele>
        <time>2021-09-19T10:40:33Z</time>
      </trkpt>
      <trkpt lat="45.100355772301555" lon="7.341061905026436">
        <ele>787.16999999999996</ele>
        <time>2021-09-19T10:40:48Z</time>
      </trkpt>
      <trkpt lat="45.100355856120586" lon="7.34106257557869">
        <ele>786.14999999999998</ele>
        <time>2021-09-19T10:41:06Z</time>
      </trkpt>
      <trkpt lat="45.100356861948967" lon="7.341050421819091">
        <ele>786.28999999999996</ele>
        <time>2021-09-19T10:41:29Z</time>
      </trkpt>
      <trkpt lat="45.100363148376346" lon="7.341054948046804">
        <ele>787.01999999999998</ele>
        <time>2021-09-19T10:41:43Z</time>
      </trkpt>
      <trkpt lat="45.100357700139284" lon="7.341061066836119">
        <ele>788.76999999999998</ele>
        <time>2021-09-19T10:42:07Z</time>
      </trkpt>
      <trkpt lat="45.100334314629436" lon="7.341056289151311">
        <ele>790.08000000000004</ele>
        <time>2021-09-19T10:42:26Z</time>
      </trkpt>
      <trkpt lat="45.100295590236783" lon="7.34103667549789">
        <ele>792.53999999999996</ele>
        <time>2021-09-19T10:42:42Z</time>
      </trkpt>
      <trkpt lat="45.100286705419421" lon="7.341027790680528">
        <ele>793.30999999999995</ele>
        <time>2021-09-19T10:42:59Z</time>
      </trkpt>
      <trkpt lat="45.100262649357319" lon="7.341018822044134">
        <ele>794.89999999999998</ele>
        <time>2021-09-19T10:43:14Z</time>
      </trkpt>
      <trkpt lat="45.100266505032778" lon="7.34103131107986">
        <ele>794.91999999999996</ele>
        <time>2021-09-19T10:43:25Z</time>
      </trkpt>
      <trkpt lat="45.100272707641125" lon="7.341029718518257">
        <ele>795.88999999999999</ele>
        <time>2021-09-19T10:43:41Z</time>
      </trkpt>
      <trkpt lat="45.100272204726934" lon="7.341032149270177">
        <ele>797.27999999999997</ele>
        <time>2021-09-19T10:43:57Z</time>
      </trkpt>
      <trkpt lat="45.100264409556985" lon="7.341029047966003">
        <ele>799.08000000000004</ele>
        <time>2021-09-19T10:44:15Z</time>
      </trkpt>
      <trkpt lat="45.100266505032778" lon="7.341030640527606">
        <ele>799.29999999999995</ele>
        <time>2021-09-19T10:44:23Z</time>
      </trkpt>
      <trkpt lat="45.100261978805065" lon="7.341037094593048">
        <ele>799.79999999999995</ele>
        <time>2021-09-19T10:44:37Z</time>
      </trkpt>
      <trkpt lat="45.10026223026216" lon="7.341045392677188">
        <ele>800.50999999999999</ele>
        <time>2021-09-19T10:44:49Z</time>
      </trkpt>
      <trkpt lat="45.10027639567852" lon="7.341035753488541">
        <ele>800.38999999999999</ele>
        <time>2021-09-19T10:45:09Z</time>
      </trkpt>
      <trkpt lat="45.100289806723595" lon="7.341042710468173">
        <ele>799.16999999999996</ele>
        <time>2021-09-19T10:45:29Z</time>
      </trkpt>
      <trkpt lat="45.100290812551975" lon="7.34104891307652">
        <ele>800.52999999999997</ele>
        <time>2021-09-19T10:45:49Z</time>
      </trkpt>
      <trkpt lat="45.100283101201057" lon="7.341045308858156">
        <ele>799.90999999999997</ele>
        <time>2021-09-19T10:46:12Z</time>
      </trkpt>
      <trkpt lat="45.100278155878186" lon="7.341022929176688">
        <ele>800.59000000000003</ele>
        <time>2021-09-19T10:46:34Z</time>
      </trkpt>
      <trkpt lat="45.100283436477184" lon="7.341029467061162">
        <ele>800.40999999999997</ele>
        <time>2021-09-19T10:46:53Z</time>
      </trkpt>
      <trkpt lat="45.10028519667685" lon="7.341028712689877">
        <ele>800.42999999999995</ele>
        <time>2021-09-19T10:47:18Z</time>
      </trkpt>
      <trkpt lat="45.100296260789037" lon="7.341030808165669">
        <ele>799.63</ele>
        <time>2021-09-19T10:47:43Z</time>
      </trkpt>
      <trkpt lat="45.100301122292876" lon="7.341034328565002">
        <ele>800.79999999999995</ele>
        <time>2021-09-19T10:48:05Z</time>
      </trkpt>
      <trkpt lat="45.100284777581692" lon="7.341030305251479">
        <ele>802.52999999999997</ele>
        <time>2021-09-19T10:48:21Z</time>
      </trkpt>
      <trkpt lat="45.100242113694549" lon="7.341006584465504">
        <ele>805.58000000000004</ele>
        <time>2021-09-19T10:48:37Z</time>
      </trkpt>
      <trkpt lat="45.100199952721596" lon="7.340990155935288">
        <ele>807.87</ele>
        <time>2021-09-19T10:48:50Z</time>
      </trkpt>
      <trkpt lat="45.100199114531279" lon="7.34099225141108">
        <ele>808.13999999999999</ele>
        <time>2021-09-19T10:49:09Z</time>
      </trkpt>
      <trkpt lat="45.10018746368587" lon="7.340988647192717">
        <ele>809.07000000000005</ele>
        <time>2021-09-19T10:49:25Z</time>
      </trkpt>
      <trkpt lat="45.100178830325603" lon="7.340983869507909">
        <ele>809.80999999999995</ele>
        <time>2021-09-19T10:49:34Z</time>
      </trkpt>
      <trkpt lat="45.100127533078194" lon="7.340964758768678">
        <ele>810</ele>
        <time>2021-09-19T10:49:54Z</time>
      </trkpt>
      <trkpt lat="45.10014052502811" lon="7.340980181470513">
        <ele>809.78999999999996</ele>
        <time>2021-09-19T10:50:25Z</time>
      </trkpt>
      <trkpt lat="45.100128874182701" lon="7.340981187298894">
        <ele>809.96000000000004</ele>
        <time>2021-09-19T10:50:44Z</time>
      </trkpt>
      <trkpt lat="45.100117474794388" lon="7.340988563373685">
        <ele>810.69000000000005</ele>
        <time>2021-09-19T10:51:08Z</time>
      </trkpt>
      <trkpt lat="45.100106243044138" lon="7.340987222269177">
        <ele>811.00999999999999</ele>
        <time>2021-09-19T10:51:25Z</time>
      </trkpt>
      <trkpt lat="45.100089311599731" lon="7.341008596122265">
        <ele>812.04999999999995</ele>
        <time>2021-09-19T10:51:40Z</time>
      </trkpt>
      <trkpt lat="45.10008193552494" lon="7.341004824265838">
        <ele>812.63</ele>
        <time>2021-09-19T10:51:56Z</time>
      </trkpt>
      <trkpt lat="45.100064752623439" lon="7.341008931398392">
        <ele>813.69000000000005</ele>
        <time>2021-09-19T10:52:10Z</time>
      </trkpt>
      <trkpt lat="45.100059555843472" lon="7.341049835085869">
        <ele>814.50999999999999</ele>
        <time>2021-09-19T10:52:20Z</time>
      </trkpt>
      <trkpt lat="45.100030973553658" lon="7.341087134554982">
        <ele>815.44000000000005</ele>
        <time>2021-09-19T10:52:29Z</time>
      </trkpt>
      <trkpt lat="45.099994344636798" lon="7.341072885319591">
        <ele>816.10000000000002</ele>
        <time>2021-09-19T10:52:42Z</time>
      </trkpt>
      <trkpt lat="45.099951010197401" lon="7.341078920289874">
        <ele>817.61000000000001</ele>
        <time>2021-09-19T10:52:53Z</time>
      </trkpt>
      <trkpt lat="45.099892755970359" lon="7.341054109856486">
        <ele>817.86000000000001</ele>
        <time>2021-09-19T10:53:03Z</time>
      </trkpt>
      <trkpt lat="45.099820252507925" lon="7.341073639690876">
        <ele>818.53999999999996</ele>
        <time>2021-09-19T10:53:15Z</time>
      </trkpt>
      <trkpt lat="45.099811870604753" lon="7.341031227260828">
        <ele>820.27999999999997</ele>
        <time>2021-09-19T10:53:26Z</time>
      </trkpt>
      <trkpt lat="45.099811619147658" lon="7.34102644957602">
        <ele>820.03999999999996</ele>
        <time>2021-09-19T10:53:45Z</time>
      </trkpt>
      <trkpt lat="45.099807595834136" lon="7.341043464839459">
        <ele>820.87</ele>
        <time>2021-09-19T10:54:06Z</time>
      </trkpt>
      <trkpt lat="45.099767865613103" lon="7.341062240302563">
        <ele>821.50999999999999</ele>
        <time>2021-09-19T10:54:16Z</time>
      </trkpt>
      <trkpt lat="45.099766021594405" lon="7.341079087927938">
        <ele>821.86000000000001</ele>
        <time>2021-09-19T10:54:26Z</time>
      </trkpt>
      <trkpt lat="45.09976526722312" lon="7.341090738773346">
        <ele>820.75</ele>
        <time>2021-09-19T10:54:38Z</time>
      </trkpt>
      <trkpt lat="45.099763004109263" lon="7.341106496751308">
        <ele>820.42999999999995</ele>
        <time>2021-09-19T10:54:53Z</time>
      </trkpt>
      <trkpt lat="45.09975797496736" lon="7.341110352426767">
        <ele>820.41999999999996</ele>
        <time>2021-09-19T10:55:08Z</time>
      </trkpt>
      <trkpt lat="45.099750095978379" lon="7.341123847290874">
        <ele>820.67999999999995</ele>
        <time>2021-09-19T10:55:24Z</time>
      </trkpt>
      <trkpt lat="45.099718831479549" lon="7.341172965243459">
        <ele>821.63</ele>
        <time>2021-09-19T10:55:39Z</time>
      </trkpt>
      <trkpt lat="45.099714808166027" lon="7.341184616088867">
        <ele>821.89999999999998</ele>
        <time>2021-09-19T10:55:51Z</time>
      </trkpt>
      <trkpt lat="45.099712796509266" lon="7.341185286641121">
        <ele>823.34000000000003</ele>
        <time>2021-09-19T10:56:03Z</time>
      </trkpt>
      <trkpt lat="45.099721346050501" lon="7.341180676594377">
        <ele>823.35000000000002</ele>
        <time>2021-09-19T10:56:22Z</time>
      </trkpt>
      <trkpt lat="45.099729476496577" lon="7.341175898909569">
        <ele>823.70000000000005</ele>
        <time>2021-09-19T10:56:49Z</time>
      </trkpt>
      <trkpt lat="45.09972813539207" lon="7.341162068769336">
        <ele>823.87</ele>
        <time>2021-09-19T10:57:22Z</time>
      </trkpt>
      <trkpt lat="45.099733835086226" lon="7.341158883646131">
        <ele>823.88999999999999</ele>
        <time>2021-09-19T10:57:54Z</time>
      </trkpt>
      <trkpt lat="45.099733415991068" lon="7.341155279427767">
        <ele>823.76999999999998</ele>
        <time>2021-09-19T10:58:22Z</time>
      </trkpt>
      <trkpt lat="45.099734421819448" lon="7.341159135103226">
        <ele>823.48000000000002</ele>
        <time>2021-09-19T10:58:41Z</time>
      </trkpt>
      <trkpt lat="45.099723525345325" lon="7.341170450672507">
        <ele>824.45000000000005</ele>
        <time>2021-09-19T10:59:04Z</time>
      </trkpt>
      <trkpt lat="45.099718580022454" lon="7.341170199215412">
        <ele>824.83000000000004</ele>
        <time>2021-09-19T10:59:25Z</time>
      </trkpt>
      <trkpt lat="45.099721262231469" lon="7.341179922223091">
        <ele>825.25</ele>
        <time>2021-09-19T10:59:51Z</time>
      </trkpt>
      <trkpt lat="45.099715981632471" lon="7.341188555583358">
        <ele>826.54999999999995</ele>
        <time>2021-09-19T11:00:09Z</time>
      </trkpt>
      <trkpt lat="45.09971053339541" lon="7.341212527826428">
        <ele>827.47000000000003</ele>
        <time>2021-09-19T11:00:25Z</time>
      </trkpt>
      <trkpt lat="45.0997110363096" lon="7.341188723221421">
        <ele>828.21000000000004</ele>
        <time>2021-09-19T11:00:41Z</time>
      </trkpt>
      <trkpt lat="45.099686896428466" lon="7.341191321611404">
        <ele>828.66999999999996</ele>
        <time>2021-09-19T11:00:56Z</time>
      </trkpt>
      <trkpt lat="45.099666025489569" lon="7.341205989941955">
        <ele>830.23000000000002</ele>
        <time>2021-09-19T11:01:14Z</time>
      </trkpt>
      <trkpt lat="45.099667869508266" lon="7.341204481199384">
        <ele>831.13</ele>
        <time>2021-09-19T11:01:29Z</time>
      </trkpt>
      <trkpt lat="45.099670886993408" lon="7.341213533654809">
        <ele>832.36000000000001</ele>
        <time>2021-09-19T11:01:45Z</time>
      </trkpt>
      <trkpt lat="45.099658146500587" lon="7.341212024912238">
        <ele>832.65999999999997</ele>
        <time>2021-09-19T11:02:00Z</time>
      </trkpt>
      <trkpt lat="45.099641466513276" lon="7.341216718778014">
        <ele>833.10000000000002</ele>
        <time>2021-09-19T11:02:18Z</time>
      </trkpt>
      <trkpt lat="45.099642304703593" lon="7.341208588331938">
        <ele>833.80999999999995</ele>
        <time>2021-09-19T11:02:38Z</time>
      </trkpt>
      <trkpt lat="45.099643981084228" lon="7.341220322996378">
        <ele>834.64999999999998</ele>
        <time>2021-09-19T11:02:52Z</time>
      </trkpt>
      <trkpt lat="45.099636102095246" lon="7.341232560575008">
        <ele>835.98000000000002</ele>
        <time>2021-09-19T11:03:06Z</time>
      </trkpt>
      <trkpt lat="45.099625373259187" lon="7.34123314730823">
        <ele>837.45000000000005</ele>
        <time>2021-09-19T11:03:23Z</time>
      </trkpt>
      <trkpt lat="45.099618751555681" lon="7.341233566403389">
        <ele>836.60000000000002</ele>
        <time>2021-09-19T11:03:38Z</time>
      </trkpt>
      <trkpt lat="45.099618751555681" lon="7.341229962185025">
        <ele>836.51999999999998</ele>
        <time>2021-09-19T11:03:56Z</time>
      </trkpt>
      <trkpt lat="45.099615063518286" lon="7.341225435957313">
        <ele>836.55999999999995</ele>
        <time>2021-09-19T11:04:16Z</time>
      </trkpt>
      <trkpt lat="45.099606430158019" lon="7.341215964406729">
        <ele>836.49000000000001</ele>
        <time>2021-09-19T11:04:49Z</time>
      </trkpt>
      <trkpt lat="45.099604250863194" lon="7.341228034347296">
        <ele>836.88999999999999</ele>
        <time>2021-09-19T11:05:25Z</time>
      </trkpt>
      <trkpt lat="45.099604921415448" lon="7.341229962185025">
        <ele>837.03999999999996</ele>
        <time>2021-09-19T11:06:02Z</time>
      </trkpt>
      <trkpt lat="45.099604418501258" lon="7.341222502291203">
        <ele>837.19000000000005</ele>
        <time>2021-09-19T11:06:40Z</time>
      </trkpt>
      <trkpt lat="45.099606430158019" lon="7.341221831738949">
        <ele>837.29999999999995</ele>
        <time>2021-09-19T11:07:07Z</time>
      </trkpt>
      <trkpt lat="45.099604586139321" lon="7.341224597766995">
        <ele>837.38999999999999</ele>
        <time>2021-09-19T11:07:36Z</time>
      </trkpt>
      <trkpt lat="45.099604250863194" lon="7.341218898072839">
        <ele>837.33000000000004</ele>
        <time>2021-09-19T11:07:53Z</time>
      </trkpt>
      <trkpt lat="45.099597042426467" lon="7.341229459270835">
        <ele>838.35000000000002</ele>
        <time>2021-09-19T11:08:12Z</time>
      </trkpt>
      <trkpt lat="45.099580362439156" lon="7.341246642172337">
        <ele>839.73000000000002</ele>
        <time>2021-09-19T11:08:26Z</time>
      </trkpt>
      <trkpt lat="45.099567538127303" lon="7.341261897236109">
        <ele>841.39999999999998</ele>
        <time>2021-09-19T11:08:43Z</time>
      </trkpt>
      <trkpt lat="45.099562173709273" lon="7.3412727098912">
        <ele>842.03999999999996</ele>
        <time>2021-09-19T11:08:58Z</time>
      </trkpt>
      <trkpt lat="45.099557312205434" lon="7.341276314109564">
        <ele>841.92999999999995</ele>
        <time>2021-09-19T11:09:14Z</time>
      </trkpt>
      <trkpt lat="45.099549097940326" lon="7.341281091794372">
        <ele>842.69000000000005</ele>
        <time>2021-09-19T11:09:29Z</time>
      </trkpt>
      <trkpt lat="45.099551109597087" lon="7.341275224462152">
        <ele>842.61000000000001</ele>
        <time>2021-09-19T11:09:48Z</time>
      </trkpt>
      <trkpt lat="45.099552785977721" lon="7.34126441180706">
        <ele>841.70000000000005</ele>
        <time>2021-09-19T11:10:17Z</time>
      </trkpt>
      <trkpt lat="45.099546164274216" lon="7.341258376836777">
        <ele>841.63999999999999</ele>
        <time>2021-09-19T11:10:40Z</time>
      </trkpt>
      <trkpt lat="45.099542811512947" lon="7.341264327988029">
        <ele>842.32000000000005</ele>
        <time>2021-09-19T11:11:07Z</time>
      </trkpt>
      <trkpt lat="45.099533591419458" lon="7.341260556131601">
        <ele>842.69000000000005</ele>
        <time>2021-09-19T11:11:56Z</time>
      </trkpt>
      <trkpt lat="45.099532250314951" lon="7.341238427907229">
        <ele>840.73000000000002</ele>
        <time>2021-09-19T11:12:23Z</time>
      </trkpt>
      <trkpt lat="45.099517330527306" lon="7.341237170621753">
        <ele>843.53999999999996</ele>
        <time>2021-09-19T11:12:56Z</time>
      </trkpt>
      <trkpt lat="45.099499644711614" lon="7.3412502463907">
        <ele>845.51999999999998</ele>
        <time>2021-09-19T11:13:09Z</time>
      </trkpt>
      <trkpt lat="45.099462848156691" lon="7.341271787881851">
        <ele>847.30999999999995</ele>
        <time>2021-09-19T11:13:22Z</time>
      </trkpt>
      <trkpt lat="45.099400319159031" lon="7.341323252767324">
        <ele>850.14999999999998</ele>
        <time>2021-09-19T11:13:37Z</time>
      </trkpt>
      <trkpt lat="45.099351452663541" lon="7.341353762894869">
        <ele>853.44000000000005</ele>
        <time>2021-09-19T11:13:51Z</time>
      </trkpt>
      <trkpt lat="45.099344160407782" lon="7.341380752623081">
        <ele>854.54999999999995</ele>
        <time>2021-09-19T11:13:55Z</time>
      </trkpt>
      <trkpt lat="45.099358912557364" lon="7.341455183923245">
        <ele>854.13</ele>
        <time>2021-09-19T11:14:06Z</time>
      </trkpt>
      <trkpt lat="45.099356817081571" lon="7.34146666713059">
        <ele>853.77999999999997</ele>
        <time>2021-09-19T11:14:14Z</time>
      </trkpt>
      <trkpt lat="45.099356817081571" lon="7.34146180562675">
        <ele>852.95000000000005</ele>
        <time>2021-09-19T11:14:32Z</time>
      </trkpt>
      <trkpt lat="45.099344328045845" lon="7.341481000185013">
        <ele>853.28999999999996</ele>
        <time>2021-09-19T11:14:51Z</time>
      </trkpt>
      <trkpt lat="45.099337287247181" lon="7.341480329632759">
        <ele>853.24000000000001</ele>
        <time>2021-09-19T11:15:10Z</time>
      </trkpt>
      <trkpt lat="45.099331419914961" lon="7.34149650670588">
        <ele>853.65999999999997</ele>
        <time>2021-09-19T11:15:33Z</time>
      </trkpt>
      <trkpt lat="45.099338544532657" lon="7.341490807011724">
        <ele>853.75999999999999</ele>
        <time>2021-09-19T11:15:48Z</time>
      </trkpt>
      <trkpt lat="45.099338544532657" lon="7.341477312147617">
        <ele>853.11000000000001</ele>
        <time>2021-09-19T11:15:58Z</time>
      </trkpt>
      <trkpt lat="45.099338879808784" lon="7.341476306319237">
        <ele>853.10000000000002</ele>
        <time>2021-09-19T11:16:13Z</time>
      </trkpt>
      <trkpt lat="45.099355475977063" lon="7.341481922194362">
        <ele>853.36000000000001</ele>
        <time>2021-09-19T11:16:22Z</time>
      </trkpt>
      <trkpt lat="45.09934114292264" lon="7.341495668515563">
        <ele>853.32000000000005</ele>
        <time>2021-09-19T11:16:39Z</time>
      </trkpt>
      <trkpt lat="45.099334688857198" lon="7.341501452028751">
        <ele>853.33000000000004</ele>
        <time>2021-09-19T11:16:53Z</time>
      </trkpt>
      <trkpt lat="45.099307950586081" lon="7.341510923579335">
        <ele>853.08000000000004</ele>
        <time>2021-09-19T11:17:09Z</time>
      </trkpt>
      <trkpt lat="45.099291102960706" lon="7.341514192521572">
        <ele>853.49000000000001</ele>
        <time>2021-09-19T11:17:28Z</time>
      </trkpt>
      <trkpt lat="45.099295042455196" lon="7.341512180864811">
        <ele>853.34000000000003</ele>
        <time>2021-09-19T11:17:51Z</time>
      </trkpt>
      <trkpt lat="45.09929277934134" lon="7.341515701264143">
        <ele>854.10000000000002</ele>
        <time>2021-09-19T11:18:04Z</time>
      </trkpt>
      <trkpt lat="45.099271489307284" lon="7.341509833931923">
        <ele>855.15999999999997</ele>
        <time>2021-09-19T11:18:16Z</time>
      </trkpt>
      <trkpt lat="45.099271992221475" lon="7.341498769819737">
        <ele>855.86000000000001</ele>
        <time>2021-09-19T11:18:29Z</time>
      </trkpt>
      <trkpt lat="45.099280457943678" lon="7.341485694050789">
        <ele>856.02999999999997</ele>
        <time>2021-09-19T11:18:48Z</time>
      </trkpt>
      <trkpt lat="45.099293198436499" lon="7.341483598574996">
        <ele>857.01999999999998</ele>
        <time>2021-09-19T11:19:00Z</time>
      </trkpt>
      <trkpt lat="45.099280457943678" lon="7.341457614675164">
        <ele>857.88</ele>
        <time>2021-09-19T11:19:17Z</time>
      </trkpt>
      <trkpt lat="45.099281882867217" lon="7.341454010456801">
        <ele>858.89999999999998</ele>
        <time>2021-09-19T11:19:29Z</time>
      </trkpt>
      <trkpt lat="45.099277440458536" lon="7.341445544734597">
        <ele>859.59000000000003</ele>
        <time>2021-09-19T11:19:47Z</time>
      </trkpt>
      <trkpt lat="45.099263023585081" lon="7.341446718201041">
        <ele>860.61000000000001</ele>
        <time>2021-09-19T11:19:57Z</time>
      </trkpt>
      <trkpt lat="45.099243661388755" lon="7.341444119811058">
        <ele>861.86000000000001</ele>
        <time>2021-09-19T11:20:08Z</time>
      </trkpt>
      <trkpt lat="45.0992102175951" lon="7.341423751786351">
        <ele>863.41999999999996</ele>
        <time>2021-09-19T11:20:25Z</time>
      </trkpt>
      <trkpt lat="45.099200159311295" lon="7.341412771493197">
        <ele>863.38</ele>
        <time>2021-09-19T11:20:38Z</time>
      </trkpt>
      <trkpt lat="45.099203931167722" lon="7.341414280235767">
        <ele>862.75</ele>
        <time>2021-09-19T11:20:42Z</time>
      </trkpt>
      <trkpt lat="45.099188508465886" lon="7.341406987980008">
        <ele>863.38999999999999</ele>
        <time>2021-09-19T11:20:47Z</time>
      </trkpt>
      <trkpt lat="45.099198902025819" lon="7.341410173103213">
        <ele>864.69000000000005</ele>
        <time>2021-09-19T11:20:52Z</time>
      </trkpt>
      <trkpt lat="45.099205104634166" lon="7.341399611905217">
        <ele>865.37</ele>
        <time>2021-09-19T11:21:02Z</time>
      </trkpt>
      <trkpt lat="45.099216504022479" lon="7.341398522257805">
        <ele>865.38</ele>
        <time>2021-09-19T11:21:10Z</time>
      </trkpt>
      <trkpt lat="45.099191190674901" lon="7.341393912211061">
        <ele>865.84000000000003</ele>
        <time>2021-09-19T11:21:21Z</time>
      </trkpt>
      <trkpt lat="45.099201332777739" lon="7.341388883069158">
        <ele>865.94000000000005</ele>
        <time>2021-09-19T11:21:29Z</time>
      </trkpt>
      <trkpt lat="45.099202003329992" lon="7.34136457554996">
        <ele>865.46000000000004</ele>
        <time>2021-09-19T11:21:41Z</time>
      </trkpt>
      <trkpt lat="45.099202841520309" lon="7.341365329921246">
        <ele>865.64999999999998</ele>
        <time>2021-09-19T11:21:47Z</time>
      </trkpt>
      <trkpt lat="45.099213235080242" lon="7.341379746794701">
        <ele>867.30999999999995</ele>
        <time>2021-09-19T11:21:56Z</time>
      </trkpt>
      <trkpt lat="45.099214073270559" lon="7.341377651318908">
        <ele>868.39999999999998</ele>
        <time>2021-09-19T11:22:11Z</time>
      </trkpt>
      <trkpt lat="45.099212480708957" lon="7.34136993996799">
        <ele>869.70000000000005</ele>
        <time>2021-09-19T11:22:30Z</time>
      </trkpt>
      <trkpt lat="45.099205691367388" lon="7.341370191425085">
        <ele>868.79999999999995</ele>
        <time>2021-09-19T11:22:45Z</time>
      </trkpt>
      <trkpt lat="45.099202003329992" lon="7.341358037665486">
        <ele>868.12</ele>
        <time>2021-09-19T11:22:55Z</time>
      </trkpt>
      <trkpt lat="45.09919311851263" lon="7.341355355456471">
        <ele>868.07000000000005</ele>
        <time>2021-09-19T11:23:12Z</time>
      </trkpt>
      <trkpt lat="45.099173169583082" lon="7.341380584985018">
        <ele>869.36000000000001</ele>
        <time>2021-09-19T11:23:28Z</time>
      </trkpt>
      <trkpt lat="45.099180545657873" lon="7.341415621340275">
        <ele>870.16999999999996</ele>
        <time>2021-09-19T11:23:44Z</time>
      </trkpt>
      <trkpt lat="45.099175935611129" lon="7.34141587279737">
        <ele>870.40999999999997</ele>
        <time>2021-09-19T11:23:57Z</time>
      </trkpt>
      <trkpt lat="45.09916914626956" lon="7.341416962444782">
        <ele>870.84000000000003</ele>
        <time>2021-09-19T11:24:11Z</time>
      </trkpt>
      <trkpt lat="45.099161183461547" lon="7.341409251093864">
        <ele>870.95000000000005</ele>
        <time>2021-09-19T11:24:28Z</time>
      </trkpt>
      <trkpt lat="45.099157327786088" lon="7.341412268579006">
        <ele>872.40999999999997</ele>
        <time>2021-09-19T11:24:45Z</time>
      </trkpt>
      <trkpt lat="45.099146347492933" lon="7.341422159224749">
        <ele>871.77999999999997</ele>
        <time>2021-09-19T11:25:01Z</time>
      </trkpt>
      <trkpt lat="45.099140731617808" lon="7.341431211680174">
        <ele>873.91999999999996</ele>
        <time>2021-09-19T11:25:15Z</time>
      </trkpt>
      <trkpt lat="45.0991325173527" lon="7.34143590554595">
        <ele>873.85000000000002</ele>
        <time>2021-09-19T11:25:26Z</time>
      </trkpt>
      <trkpt lat="45.099125057458878" lon="7.341447388753295">
        <ele>874.72000000000003</ele>
        <time>2021-09-19T11:25:41Z</time>
      </trkpt>
      <trkpt lat="45.099122542887926" lon="7.341449987143278">
        <ele>875.37</ele>
        <time>2021-09-19T11:25:56Z</time>
      </trkpt>
      <trkpt lat="45.099121788516641" lon="7.34145007096231">
        <ele>874.24000000000001</ele>
        <time>2021-09-19T11:26:11Z</time>
      </trkpt>
      <trkpt lat="45.099121620878577" lon="7.341451160609722">
        <ele>873.70000000000005</ele>
        <time>2021-09-19T11:26:36Z</time>
      </trkpt>
      <trkpt lat="45.09911198168993" lon="7.341487873345614">
        <ele>873.38</ele>
        <time>2021-09-19T11:26:51Z</time>
      </trkpt>
      <trkpt lat="45.099099911749363" lon="7.341501452028751">
        <ele>876.40999999999997</ele>
        <time>2021-09-19T11:27:06Z</time>
      </trkpt>
      <trkpt lat="45.099096810445189" lon="7.341507067903876">
        <ele>877.46000000000004</ele>
        <time>2021-09-19T11:27:08Z</time>
      </trkpt>
      <trkpt lat="45.09908557869494" lon="7.34150480479002">
        <ele>879.04999999999995</ele>
        <time>2021-09-19T11:27:24Z</time>
      </trkpt>
      <trkpt lat="45.099078873172402" lon="7.341488292440772">
        <ele>879.30999999999995</ele>
        <time>2021-09-19T11:27:39Z</time>
      </trkpt>
      <trkpt lat="45.099087255075574" lon="7.341467840597034">
        <ele>879.02999999999997</ele>
        <time>2021-09-19T11:28:07Z</time>
      </trkpt>
      <trkpt lat="45.099081052467227" lon="7.341468008235097">
        <ele>879.64999999999998</ele>
        <time>2021-09-19T11:28:29Z</time>
      </trkpt>
      <trkpt lat="45.09907828643918" lon="7.341470271348953">
        <ele>881.09000000000003</ele>
        <time>2021-09-19T11:28:44Z</time>
      </trkpt>
      <trkpt lat="45.099075101315975" lon="7.341481586918235">
        <ele>881.33000000000004</ele>
        <time>2021-09-19T11:29:00Z</time>
      </trkpt>
      <trkpt lat="45.09907484985888" lon="7.341488376259804">
        <ele>882.89999999999998</ele>
        <time>2021-09-19T11:29:16Z</time>
      </trkpt>
      <trkpt lat="45.09906948544085" lon="7.341491393744946">
        <ele>882.38</ele>
        <time>2021-09-19T11:29:31Z</time>
      </trkpt>
      <trkpt lat="45.09906604886055" lon="7.341493992134929">
        <ele>882.73000000000002</ele>
        <time>2021-09-19T11:29:50Z</time>
      </trkpt>
      <trkpt lat="45.099060852080584" lon="7.34149650670588">
        <ele>883.69000000000005</ele>
        <time>2021-09-19T11:30:08Z</time>
      </trkpt>
      <trkpt lat="45.099051296710968" lon="7.341473707929254">
        <ele>883.82000000000005</ele>
        <time>2021-09-19T11:30:27Z</time>
      </trkpt>
      <trkpt lat="45.099044339731336" lon="7.341464487835765">
        <ele>883.67999999999995</ele>
        <time>2021-09-19T11:30:42Z</time>
      </trkpt>
      <trkpt lat="45.099048027768731" lon="7.341451831161976">
        <ele>884.55999999999995</ele>
        <time>2021-09-19T11:30:57Z</time>
      </trkpt>
      <trkpt lat="45.099049787968397" lon="7.341454681009054">
        <ele>885.62</ele>
        <time>2021-09-19T11:31:11Z</time>
      </trkpt>
      <trkpt lat="45.099029922857881" lon="7.341467421501875">
        <ele>886.46000000000004</ele>
        <time>2021-09-19T11:31:28Z</time>
      </trkpt>
      <trkpt lat="45.098995305597782" lon="7.341478569433093">
        <ele>886.5</ele>
        <time>2021-09-19T11:31:40Z</time>
      </trkpt>
      <trkpt lat="45.098955743014812" lon="7.341513773426414">
        <ele>889.52999999999997</ele>
        <time>2021-09-19T11:31:53Z</time>
      </trkpt>
      <trkpt lat="45.09892238304019" lon="7.341503296047449">
        <ele>891.23000000000002</ele>
        <time>2021-09-19T11:32:04Z</time>
      </trkpt>
      <trkpt lat="45.098906038329005" lon="7.341521568596363">
        <ele>892.27999999999997</ele>
        <time>2021-09-19T11:32:15Z</time>
      </trkpt>
      <trkpt lat="45.09890578687191" lon="7.341507067903876">
        <ele>892.28999999999996</ele>
        <time>2021-09-19T11:32:26Z</time>
      </trkpt>
      <trkpt lat="45.098913665860891" lon="7.341491896659136">
        <ele>893.62</ele>
        <time>2021-09-19T11:32:39Z</time>
      </trkpt>
      <trkpt lat="45.098906625062227" lon="7.34148669987917">
        <ele>893.00999999999999</ele>
        <time>2021-09-19T11:32:57Z</time>
      </trkpt>
      <trkpt lat="45.098902015015483" lon="7.341477731242776">
        <ele>892.99000000000001</ele>
        <time>2021-09-19T11:33:15Z</time>
      </trkpt>
      <trkpt lat="45.098904864862561" lon="7.341469097882509">
        <ele>893.26999999999998</ele>
        <time>2021-09-19T11:33:33Z</time>
      </trkpt>
      <trkpt lat="45.098903523758054" lon="7.341454764828086">
        <ele>893.14999999999998</ele>
        <time>2021-09-19T11:33:56Z</time>
      </trkpt>
      <trkpt lat="45.098904948681593" lon="7.341449148952961">
        <ele>893.14999999999998</ele>
        <time>2021-09-19T11:34:12Z</time>
      </trkpt>
      <trkpt lat="45.09890235029161" lon="7.341457447037101">
        <ele>893.53999999999996</ele>
        <time>2021-09-19T11:34:42Z</time>
      </trkpt>
      <trkpt lat="45.098903439939022" lon="7.341450322419405">
        <ele>893.16999999999996</ele>
        <time>2021-09-19T11:34:59Z</time>
      </trkpt>
      <trkpt lat="45.098898997530341" lon="7.34144420363009">
        <ele>893.40999999999997</ele>
        <time>2021-09-19T11:35:24Z</time>
      </trkpt>
      <trkpt lat="45.098919617012143" lon="7.341448646038771">
        <ele>893.63</ele>
        <time>2021-09-19T11:35:40Z</time>
      </trkpt>
      <trkpt lat="45.098933279514313" lon="7.341444538906217">
        <ele>894.50999999999999</ele>
        <time>2021-09-19T11:35:56Z</time>
      </trkpt>
      <trkpt lat="45.098951552063227" lon="7.341456692665815">
        <ele>897.58000000000004</ele>
        <time>2021-09-19T11:36:05Z</time>
      </trkpt>
      <trkpt lat="45.098983235657215" lon="7.34147404320538">
        <ele>898.83000000000004</ele>
        <time>2021-09-19T11:36:22Z</time>
      </trkpt>
      <trkpt lat="45.099001675844193" lon="7.341476054862142">
        <ele>900.15999999999997</ele>
        <time>2021-09-19T11:36:35Z</time>
      </trkpt>
      <trkpt lat="45.099042495712638" lon="7.341510001569986">
        <ele>901.67999999999995</ele>
        <time>2021-09-19T11:36:49Z</time>
      </trkpt>
      <trkpt lat="45.09905724786222" lon="7.341562304645777">
        <ele>903.39999999999998</ele>
        <time>2021-09-19T11:36:54Z</time>
      </trkpt>
      <trkpt lat="45.099078789353371" lon="7.341621983796358">
        <ele>903.89999999999998</ele>
        <time>2021-09-19T11:37:09Z</time>
      </trkpt>
      <trkpt lat="45.099078705534339" lon="7.341652829200029">
        <ele>904.27999999999997</ele>
        <time>2021-09-19T11:37:21Z</time>
      </trkpt>
      <trkpt lat="45.099057583138347" lon="7.341660289093852">
        <ele>905.91999999999996</ele>
        <time>2021-09-19T11:37:35Z</time>
      </trkpt>
      <trkpt lat="45.099051045253873" lon="7.341672107577324">
        <ele>906.78999999999996</ele>
        <time>2021-09-19T11:37:49Z</time>
      </trkpt>
      <trkpt lat="45.099043836817145" lon="7.341671688482165">
        <ele>907.88999999999999</ele>
        <time>2021-09-19T11:38:06Z</time>
      </trkpt>
      <trkpt lat="45.09903428144753" lon="7.341671604663134">
        <ele>909.20000000000005</ele>
        <time>2021-09-19T11:38:21Z</time>
      </trkpt>
      <trkpt lat="45.099022211506963" lon="7.341672359034419">
        <ele>909.34000000000003</ele>
        <time>2021-09-19T11:38:37Z</time>
      </trkpt>
      <trkpt lat="45.098990863189101" lon="7.341692643240094">
        <ele>910.91999999999996</ele>
        <time>2021-09-19T11:38:49Z</time>
      </trkpt>
      <trkpt lat="45.09899228811264" lon="7.341689458116889">
        <ele>911.5</ele>
        <time>2021-09-19T11:39:04Z</time>
      </trkpt>
      <trkpt lat="45.098999412730336" lon="7.34174570068717">
        <ele>911.69000000000005</ele>
        <time>2021-09-19T11:39:13Z</time>
      </trkpt>
      <trkpt lat="45.098975608125329" lon="7.341784927994013">
        <ele>912.35000000000002</ele>
        <time>2021-09-19T11:39:19Z</time>
      </trkpt>
      <trkpt lat="45.098942667245865" lon="7.341827508062124">
        <ele>913.24000000000001</ele>
        <time>2021-09-19T11:39:32Z</time>
      </trkpt>
      <trkpt lat="45.098943170160055" lon="7.34184536151588">
        <ele>914.73000000000002</ele>
        <time>2021-09-19T11:39:38Z</time>
      </trkpt>
      <trkpt lat="45.098920874297619" lon="7.341871429234743">
        <ele>916.83000000000004</ele>
        <time>2021-09-19T11:39:54Z</time>
      </trkpt>
      <trkpt lat="45.09891458787024" lon="7.341873440891504">
        <ele>917.96000000000004</ele>
        <time>2021-09-19T11:40:17Z</time>
      </trkpt>
      <trkpt lat="45.098901260644197" lon="7.34187176451087">
        <ele>918.64999999999998</ele>
        <time>2021-09-19T11:40:32Z</time>
      </trkpt>
      <trkpt lat="45.098890699446201" lon="7.341870674863458">
        <ele>918.33000000000004</ele>
        <time>2021-09-19T11:40:55Z</time>
      </trkpt>
      <trkpt lat="45.098890783265233" lon="7.341871093958616">
        <ele>919</ele>
        <time>2021-09-19T11:41:09Z</time>
      </trkpt>
      <trkpt lat="45.098888352513313" lon="7.341856677085161">
        <ele>918.47000000000003</ele>
        <time>2021-09-19T11:41:33Z</time>
      </trkpt>
      <trkpt lat="45.09889061562717" lon="7.341865058988333">
        <ele>919.49000000000001</ele>
        <time>2021-09-19T11:41:40Z</time>
      </trkpt>
      <trkpt lat="45.098885586485267" lon="7.341864807531238">
        <ele>919.26999999999998</ele>
        <time>2021-09-19T11:41:54Z</time>
      </trkpt>
      <trkpt lat="45.098877372220159" lon="7.341850558295846">
        <ele>918.97000000000003</ele>
        <time>2021-09-19T11:42:21Z</time>
      </trkpt>
      <trkpt lat="45.098873432725668" lon="7.34184293076396">
        <ele>919.37</ele>
        <time>2021-09-19T11:42:54Z</time>
      </trkpt>
      <trkpt lat="45.098872929811478" lon="7.341855838894844">
        <ele>919.08000000000004</ele>
        <time>2021-09-19T11:43:09Z</time>
      </trkpt>
      <trkpt lat="45.09884619154036" lon="7.341877548024058">
        <ele>918.86000000000001</ele>
        <time>2021-09-19T11:43:32Z</time>
      </trkpt>
      <trkpt lat="45.09881149046123" lon="7.34190889634192">
        <ele>920.14999999999998</ele>
        <time>2021-09-19T11:43:44Z</time>
      </trkpt>
      <trkpt lat="45.098796235397458" lon="7.341946698725224">
        <ele>923.17999999999995</ele>
        <time>2021-09-19T11:43:58Z</time>
      </trkpt>
      <trkpt lat="45.098738819360733" lon="7.341968743130565">
        <ele>923.52999999999997</ele>
        <time>2021-09-19T11:44:10Z</time>
      </trkpt>
      <trkpt lat="45.098773688077927" lon="7.341988859698176">
        <ele>923.17999999999995</ele>
        <time>2021-09-19T11:44:24Z</time>
      </trkpt>
      <trkpt lat="45.098768407478929" lon="7.341994475573301">
        <ele>922</ele>
        <time>2021-09-19T11:44:41Z</time>
      </trkpt>
      <trkpt lat="45.098772514611483" lon="7.341993888840079">
        <ele>920.87</ele>
        <time>2021-09-19T11:45:22Z</time>
      </trkpt>
      <trkpt lat="45.098765892907977" lon="7.342003947123885">
        <ele>921.41999999999996</ele>
        <time>2021-09-19T11:46:09Z</time>
      </trkpt>
      <trkpt lat="45.098769329488277" lon="7.342005958780646">
        <ele>922.13999999999999</ele>
        <time>2021-09-19T11:46:36Z</time>
      </trkpt>
      <trkpt lat="45.098763378337026" lon="7.342000175267458">
        <ele>921.87</ele>
        <time>2021-09-19T11:47:13Z</time>
      </trkpt>
      <trkpt lat="45.098768994212151" lon="7.342014005407691">
        <ele>922.83000000000004</ele>
        <time>2021-09-19T11:47:53Z</time>
      </trkpt>
      <trkpt lat="45.098770670592785" lon="7.342013753950596">
        <ele>921.14999999999998</ele>
        <time>2021-09-19T11:48:36Z</time>
      </trkpt>
      <trkpt lat="45.098767736926675" lon="7.342011071741581">
        <ele>920.95000000000005</ele>
        <time>2021-09-19T11:49:17Z</time>
      </trkpt>
      <trkpt lat="45.098762288689613" lon="7.342006294056773">
        <ele>921</ele>
        <time>2021-09-19T11:49:46Z</time>
      </trkpt>
      <trkpt lat="45.098769078031182" lon="7.341999001801014">
        <ele>920.35000000000002</ele>
        <time>2021-09-19T11:50:11Z</time>
      </trkpt>
      <trkpt lat="45.098778214305639" lon="7.34198953025043">
        <ele>921.48000000000002</ele>
        <time>2021-09-19T11:50:43Z</time>
      </trkpt>
      <trkpt lat="45.098781064152718" lon="7.341994056478143">
        <ele>922.49000000000001</ele>
        <time>2021-09-19T11:51:02Z</time>
      </trkpt>
      <trkpt lat="45.098796151578426" lon="7.342026997357607">
        <ele>924.41999999999996</ele>
        <time>2021-09-19T11:51:16Z</time>
      </trkpt>
      <trkpt lat="45.098803024739027" lon="7.34202423132956">
        <ele>924.28999999999996</ele>
        <time>2021-09-19T11:51:32Z</time>
      </trkpt>
      <trkpt lat="45.098801432177424" lon="7.342022052034736">
        <ele>925.59000000000003</ele>
        <time>2021-09-19T11:51:53Z</time>
      </trkpt>
      <trkpt lat="45.098801767453551" lon="7.342014340683818">
        <ele>924.86000000000001</ele>
        <time>2021-09-19T11:52:10Z</time>
      </trkpt>
      <trkpt lat="45.09880562312901" lon="7.34201442450285">
        <ele>924.20000000000005</ele>
        <time>2021-09-19T11:52:37Z</time>
      </trkpt>
      <trkpt lat="45.098801599815488" lon="7.342043090611696">
        <ele>924.38999999999999</ele>
        <time>2021-09-19T11:53:05Z</time>
      </trkpt>
      <trkpt lat="45.098766731098294" lon="7.34214979223907">
        <ele>924.5</ele>
        <time>2021-09-19T11:53:17Z</time>
      </trkpt>
      <trkpt lat="45.098703028634191" lon="7.342185415327549">
        <ele>926.91999999999996</ele>
        <time>2021-09-19T11:53:30Z</time>
      </trkpt>
      <trkpt lat="45.098672015592456" lon="7.342288764193654">
        <ele>929.33000000000004</ele>
        <time>2021-09-19T11:53:44Z</time>
      </trkpt>
      <trkpt lat="45.098671009764075" lon="7.342332769185305">
        <ele>930.50999999999999</ele>
        <time>2021-09-19T11:53:54Z</time>
      </trkpt>
      <trkpt lat="45.098653240129352" lon="7.342264037579298">
        <ele>929.36000000000001</ele>
        <time>2021-09-19T11:54:12Z</time>
      </trkpt>
      <trkpt lat="45.098609151318669" lon="7.34221919439733">
        <ele>928.50999999999999</ele>
        <time>2021-09-19T11:54:25Z</time>
      </trkpt>
      <trkpt lat="45.098582245409489" lon="7.342229755595326">
        <ele>927.96000000000004</ele>
        <time>2021-09-19T11:54:38Z</time>
      </trkpt>
      <trkpt lat="45.098575036972761" lon="7.342230342328548">
        <ele>929.38</ele>
        <time>2021-09-19T11:54:41Z</time>
      </trkpt>
      <trkpt lat="45.098533630371094" lon="7.342246267944574">
        <ele>930.11000000000001</ele>
        <time>2021-09-19T11:54:54Z</time>
      </trkpt>
      <trkpt lat="45.098460791632533" lon="7.342251380905509">
        <ele>930.17999999999995</ele>
        <time>2021-09-19T11:55:08Z</time>
      </trkpt>
      <trkpt lat="45.098443441092968" lon="7.342250626534224">
        <ele>929.54999999999995</ele>
        <time>2021-09-19T11:55:10Z</time>
      </trkpt>
      <trkpt lat="45.098382756114006" lon="7.342303181067109">
        <ele>926.48000000000002</ele>
        <time>2021-09-19T11:55:24Z</time>
      </trkpt>
      <trkpt lat="45.098373033106327" lon="7.342309802770615">
        <ele>923.83000000000004</ele>
        <time>2021-09-19T11:55:32Z</time>
      </trkpt>
      <trkpt lat="45.098327687010169" lon="7.342285746708512">
        <ele>921.64999999999998</ele>
        <time>2021-09-19T11:55:47Z</time>
      </trkpt>
      <trkpt lat="45.098292734473944" lon="7.342299073934555">
        <ele>918.80999999999995</ele>
        <time>2021-09-19T11:55:59Z</time>
      </trkpt>
      <trkpt lat="45.098261386156082" lon="7.342320028692484">
        <ele>915.91999999999996</ele>
        <time>2021-09-19T11:56:12Z</time>
      </trkpt>
      <trkpt lat="45.098198857158422" lon="7.342306366190314">
        <ele>912.90999999999997</ele>
        <time>2021-09-19T11:56:23Z</time>
      </trkpt>
      <trkpt lat="45.098126605153084" lon="7.34236135147512">
        <ele>911.21000000000004</ele>
        <time>2021-09-19T11:56:38Z</time>
      </trkpt>
      <trkpt lat="45.098040690645576" lon="7.3423554841429">
        <ele>908.41999999999996</ele>
        <time>2021-09-19T11:56:53Z</time>
      </trkpt>
      <trkpt lat="45.098019149154425" lon="7.342339474707842">
        <ele>908.17999999999995</ele>
        <time>2021-09-19T11:56:55Z</time>
      </trkpt>
      <trkpt lat="45.097953267395496" lon="7.342303013429046">
        <ele>907.67999999999995</ele>
        <time>2021-09-19T11:57:07Z</time>
      </trkpt>
      <trkpt lat="45.097901718690991" lon="7.342302594333887">
        <ele>904.46000000000004</ele>
        <time>2021-09-19T11:57:19Z</time>
      </trkpt>
      <trkpt lat="45.097818821668625" lon="7.342332936823368">
        <ele>904.67999999999995</ele>
        <time>2021-09-19T11:57:33Z</time>
      </trkpt>
      <trkpt lat="45.097736930474639" lon="7.34229002147913">
        <ele>904.30999999999995</ele>
        <time>2021-09-19T11:57:47Z</time>
      </trkpt>
      <trkpt lat="45.097619919106364" lon="7.342347772791982">
        <ele>907.02999999999997</ele>
        <time>2021-09-19T11:58:02Z</time>
      </trkpt>
      <trkpt lat="45.097612626850605" lon="7.342354562133551">
        <ele>907.04999999999995</ele>
        <time>2021-09-19T11:58:19Z</time>
      </trkpt>
      <trkpt lat="45.097522102296352" lon="7.342358501628041">
        <ele>906.38</ele>
        <time>2021-09-19T11:58:32Z</time>
      </trkpt>
      <trkpt lat="45.097487652674317" lon="7.342390855774283">
        <ele>907.71000000000004</ele>
        <time>2021-09-19T11:58:46Z</time>
      </trkpt>
      <trkpt lat="45.097484551370144" lon="7.342357914894819">
        <ele>907.37</ele>
        <time>2021-09-19T11:58:58Z</time>
      </trkpt>
      <trkpt lat="45.097416406497359" lon="7.342359591275454">
        <ele>904.46000000000004</ele>
        <time>2021-09-19T11:59:12Z</time>
      </trkpt>
      <trkpt lat="45.097352284938097" lon="7.342323632910848">
        <ele>901.38</ele>
        <time>2021-09-19T11:59:25Z</time>
      </trkpt>
      <trkpt lat="45.097249941900373" lon="7.342293122783303">
        <ele>901.70000000000005</ele>
        <time>2021-09-19T11:59:38Z</time>
      </trkpt>
      <trkpt lat="45.097221778705716" lon="7.342274934053421">
        <ele>901.15999999999997</ele>
        <time>2021-09-19T11:59:51Z</time>
      </trkpt>
      <trkpt lat="45.097206272184849" lon="7.342263786122203">
        <ele>900.96000000000004</ele>
        <time>2021-09-19T12:00:14Z</time>
      </trkpt>
      <trkpt lat="45.097190849483013" lon="7.342247273772955">
        <ele>901.60000000000002</ele>
        <time>2021-09-19T12:00:49Z</time>
      </trkpt>
      <trkpt lat="45.097143407911062" lon="7.342270743101835">
        <ele>903.33000000000004</ele>
        <time>2021-09-19T12:01:04Z</time>
      </trkpt>
      <trkpt lat="45.097097894176841" lon="7.34224216081202">
        <ele>906.48000000000002</ele>
        <time>2021-09-19T12:01:17Z</time>
      </trkpt>
      <trkpt lat="45.097070569172502" lon="7.342246351763606">
        <ele>907.88</ele>
        <time>2021-09-19T12:01:31Z</time>
      </trkpt>
      <trkpt lat="45.097039639949799" lon="7.342225816100836">
        <ele>905.78999999999996</ele>
        <time>2021-09-19T12:01:41Z</time>
      </trkpt>
      <trkpt lat="45.097012314945459" lon="7.342183403670788">
        <ele>902.67999999999995</ele>
        <time>2021-09-19T12:01:53Z</time>
      </trkpt>
      <trkpt lat="45.097015919163823" lon="7.342128586024046">
        <ele>900.35000000000002</ele>
        <time>2021-09-19T12:02:05Z</time>
      </trkpt>
      <trkpt lat="45.096997814252973" lon="7.342095477506518">
        <ele>898.33000000000004</ele>
        <time>2021-09-19T12:02:15Z</time>
      </trkpt>
      <trkpt lat="45.096986163407564" lon="7.342056585475802">
        <ele>897.12</ele>
        <time>2021-09-19T12:02:26Z</time>
      </trkpt>
      <trkpt lat="45.096974847838283" lon="7.342073936015368">
        <ele>895.95000000000005</ele>
        <time>2021-09-19T12:02:41Z</time>
      </trkpt>
      <trkpt lat="45.096961185336113" lon="7.34206672757864">
        <ele>892.92999999999995</ele>
        <time>2021-09-19T12:03:00Z</time>
      </trkpt>
      <trkpt lat="45.096929166465998" lon="7.342029931023717">
        <ele>892.35000000000002</ele>
        <time>2021-09-19T12:03:14Z</time>
      </trkpt>
      <trkpt lat="45.096912067383528" lon="7.342003779485822">
        <ele>890.5</ele>
        <time>2021-09-19T12:03:27Z</time>
      </trkpt>
      <trkpt lat="45.096900500357151" lon="7.342007299885154">
        <ele>890.5</ele>
        <time>2021-09-19T12:03:51Z</time>
      </trkpt>
      <trkpt lat="45.09690242819488" lon="7.342003947123885">
        <ele>890.25999999999999</ele>
        <time>2021-09-19T12:04:12Z</time>
      </trkpt>
      <trkpt lat="45.096861692145467" lon="7.34199246391654">
        <ele>887.08000000000004</ele>
        <time>2021-09-19T12:04:31Z</time>
      </trkpt>
      <trkpt lat="45.096851382404566" lon="7.341989194974303">
        <ele>886.83000000000004</ele>
        <time>2021-09-19T12:04:32Z</time>
      </trkpt>
      <trkpt lat="45.09679052978754" lon="7.341980645433068">
        <ele>887.61000000000001</ele>
        <time>2021-09-19T12:04:44Z</time>
      </trkpt>
      <trkpt lat="45.096757924184203" lon="7.342005120590329">
        <ele>890.85000000000002</ele>
        <time>2021-09-19T12:04:54Z</time>
      </trkpt>
      <trkpt lat="45.096733700484037" lon="7.34203303232789">
        <ele>893.89999999999998</ele>
        <time>2021-09-19T12:05:04Z</time>
      </trkpt>
      <trkpt lat="45.09671526029706" lon="7.342067314311862">
        <ele>896.08000000000004</ele>
        <time>2021-09-19T12:05:20Z</time>
      </trkpt>
      <trkpt lat="45.096703693270683" lon="7.342121042311192">
        <ele>899.12</ele>
        <time>2021-09-19T12:05:35Z</time>
      </trkpt>
      <trkpt lat="45.096680894494057" lon="7.342128166928887">
        <ele>901.98000000000002</ele>
        <time>2021-09-19T12:05:48Z</time>
      </trkpt>
      <trkpt lat="45.09665809571743" lon="7.342129675671458">
        <ele>902.34000000000003</ele>
        <time>2021-09-19T12:06:00Z</time>
      </trkpt>
      <trkpt lat="45.09661853313446" lon="7.342152306810021">
        <ele>900.89999999999998</ele>
        <time>2021-09-19T12:06:10Z</time>
      </trkpt>
      <trkpt lat="45.096552902832627" lon="7.342174015939236">
        <ele>900.98000000000002</ele>
        <time>2021-09-19T12:06:18Z</time>
      </trkpt>
      <trkpt lat="45.096481656655669" lon="7.342249117791653">
        <ele>901.77999999999997</ele>
        <time>2021-09-19T12:06:29Z</time>
      </trkpt>
      <trkpt lat="45.096448548138142" lon="7.342241238802671">
        <ele>901.32000000000005</ele>
        <time>2021-09-19T12:06:40Z</time>
      </trkpt>
      <trkpt lat="45.096404207870364" lon="7.342196647077799">
        <ele>901.33000000000004</ele>
        <time>2021-09-19T12:06:45Z</time>
      </trkpt>
      <trkpt lat="45.09639959782362" lon="7.342208800837398">
        <ele>901.23000000000002</ele>
        <time>2021-09-19T12:06:56Z</time>
      </trkpt>
      <trkpt lat="45.096415691077709" lon="7.342219362035394">
        <ele>900.87</ele>
        <time>2021-09-19T12:06:58Z</time>
      </trkpt>
      <trkpt lat="45.096450056880713" lon="7.342228833585978">
        <ele>901.29999999999995</ele>
        <time>2021-09-19T12:07:10Z</time>
      </trkpt>
      <trkpt lat="45.096504455432296" lon="7.342193797230721">
        <ele>901.26999999999998</ele>
        <time>2021-09-19T12:07:21Z</time>
      </trkpt>
      <trkpt lat="45.096486853435636" lon="7.342200754210353">
        <ele>901.51999999999998</ele>
        <time>2021-09-19T12:07:32Z</time>
      </trkpt>
      <trkpt lat="45.096460282802582" lon="7.342226570472121">
        <ele>901.40999999999997</ele>
        <time>2021-09-19T12:07:46Z</time>
      </trkpt>
      <trkpt lat="45.09642357006669" lon="7.342219110578299">
        <ele>901.38999999999999</ele>
        <time>2021-09-19T12:07:58Z</time>
      </trkpt>
      <trkpt lat="45.096326423808932" lon="7.342117186635733">
        <ele>901.55999999999995</ele>
        <time>2021-09-19T12:08:11Z</time>
      </trkpt>
      <trkpt lat="45.096254674717784" lon="7.341996654868126">
        <ele>902.76999999999998</ele>
        <time>2021-09-19T12:08:26Z</time>
      </trkpt>
      <trkpt lat="45.096247969195247" lon="7.341990284621716">
        <ele>902.47000000000003</ele>
        <time>2021-09-19T12:08:28Z</time>
      </trkpt>
      <trkpt lat="45.09618217125535" lon="7.341942843049765">
        <ele>901.22000000000003</ele>
        <time>2021-09-19T12:08:41Z</time>
      </trkpt>
      <trkpt lat="45.096173118799925" lon="7.341945273801684">
        <ele>900.32000000000005</ele>
        <time>2021-09-19T12:08:57Z</time>
      </trkpt>
      <trkpt lat="45.096156522631645" lon="7.341902861371636">
        <ele>899.55999999999995</ele>
        <time>2021-09-19T12:09:16Z</time>
      </trkpt>
      <trkpt lat="45.096160462126136" lon="7.341904789209366">
        <ele>899.78999999999996</ele>
        <time>2021-09-19T12:09:36Z</time>
      </trkpt>
      <trkpt lat="45.096159791573882" lon="7.341910488903523">
        <ele>899.58000000000004</ele>
        <time>2021-09-19T12:10:01Z</time>
      </trkpt>
      <trkpt lat="45.096156690269709" lon="7.341907052323222">
        <ele>899.14999999999998</ele>
        <time>2021-09-19T12:10:46Z</time>
      </trkpt>
      <trkpt lat="45.096159791573882" lon="7.34191820025444">
        <ele>899</ele>
        <time>2021-09-19T12:11:21Z</time>
      </trkpt>
      <trkpt lat="45.096159623935819" lon="7.341916188597679">
        <ele>898.38</ele>
        <time>2021-09-19T12:12:00Z</time>
      </trkpt>
      <trkpt lat="45.096164233982563" lon="7.341922139748931">
        <ele>898.26999999999998</ele>
        <time>2021-09-19T12:12:38Z</time>
      </trkpt>
      <trkpt lat="45.096162809059024" lon="7.341926665976644">
        <ele>898.84000000000003</ele>
        <time>2021-09-19T12:13:16Z</time>
      </trkpt>
      <trkpt lat="45.096150068566203" lon="7.341926833614707">
        <ele>898.08000000000004</ele>
        <time>2021-09-19T12:13:54Z</time>
      </trkpt>
      <trkpt lat="45.096137747168541" lon="7.3419254925102">
        <ele>898.00999999999999</ele>
        <time>2021-09-19T12:14:31Z</time>
      </trkpt>
      <trkpt lat="45.09613380767405" lon="7.34192356467247">
        <ele>898.88999999999999</ele>
        <time>2021-09-19T12:14:57Z</time>
      </trkpt>
      <trkpt lat="45.096129784360528" lon="7.34192356467247">
        <ele>899.27999999999997</ele>
        <time>2021-09-19T12:15:34Z</time>
      </trkpt>
      <trkpt lat="45.096129700541496" lon="7.34192649833858">
        <ele>898.23000000000002</ele>
        <time>2021-09-19T12:16:06Z</time>
      </trkpt>
      <trkpt lat="45.096128610894084" lon="7.341929683461785">
        <ele>898.52999999999997</ele>
        <time>2021-09-19T12:16:47Z</time>
      </trkpt>
      <trkpt lat="45.096133723855019" lon="7.341925408691168">
        <ele>897.50999999999999</ele>
        <time>2021-09-19T12:17:30Z</time>
      </trkpt>
      <trkpt lat="45.096141351386905" lon="7.341921301558614">
        <ele>896.99000000000001</ele>
        <time>2021-09-19T12:18:19Z</time>
      </trkpt>
      <trkpt lat="45.096136657521129" lon="7.341916775330901">
        <ele>897.47000000000003</ele>
        <time>2021-09-19T12:18:54Z</time>
      </trkpt>
      <trkpt lat="45.096139088273048" lon="7.341914093121886">
        <ele>898.13999999999999</ele>
        <time>2021-09-19T12:19:37Z</time>
      </trkpt>
      <trkpt lat="45.096144620329142" lon="7.341917613521218">
        <ele>898.25</ele>
        <time>2021-09-19T12:20:14Z</time>
      </trkpt>
      <trkpt lat="45.096154091879725" lon="7.341921050101519">
        <ele>897.47000000000003</ele>
        <time>2021-09-19T12:20:46Z</time>
      </trkpt>
      <trkpt lat="45.096141435205936" lon="7.341900346800685">
        <ele>898.12</ele>
        <time>2021-09-19T12:21:25Z</time>
      </trkpt>
      <trkpt lat="45.096137411892414" lon="7.341895150020719">
        <ele>898.45000000000005</ele>
        <time>2021-09-19T12:22:05Z</time>
      </trkpt>
      <trkpt lat="45.096139088273048" lon="7.341913338750601">
        <ele>898.01999999999998</ele>
        <time>2021-09-19T12:22:50Z</time>
      </trkpt>
      <trkpt lat="45.096140094101429" lon="7.341923648491502">
        <ele>897.50999999999999</ele>
        <time>2021-09-19T12:23:29Z</time>
      </trkpt>
      <trkpt lat="45.096145458519459" lon="7.341925827786326">
        <ele>899.30999999999995</ele>
        <time>2021-09-19T12:24:09Z</time>
      </trkpt>
      <trkpt lat="45.09614453651011" lon="7.341918954625726">
        <ele>898.90999999999997</ele>
        <time>2021-09-19T12:24:46Z</time>
      </trkpt>
      <trkpt lat="45.096147889271379" lon="7.341913841664791">
        <ele>897.03999999999996</ele>
        <time>2021-09-19T12:25:20Z</time>
      </trkpt>
      <trkpt lat="45.096150655299425" lon="7.341900933533907">
        <ele>897.02999999999997</ele>
        <time>2021-09-19T12:26:02Z</time>
      </trkpt>
      <trkpt lat="45.096155852079391" lon="7.34189766459167">
        <ele>896.85000000000002</ele>
        <time>2021-09-19T12:26:48Z</time>
      </trkpt>
      <trkpt lat="45.096152247861028" lon="7.341897329315543">
        <ele>897.64999999999998</ele>
        <time>2021-09-19T12:27:33Z</time>
      </trkpt>
      <trkpt lat="45.096147386357188" lon="7.341901604086161">
        <ele>897.52999999999997</ele>
        <time>2021-09-19T12:28:07Z</time>
      </trkpt>
      <trkpt lat="45.09614453651011" lon="7.341903615742922">
        <ele>896.84000000000003</ele>
        <time>2021-09-19T12:28:46Z</time>
      </trkpt>
      <trkpt lat="45.096139088273048" lon="7.341901520267129">
        <ele>896.34000000000003</ele>
        <time>2021-09-19T12:29:27Z</time>
      </trkpt>
      <trkpt lat="45.096136825159192" lon="7.341894563287497">
        <ele>896.16999999999996</ele>
        <time>2021-09-19T12:29:58Z</time>
      </trkpt>
      <trkpt lat="45.0961381662637" lon="7.341892803087831">
        <ele>896.38999999999999</ele>
        <time>2021-09-19T12:30:36Z</time>
      </trkpt>
      <trkpt lat="45.096143949776888" lon="7.341892048716545">
        <ele>896.48000000000002</ele>
        <time>2021-09-19T12:31:15Z</time>
      </trkpt>
      <trkpt lat="45.096145961433649" lon="7.341897832229734">
        <ele>897.15999999999997</ele>
        <time>2021-09-19T12:31:53Z</time>
      </trkpt>
      <trkpt lat="45.096144620329142" lon="7.341909902170301">
        <ele>895.58000000000004</ele>
        <time>2021-09-19T12:32:18Z</time>
      </trkpt>
      <trkpt lat="45.096144368872046" lon="7.341904621571302">
        <ele>897.10000000000002</ele>
        <time>2021-09-19T12:32:58Z</time>
      </trkpt>
      <trkpt lat="45.096150236204267" lon="7.341894311830401">
        <ele>896.50999999999999</ele>
        <time>2021-09-19T12:33:38Z</time>
      </trkpt>
      <trkpt lat="45.096149230375886" lon="7.341902442276478">
        <ele>898.21000000000004</ele>
        <time>2021-09-19T12:34:18Z</time>
      </trkpt>
      <trkpt lat="45.096151325851679" lon="7.341905375942588">
        <ele>898.38</ele>
        <time>2021-09-19T12:34:52Z</time>
      </trkpt>
      <trkpt lat="45.096170185133815" lon="7.34191526658833">
        <ele>898.88999999999999</ele>
        <time>2021-09-19T12:35:14Z</time>
      </trkpt>
      <trkpt lat="45.096170604228973" lon="7.341917362064123">
        <ele>898.69000000000005</ele>
        <time>2021-09-19T12:35:15Z</time>
      </trkpt>
      <trkpt lat="45.096160378307104" lon="7.341906381770968">
        <ele>897.75999999999999</ele>
        <time>2021-09-19T12:35:32Z</time>
      </trkpt>
      <trkpt lat="45.096156690269709" lon="7.341900849714875">
        <ele>897.35000000000002</ele>
        <time>2021-09-19T12:36:08Z</time>
      </trkpt>
      <trkpt lat="45.096153756603599" lon="7.34190059825778">
        <ele>898.53999999999996</ele>
        <time>2021-09-19T12:36:49Z</time>
      </trkpt>
      <trkpt lat="45.096148895099759" lon="7.341904370114207">
        <ele>897.45000000000005</ele>
        <time>2021-09-19T12:37:30Z</time>
      </trkpt>
      <trkpt lat="45.096140932291746" lon="7.34190545976162">
        <ele>896.50999999999999</ele>
        <time>2021-09-19T12:38:13Z</time>
      </trkpt>
      <trkpt lat="45.096142776310444" lon="7.341909231618047">
        <ele>897.53999999999996</ele>
        <time>2021-09-19T12:39:04Z</time>
      </trkpt>
      <trkpt lat="45.096149565652013" lon="7.341909063979983">
        <ele>897.01999999999998</ele>
        <time>2021-09-19T12:39:52Z</time>
      </trkpt>
      <trkpt lat="45.096164485439658" lon="7.341898335143924">
        <ele>897.16999999999996</ele>
        <time>2021-09-19T12:40:34Z</time>
      </trkpt>
      <trkpt lat="45.096164736896753" lon="7.341898754239082">
        <ele>893.41999999999996</ele>
        <time>2021-09-19T12:40:35Z</time>
      </trkpt>
      <trkpt lat="45.096164820715785" lon="7.341899424791336">
        <ele>897.32000000000005</ele>
        <time>2021-09-19T12:40:36Z</time>
      </trkpt>
      <trkpt lat="45.096163060516119" lon="7.341914344578981">
        <ele>896.69000000000005</ele>
        <time>2021-09-19T12:40:53Z</time>
      </trkpt>
      <trkpt lat="45.096152750775218" lon="7.34196019358933">
        <ele>897.84000000000003</ele>
        <time>2021-09-19T12:41:09Z</time>
      </trkpt>
      <trkpt lat="45.096098771318793" lon="7.341949716210365">
        <ele>896.46000000000004</ele>
        <time>2021-09-19T12:41:22Z</time>
      </trkpt>
      <trkpt lat="45.096111930906773" lon="7.341999169439077">
        <ele>896.94000000000005</ele>
        <time>2021-09-19T12:41:32Z</time>
      </trkpt>
      <trkpt lat="45.096096508204937" lon="7.341995229944587">
        <ele>896.36000000000001</ele>
        <time>2021-09-19T12:41:49Z</time>
      </trkpt>
      <trkpt lat="45.096094496548176" lon="7.341971676796675">
        <ele>897.90999999999997</ele>
        <time>2021-09-19T12:42:10Z</time>
      </trkpt>
      <trkpt lat="45.096092233434319" lon="7.341971090063453">
        <ele>896.42999999999995</ele>
        <time>2021-09-19T12:42:13Z</time>
      </trkpt>
      <trkpt lat="45.096092987805605" lon="7.341971760615706">
        <ele>897.46000000000004</ele>
        <time>2021-09-19T12:42:22Z</time>
      </trkpt>
      <trkpt lat="45.0960932392627" lon="7.34197435900569">
        <ele>896.88999999999999</ele>
        <time>2021-09-19T12:42:26Z</time>
      </trkpt>
      <trkpt lat="45.096094915643334" lon="7.341969246044755">
        <ele>896.15999999999997</ele>
        <time>2021-09-19T12:42:55Z</time>
      </trkpt>
      <trkpt lat="45.096094412729144" lon="7.341967988759279">
        <ele>897.11000000000001</ele>
        <time>2021-09-19T12:43:16Z</time>
      </trkpt>
      <trkpt lat="45.096088210120797" lon="7.341972347348929">
        <ele>898.34000000000003</ele>
        <time>2021-09-19T12:43:41Z</time>
      </trkpt>
      <trkpt lat="45.096086701378226" lon="7.341960864141583">
        <ele>898.14999999999998</ele>
        <time>2021-09-19T12:43:59Z</time>
      </trkpt>
      <trkpt lat="45.096088126301765" lon="7.34197000041604">
        <ele>897.25999999999999</ele>
        <time>2021-09-19T12:44:20Z</time>
      </trkpt>
      <trkpt lat="45.096090389415622" lon="7.341969329863787">
        <ele>897.37</ele>
        <time>2021-09-19T12:44:40Z</time>
      </trkpt>
      <trkpt lat="45.096091311424971" lon="7.3419582657516">
        <ele>897.54999999999995</ele>
        <time>2021-09-19T12:45:08Z</time>
      </trkpt>
      <trkpt lat="45.096092065796256" lon="7.341985339298844">
        <ele>894.75999999999999</ele>
        <time>2021-09-19T12:45:29Z</time>
      </trkpt>
      <trkpt lat="45.096097430214286" lon="7.341983830556274">
        <ele>896.66999999999996</ele>
        <time>2021-09-19T12:45:49Z</time>
      </trkpt>
      <trkpt lat="45.096105812117457" lon="7.341967234387994">
        <ele>896.59000000000003</ele>
        <time>2021-09-19T12:46:28Z</time>
      </trkpt>
      <trkpt lat="45.096099944785237" lon="7.341953907161951">
        <ele>896.76999999999998</ele>
        <time>2021-09-19T12:47:04Z</time>
      </trkpt>
      <trkpt lat="45.096094328910112" lon="7.341954745352268">
        <ele>897.50999999999999</ele>
        <time>2021-09-19T12:47:33Z</time>
      </trkpt>
      <trkpt lat="45.096103297546506" lon="7.34198366291821">
        <ele>897.13999999999999</ele>
        <time>2021-09-19T12:47:51Z</time>
      </trkpt>
      <trkpt lat="45.096095837652683" lon="7.341994056478143">
        <ele>896.58000000000004</ele>
        <time>2021-09-19T12:48:13Z</time>
      </trkpt>
      <trkpt lat="45.096093909814954" lon="7.341975197196007">
        <ele>896.96000000000004</ele>
        <time>2021-09-19T12:48:31Z</time>
      </trkpt>
      <trkpt lat="45.096095586195588" lon="7.341990703716874">
        <ele>895.38999999999999</ele>
        <time>2021-09-19T12:48:52Z</time>
      </trkpt>
      <trkpt lat="45.09609030559659" lon="7.341992715373635">
        <ele>895.54999999999995</ele>
        <time>2021-09-19T12:49:10Z</time>
      </trkpt>
      <trkpt lat="45.096090724691749" lon="7.34198659658432">
        <ele>895.05999999999995</ele>
        <time>2021-09-19T12:49:31Z</time>
      </trkpt>
      <trkpt lat="45.096095334738493" lon="7.341967234387994">
        <ele>894.78999999999996</ele>
        <time>2021-09-19T12:49:49Z</time>
      </trkpt>
      <trkpt lat="45.096111595630646" lon="7.341961869969964">
        <ele>893.46000000000004</ele>
        <time>2021-09-19T12:50:23Z</time>
      </trkpt>
      <trkpt lat="45.096112014725804" lon="7.341963797807694">
        <ele>895.64999999999998</ele>
        <time>2021-09-19T12:50:25Z</time>
      </trkpt>
      <trkpt lat="45.096087791025639" lon="7.341969329863787">
        <ele>893.80999999999995</ele>
        <time>2021-09-19T12:51:12Z</time>
      </trkpt>
      <trkpt lat="45.096083264797926" lon="7.341971760615706">
        <ele>893.88</ele>
        <time>2021-09-19T12:51:34Z</time>
      </trkpt>
      <trkpt lat="45.096075469627976" lon="7.341981483623385">
        <ele>894.39999999999998</ele>
        <time>2021-09-19T12:52:04Z</time>
      </trkpt>
      <trkpt lat="45.09610447101295" lon="7.341977376490831">
        <ele>894.37</ele>
        <time>2021-09-19T12:52:25Z</time>
      </trkpt>
      <trkpt lat="45.096126012504101" lon="7.341973520815373">
        <ele>894.13</ele>
        <time>2021-09-19T12:52:48Z</time>
      </trkpt>
      <trkpt lat="45.096130538731813" lon="7.341974610462785">
        <ele>894.28999999999996</ele>
        <time>2021-09-19T12:53:09Z</time>
      </trkpt>
      <trkpt lat="45.096134142950177" lon="7.341978466138244">
        <ele>894.41999999999996</ele>
        <time>2021-09-19T12:53:34Z</time>
      </trkpt>
      <trkpt lat="45.096128275617957" lon="7.341985506936908">
        <ele>893.92999999999995</ele>
        <time>2021-09-19T12:53:59Z</time>
      </trkpt>
      <trkpt lat="45.09612500667572" lon="7.341994056478143">
        <ele>894.57000000000005</ele>
        <time>2021-09-19T12:54:30Z</time>
      </trkpt>
      <trkpt lat="45.096109500154853" lon="7.342009479179978">
        <ele>893.69000000000005</ele>
        <time>2021-09-19T12:54:57Z</time>
      </trkpt>
      <trkpt lat="45.096106482669711" lon="7.342013418674469">
        <ele>893.89999999999998</ele>
        <time>2021-09-19T12:55:22Z</time>
      </trkpt>
      <trkpt lat="45.096109500154853" lon="7.342005120590329">
        <ele>893.88</ele>
        <time>2021-09-19T12:55:48Z</time>
      </trkpt>
      <trkpt lat="45.096107153221965" lon="7.342029344290495">
        <ele>893.03999999999996</ele>
        <time>2021-09-19T12:56:13Z</time>
      </trkpt>
      <trkpt lat="45.096102710813284" lon="7.34203546307981">
        <ele>893.29999999999995</ele>
        <time>2021-09-19T12:56:34Z</time>
      </trkpt>
      <trkpt lat="45.096103549003601" lon="7.342026829719544">
        <ele>894.07000000000005</ele>
        <time>2021-09-19T12:56:45Z</time>
      </trkpt>
      <trkpt lat="45.096115954220295" lon="7.34201735816896">
        <ele>892.87</ele>
        <time>2021-09-19T12:57:08Z</time>
      </trkpt>
      <trkpt lat="45.096113523468375" lon="7.342002019286156">
        <ele>892.00999999999999</ele>
        <time>2021-09-19T12:57:36Z</time>
      </trkpt>
      <trkpt lat="45.09611620567739" lon="7.342016268521547">
        <ele>893.26999999999998</ele>
        <time>2021-09-19T12:57:58Z</time>
      </trkpt>
      <trkpt lat="45.096120228990912" lon="7.341985087841749">
        <ele>893.25</ele>
        <time>2021-09-19T12:58:17Z</time>
      </trkpt>
      <trkpt lat="45.096118301153183" lon="7.341990200802684">
        <ele>893.10000000000002</ele>
        <time>2021-09-19T12:58:39Z</time>
      </trkpt>
      <trkpt lat="45.096114026382565" lon="7.341989111155272">
        <ele>893.53999999999996</ele>
        <time>2021-09-19T12:59:02Z</time>
      </trkpt>
      <trkpt lat="45.096117546781898" lon="7.341984501108527">
        <ele>893.05999999999995</ele>
        <time>2021-09-19T12:59:25Z</time>
      </trkpt>
      <trkpt lat="45.096113104373217" lon="7.341989614069462">
        <ele>892.87</ele>
        <time>2021-09-19T12:59:49Z</time>
      </trkpt>
      <trkpt lat="45.096117379143834" lon="7.342043174430728">
        <ele>892.28999999999996</ele>
        <time>2021-09-19T13:00:14Z</time>
      </trkpt>
      <trkpt lat="45.096118971705437" lon="7.342050466686487">
        <ele>893.62</ele>
        <time>2021-09-19T13:00:17Z</time>
      </trkpt>
      <trkpt lat="45.096114277839661" lon="7.342077037319541">
        <ele>892.97000000000003</ele>
        <time>2021-09-19T13:00:41Z</time>
      </trkpt>
      <trkpt lat="45.096120983362198" lon="7.34209505841136">
        <ele>893.13</ele>
        <time>2021-09-19T13:01:05Z</time>
      </trkpt>
      <trkpt lat="45.096126012504101" lon="7.34204719774425">
        <ele>893.22000000000003</ele>
        <time>2021-09-19T13:01:29Z</time>
      </trkpt>
      <trkpt lat="45.096128778532147" lon="7.341990787535906">
        <ele>893.74000000000001</ele>
        <time>2021-09-19T13:01:51Z</time>
      </trkpt>
      <trkpt lat="45.096126263961196" lon="7.341993134468794">
        <ele>894.23000000000002</ele>
        <time>2021-09-19T13:02:09Z</time>
      </trkpt>
      <trkpt lat="45.096125174313784" lon="7.341996906325221">
        <ele>894.14999999999998</ele>
        <time>2021-09-19T13:02:41Z</time>
      </trkpt>
      <trkpt lat="45.096125677227974" lon="7.342018950730562">
        <ele>894.17999999999995</ele>
        <time>2021-09-19T13:02:59Z</time>
      </trkpt>
      <trkpt lat="45.09612794034183" lon="7.342040240764618">
        <ele>893.45000000000005</ele>
        <time>2021-09-19T13:03:32Z</time>
      </trkpt>
      <trkpt lat="45.096131796017289" lon="7.342051137238741">
        <ele>892.90999999999997</ele>
        <time>2021-09-19T13:04:01Z</time>
      </trkpt>
      <trkpt lat="45.096138752996922" lon="7.342074690386653">
        <ele>893.57000000000005</ele>
        <time>2021-09-19T13:04:26Z</time>
      </trkpt>
      <trkpt lat="45.096142441034317" lon="7.342074355110526">
        <ele>893.07000000000005</ele>
        <time>2021-09-19T13:04:46Z</time>
      </trkpt>
      <trkpt lat="45.096149398013949" lon="7.342063626274467">
        <ele>893.52999999999997</ele>
        <time>2021-09-19T13:05:21Z</time>
      </trkpt>
      <trkpt lat="45.096147302538157" lon="7.342056166380644">
        <ele>893.46000000000004</ele>
        <time>2021-09-19T13:06:00Z</time>
      </trkpt>
      <trkpt lat="45.096148643642664" lon="7.34204669483006">
        <ele>892.94000000000005</ele>
        <time>2021-09-19T13:06:44Z</time>
      </trkpt>
      <trkpt lat="45.096150571480393" lon="7.342036888003349">
        <ele>892.23000000000002</ele>
        <time>2021-09-19T13:07:27Z</time>
      </trkpt>
      <trkpt lat="45.096149062737823" lon="7.342049460858107">
        <ele>892.13999999999999</ele>
        <time>2021-09-19T13:07:52Z</time>
      </trkpt>
      <trkpt lat="45.09615384042263" lon="7.342045269906521">
        <ele>892.54999999999995</ele>
        <time>2021-09-19T13:08:35Z</time>
      </trkpt>
      <trkpt lat="45.096151661127806" lon="7.342040073126555">
        <ele>891.49000000000001</ele>
        <time>2021-09-19T13:09:08Z</time>
      </trkpt>
      <trkpt lat="45.096152499318123" lon="7.342038899660111">
        <ele>891.48000000000002</ele>
        <time>2021-09-19T13:09:09Z</time>
      </trkpt>
      <trkpt lat="45.096141938120127" lon="7.342015514150262">
        <ele>892.25999999999999</ele>
        <time>2021-09-19T13:09:31Z</time>
      </trkpt>
      <trkpt lat="45.096133640035987" lon="7.34198709949851">
        <ele>892.55999999999995</ele>
        <time>2021-09-19T13:09:50Z</time>
      </trkpt>
      <trkpt lat="45.096154510974884" lon="7.341980477795005">
        <ele>892.36000000000001</ele>
        <time>2021-09-19T13:10:08Z</time>
      </trkpt>
      <trkpt lat="45.096151409670711" lon="7.341932030394673">
        <ele>892.14999999999998</ele>
        <time>2021-09-19T13:10:20Z</time>
      </trkpt>
      <trkpt lat="45.096201365813613" lon="7.341902861371636">
        <ele>891.48000000000002</ele>
        <time>2021-09-19T13:10:36Z</time>
      </trkpt>
      <trkpt lat="45.096200779080391" lon="7.341905795037746">
        <ele>891.10000000000002</ele>
        <time>2021-09-19T13:10:59Z</time>
      </trkpt>
      <trkpt lat="45.09620220400393" lon="7.34193429350853">
        <ele>891.92999999999995</ele>
        <time>2021-09-19T13:11:15Z</time>
      </trkpt>
      <trkpt lat="45.096204970031977" lon="7.341927671805024">
        <ele>891.20000000000005</ele>
        <time>2021-09-19T13:12:00Z</time>
      </trkpt>
      <trkpt lat="45.096203126013279" lon="7.34192356467247">
        <ele>891.19000000000005</ele>
        <time>2021-09-19T13:12:59Z</time>
      </trkpt>
      <trkpt lat="45.096202874556184" lon="7.341931276023388">
        <ele>891.30999999999995</ele>
        <time>2021-09-19T13:13:45Z</time>
      </trkpt>
      <trkpt lat="45.096211759373546" lon="7.341929683461785">
        <ele>891.19000000000005</ele>
        <time>2021-09-19T13:14:25Z</time>
      </trkpt>
      <trkpt lat="45.096215950325131" lon="7.341938065364957">
        <ele>891.60000000000002</ele>
        <time>2021-09-19T13:15:18Z</time>
      </trkpt>
      <trkpt lat="45.096215195953846" lon="7.341939993202686">
        <ele>890.79999999999995</ele>
        <time>2021-09-19T13:15:26Z</time>
      </trkpt>
      <trkpt lat="45.096202287822962" lon="7.34193823300302">
        <ele>890.92999999999995</ele>
        <time>2021-09-19T13:16:16Z</time>
      </trkpt>
      <trkpt lat="45.096195749938488" lon="7.341934125870466">
        <ele>890.88</ele>
        <time>2021-09-19T13:17:01Z</time>
      </trkpt>
      <trkpt lat="45.096198432147503" lon="7.341936221346259">
        <ele>889.98000000000002</ele>
        <time>2021-09-19T13:17:52Z</time>
      </trkpt>
      <trkpt lat="45.096204048022628" lon="7.341935131698847">
        <ele>889.58000000000004</ele>
        <time>2021-09-19T13:18:43Z</time>
      </trkpt>
      <trkpt lat="45.096203712746501" lon="7.341929683461785">
        <ele>889.95000000000005</ele>
        <time>2021-09-19T13:19:33Z</time>
      </trkpt>
      <trkpt lat="45.09619927033782" lon="7.34193722717464">
        <ele>889.37</ele>
        <time>2021-09-19T13:20:17Z</time>
      </trkpt>
      <trkpt lat="45.096195163205266" lon="7.341936305165291">
        <ele>889.20000000000005</ele>
        <time>2021-09-19T13:21:02Z</time>
      </trkpt>
      <trkpt lat="45.096174040809274" lon="7.341934377327561">
        <ele>889.66999999999996</ele>
        <time>2021-09-19T13:21:45Z</time>
      </trkpt>
      <trkpt lat="45.096156019717455" lon="7.341935383155942">
        <ele>889.11000000000001</ele>
        <time>2021-09-19T13:22:19Z</time>
      </trkpt>
      <trkpt lat="45.096155852079391" lon="7.341936640441418">
        <ele>889.79999999999995</ele>
        <time>2021-09-19T13:22:21Z</time>
      </trkpt>
      <trkpt lat="45.096154510974884" lon="7.341938652098179">
        <ele>889.46000000000004</ele>
        <time>2021-09-19T13:22:41Z</time>
      </trkpt>
      <trkpt lat="45.09615870192647" lon="7.341940412297845">
        <ele>891.97000000000003</ele>
        <time>2021-09-19T13:22:50Z</time>
      </trkpt>
      <trkpt lat="45.096136908978224" lon="7.34193773008883">
        <ele>890.21000000000004</ele>
        <time>2021-09-19T13:23:06Z</time>
      </trkpt>
      <trkpt lat="45.096133975312114" lon="7.341927671805024">
        <ele>891.20000000000005</ele>
        <time>2021-09-19T13:23:20Z</time>
      </trkpt>
      <trkpt lat="45.096126180142164" lon="7.341927336528897">
        <ele>890.33000000000004</ele>
        <time>2021-09-19T13:23:36Z</time>
      </trkpt>
      <trkpt lat="45.0961225759238" lon="7.341931946575642">
        <ele>889.91999999999996</ele>
        <time>2021-09-19T13:23:52Z</time>
      </trkpt>
      <trkpt lat="45.096127605065703" lon="7.341922223567963">
        <ele>890.22000000000003</ele>
        <time>2021-09-19T13:24:10Z</time>
      </trkpt>
      <trkpt lat="45.096122492104769" lon="7.341905040666461">
        <ele>890.04999999999995</ele>
        <time>2021-09-19T13:24:29Z</time>
      </trkpt>
      <trkpt lat="45.096126263961196" lon="7.341899257153273">
        <ele>890.07000000000005</ele>
        <time>2021-09-19T13:24:50Z</time>
      </trkpt>
      <trkpt lat="45.09611377492547" lon="7.341904118657112">
        <ele>890.19000000000005</ele>
        <time>2021-09-19T13:25:10Z</time>
      </trkpt>
      <trkpt lat="45.096104806289077" lon="7.341919792816043">
        <ele>889.21000000000004</ele>
        <time>2021-09-19T13:25:21Z</time>
      </trkpt>
      <trkpt lat="45.096100782975554" lon="7.341932952404022">
        <ele>889.91999999999996</ele>
        <time>2021-09-19T13:25:37Z</time>
      </trkpt>
      <trkpt lat="45.09610740467906" lon="7.341951727867127">
        <ele>890.49000000000001</ele>
        <time>2021-09-19T13:25:52Z</time>
      </trkpt>
      <trkpt lat="45.096109919250011" lon="7.341956589370966">
        <ele>890.45000000000005</ele>
        <time>2021-09-19T13:26:13Z</time>
      </trkpt>
      <trkpt lat="45.096105812117457" lon="7.341960277408361">
        <ele>890.20000000000005</ele>
        <time>2021-09-19T13:26:41Z</time>
      </trkpt>
      <trkpt lat="45.096108661964536" lon="7.341963462531567">
        <ele>890</ele>
        <time>2021-09-19T13:26:59Z</time>
      </trkpt>
      <trkpt lat="45.096115451306105" lon="7.341912249103189">
        <ele>889.97000000000003</ele>
        <time>2021-09-19T13:27:11Z</time>
      </trkpt>
      <trkpt lat="45.096109919250011" lon="7.341933371499181">
        <ele>889.71000000000004</ele>
        <time>2021-09-19T13:27:24Z</time>
      </trkpt>
      <trkpt lat="45.096118720248342" lon="7.341930018737912">
        <ele>889.55999999999995</ele>
        <time>2021-09-19T13:27:37Z</time>
      </trkpt>
      <trkpt lat="45.09612106718123" lon="7.341928342357278">
        <ele>889.91999999999996</ele>
        <time>2021-09-19T13:27:55Z</time>
      </trkpt>
      <trkpt lat="45.096118804067373" lon="7.341923648491502">
        <ele>889.02999999999997</ele>
        <time>2021-09-19T13:28:11Z</time>
      </trkpt>
      <trkpt lat="45.096127353608608" lon="7.341914176940918">
        <ele>889.73000000000002</ele>
        <time>2021-09-19T13:28:26Z</time>
      </trkpt>
      <trkpt lat="45.096130706369877" lon="7.341910153627396">
        <ele>888.75999999999999</ele>
        <time>2021-09-19T13:28:45Z</time>
      </trkpt>
      <trkpt lat="45.096119977533817" lon="7.341909566894174">
        <ele>888.62</ele>
        <time>2021-09-19T13:29:06Z</time>
      </trkpt>
      <trkpt lat="45.096112601459026" lon="7.341923983767629">
        <ele>887.99000000000001</ele>
        <time>2021-09-19T13:29:26Z</time>
      </trkpt>
      <trkpt lat="45.096103213727474" lon="7.34192012809217">
        <ele>887.92999999999995</ele>
        <time>2021-09-19T13:29:43Z</time>
      </trkpt>
      <trkpt lat="45.096108326688409" lon="7.341919876635075">
        <ele>888.16999999999996</ele>
        <time>2021-09-19T13:30:01Z</time>
      </trkpt>
      <trkpt lat="45.096107572317123" lon="7.341929012909532">
        <ele>888.21000000000004</ele>
        <time>2021-09-19T13:30:19Z</time>
      </trkpt>
      <trkpt lat="45.09610497392714" lon="7.341937059536576">
        <ele>888.54999999999995</ele>
        <time>2021-09-19T13:30:36Z</time>
      </trkpt>
      <trkpt lat="45.096103046089411" lon="7.341941418126226">
        <ele>888.78999999999996</ele>
        <time>2021-09-19T13:31:22Z</time>
      </trkpt>
      <trkpt lat="45.096098855137825" lon="7.341939993202686">
        <ele>888.78999999999996</ele>
        <time>2021-09-19T13:31:42Z</time>
      </trkpt>
      <trkpt lat="45.096103129908442" lon="7.341944267973304">
        <ele>890.59000000000003</ele>
        <time>2021-09-19T13:32:07Z</time>
      </trkpt>
      <trkpt lat="45.096119809895754" lon="7.341936640441418">
        <ele>889.84000000000003</ele>
        <time>2021-09-19T13:32:23Z</time>
      </trkpt>
      <trkpt lat="45.096149230375886" lon="7.34196413308382">
        <ele>889.08000000000004</ele>
        <time>2021-09-19T13:32:34Z</time>
      </trkpt>
      <trkpt lat="45.096182590350509" lon="7.342025823891163">
        <ele>890.44000000000005</ele>
        <time>2021-09-19T13:32:41Z</time>
      </trkpt>
      <trkpt lat="45.0962486397475" lon="7.342109307646751">
        <ele>889.61000000000001</ele>
        <time>2021-09-19T13:32:52Z</time>
      </trkpt>
      <trkpt lat="45.096311252564192" lon="7.342143589630723">
        <ele>888.30999999999995</ele>
        <time>2021-09-19T13:33:00Z</time>
      </trkpt>
      <trkpt lat="45.096391718834639" lon="7.342237969860435">
        <ele>888.38</ele>
        <time>2021-09-19T13:33:13Z</time>
      </trkpt>
      <trkpt lat="45.096392221748829" lon="7.34225238673389">
        <ele>887.30999999999995</ele>
        <time>2021-09-19T13:33:27Z</time>
      </trkpt>
      <trkpt lat="45.096405800431967" lon="7.342282896861434">
        <ele>887.78999999999996</ele>
        <time>2021-09-19T13:33:42Z</time>
      </trkpt>
      <trkpt lat="45.096399011090398" lon="7.342276694253087">
        <ele>887.41999999999996</ele>
        <time>2021-09-19T13:34:07Z</time>
      </trkpt>
      <trkpt lat="45.096398927271366" lon="7.342273676767945">
        <ele>888.03999999999996</ele>
        <time>2021-09-19T13:34:32Z</time>
      </trkpt>
      <trkpt lat="45.096389455720782" lon="7.342280298471451">
        <ele>887.66999999999996</ele>
        <time>2021-09-19T13:34:37Z</time>
      </trkpt>
      <trkpt lat="45.096342181786895" lon="7.342293206602335">
        <ele>886.61000000000001</ele>
        <time>2021-09-19T13:34:42Z</time>
      </trkpt>
      <trkpt lat="45.096313850954175" lon="7.342336541041732">
        <ele>884.72000000000003</ele>
        <time>2021-09-19T13:34:48Z</time>
      </trkpt>
      <trkpt lat="45.096331955865026" lon="7.342365542426705">
        <ele>884.69000000000005</ele>
        <time>2021-09-19T13:34:51Z</time>
      </trkpt>
      <trkpt lat="45.096327848732471" lon="7.34239605255425">
        <ele>883.34000000000003</ele>
        <time>2021-09-19T13:34:54Z</time>
      </trkpt>
      <trkpt lat="45.096231875941157" lon="7.342431088909507">
        <ele>879.75</ele>
        <time>2021-09-19T13:35:03Z</time>
      </trkpt>
      <trkpt lat="45.096200108528137" lon="7.342491941526532">
        <ele>877.25999999999999</ele>
        <time>2021-09-19T13:35:08Z</time>
      </trkpt>
      <trkpt lat="45.096152247861028" lon="7.342530498281121">
        <ele>874.83000000000004</ele>
        <time>2021-09-19T13:35:13Z</time>
      </trkpt>
      <trkpt lat="45.096101118251681" lon="7.342641223222017">
        <ele>871.37</ele>
        <time>2021-09-19T13:35:22Z</time>
      </trkpt>
      <trkpt lat="45.096076056361198" lon="7.342682965099812">
        <ele>869.34000000000003</ele>
        <time>2021-09-19T13:35:26Z</time>
      </trkpt>
      <trkpt lat="45.096043450757861" lon="7.342734010890126">
        <ele>866.86000000000001</ele>
        <time>2021-09-19T13:35:36Z</time>
      </trkpt>
      <trkpt lat="45.096054263412952" lon="7.342740381136537">
        <ele>866.63999999999999</ele>
        <time>2021-09-19T13:35:37Z</time>
      </trkpt>
      <trkpt lat="45.096116960048676" lon="7.342784134671092">
        <ele>864.12</ele>
        <time>2021-09-19T13:35:44Z</time>
      </trkpt>
      <trkpt lat="45.096174459904432" lon="7.342829732224345">
        <ele>862.63999999999999</ele>
        <time>2021-09-19T13:35:50Z</time>
      </trkpt>
      <trkpt lat="45.096317958086729" lon="7.342912629246712">
        <ele>860.38999999999999</ele>
        <time>2021-09-19T13:36:01Z</time>
      </trkpt>
      <trkpt lat="45.096363807097077" lon="7.342943977564573">
        <ele>859.87</ele>
        <time>2021-09-19T13:36:06Z</time>
      </trkpt>
      <trkpt lat="45.096469335258007" lon="7.34305277466774">
        <ele>857.34000000000003</ele>
        <time>2021-09-19T13:36:18Z</time>
      </trkpt>
      <trkpt lat="45.096619371324778" lon="7.343167942017317">
        <ele>854.27999999999997</ele>
        <time>2021-09-19T13:36:33Z</time>
      </trkpt>
      <trkpt lat="45.096730682998896" lon="7.343280762434006">
        <ele>851.26999999999998</ele>
        <time>2021-09-19T13:36:44Z</time>
      </trkpt>
      <trkpt lat="45.096764042973518" lon="7.343373550102115">
        <ele>846.88999999999999</ele>
        <time>2021-09-19T13:36:55Z</time>
      </trkpt>
      <trkpt lat="45.09677292779088" lon="7.343412358313799">
        <ele>847.57000000000005</ele>
        <time>2021-09-19T13:37:03Z</time>
      </trkpt>
      <trkpt lat="45.096774017438293" lon="7.343508414924145">
        <ele>844.54999999999995</ele>
        <time>2021-09-19T13:37:16Z</time>
      </trkpt>
      <trkpt lat="45.096774604171515" lon="7.343514198437333">
        <ele>844.47000000000003</ele>
        <time>2021-09-19T13:37:35Z</time>
      </trkpt>
      <trkpt lat="45.096790613606572" lon="7.34356683678925">
        <ele>842.63999999999999</ele>
        <time>2021-09-19T13:37:49Z</time>
      </trkpt>
      <trkpt lat="45.096791451796889" lon="7.343593658879399">
        <ele>841.75</ele>
        <time>2021-09-19T13:37:52Z</time>
      </trkpt>
      <trkpt lat="45.096843503415585" lon="7.343653086572886">
        <ele>841.5</ele>
        <time>2021-09-19T13:38:01Z</time>
      </trkpt>
      <trkpt lat="45.09684132412076" lon="7.343712095171213">
        <ele>841.13999999999999</ele>
        <time>2021-09-19T13:38:13Z</time>
      </trkpt>
      <trkpt lat="45.096787344664335" lon="7.343809492886066">
        <ele>838.38999999999999</ele>
        <time>2021-09-19T13:38:23Z</time>
      </trkpt>
      <trkpt lat="45.096840737387538" lon="7.343907309696078">
        <ele>838.35000000000002</ele>
        <time>2021-09-19T13:38:32Z</time>
      </trkpt>
      <trkpt lat="45.096878120675683" lon="7.344015603885055">
        <ele>838.92999999999995</ele>
        <time>2021-09-19T13:38:45Z</time>
      </trkpt>
      <trkpt lat="45.096849370747805" lon="7.344102105125785">
        <ele>836.98000000000002</ele>
        <time>2021-09-19T13:38:56Z</time>
      </trkpt>
      <trkpt lat="45.096856663003564" lon="7.344235377386212">
        <ele>834.23000000000002</ele>
        <time>2021-09-19T13:39:09Z</time>
      </trkpt>
      <trkpt lat="45.096876947209239" lon="7.344338474795222">
        <ele>831.16999999999996</ele>
        <time>2021-09-19T13:39:19Z</time>
      </trkpt>
      <trkpt lat="45.096889352425933" lon="7.344419276341796">
        <ele>829.5</ele>
        <time>2021-09-19T13:39:25Z</time>
      </trkpt>
      <trkpt lat="45.09696152061224" lon="7.344504939392209">
        <ele>827.77999999999997</ele>
        <time>2021-09-19T13:39:34Z</time>
      </trkpt>
      <trkpt lat="45.097050536423922" lon="7.344616753980517">
        <ele>825.05999999999995</ele>
        <time>2021-09-19T13:39:47Z</time>
      </trkpt>
      <trkpt lat="45.097091104835272" lon="7.344785900786519">
        <ele>821.90999999999997</ele>
        <time>2021-09-19T13:40:00Z</time>
      </trkpt>
      <trkpt lat="45.097101582214236" lon="7.344903331249952">
        <ele>819.19000000000005</ele>
        <time>2021-09-19T13:40:15Z</time>
      </trkpt>
      <trkpt lat="45.097086243331432" lon="7.34502051025629">
        <ele>815.89999999999998</ele>
        <time>2021-09-19T13:40:27Z</time>
      </trkpt>
      <trkpt lat="45.09707341901958" lon="7.34511723741889">
        <ele>812.78999999999996</ele>
        <time>2021-09-19T13:40:38Z</time>
      </trkpt>
      <trkpt lat="45.097051626071334" lon="7.345297615975142">
        <ele>809.65999999999997</ele>
        <time>2021-09-19T13:40:53Z</time>
      </trkpt>
      <trkpt lat="45.09701089002192" lon="7.345439773052931">
        <ele>807.00999999999999</ele>
        <time>2021-09-19T13:41:05Z</time>
      </trkpt>
      <trkpt lat="45.096946181729436" lon="7.345585366711021">
        <ele>804</ele>
        <time>2021-09-19T13:41:19Z</time>
      </trkpt>
      <trkpt lat="45.096885496750474" lon="7.345655942335725">
        <ele>801.76999999999998</ele>
        <time>2021-09-19T13:41:30Z</time>
      </trkpt>
      <trkpt lat="45.096791451796889" lon="7.345689972862601">
        <ele>799.28999999999996</ele>
        <time>2021-09-19T13:41:42Z</time>
      </trkpt>
      <trkpt lat="45.096742333844304" lon="7.345750825479627">
        <ele>797.63999999999999</ele>
        <time>2021-09-19T13:41:54Z</time>
      </trkpt>
      <trkpt lat="45.096696149557829" lon="7.345753842964768">
        <ele>796.19000000000005</ele>
        <time>2021-09-19T13:42:09Z</time>
      </trkpt>
      <trkpt lat="45.096656419336796" lon="7.345862053334713">
        <ele>792.98000000000002</ele>
        <time>2021-09-19T13:42:23Z</time>
      </trkpt>
      <trkpt lat="45.096585592254996" lon="7.345889713615179">
        <ele>790.58000000000004</ele>
        <time>2021-09-19T13:42:38Z</time>
      </trkpt>
      <trkpt lat="45.096535971388221" lon="7.345931958407164">
        <ele>788.11000000000001</ele>
        <time>2021-09-19T13:42:50Z</time>
      </trkpt>
      <trkpt lat="45.096537983044982" lon="7.346035307273269">
        <ele>785.70000000000005</ele>
        <time>2021-09-19T13:43:02Z</time>
      </trkpt>
      <trkpt lat="45.096521973609924" lon="7.346075288951397">
        <ele>784.49000000000001</ele>
        <time>2021-09-19T13:43:09Z</time>
      </trkpt>
      <trkpt lat="45.09647193364799" lon="7.346161035820842">
        <ele>781.01999999999998</ele>
        <time>2021-09-19T13:43:21Z</time>
      </trkpt>
      <trkpt lat="45.096495402976871" lon="7.346243094652891">
        <ele>778.30999999999995</ele>
        <time>2021-09-19T13:43:33Z</time>
      </trkpt>
      <trkpt lat="45.096449553966522" lon="7.34629875048995">
        <ele>775.20000000000005</ele>
        <time>2021-09-19T13:43:43Z</time>
      </trkpt>
      <trkpt lat="45.096441004425287" lon="7.346295146271586">
        <ele>775.03999999999996</ele>
        <time>2021-09-19T13:43:44Z</time>
      </trkpt>
      <trkpt lat="45.096335476264358" lon="7.346305288374424">
        <ele>772.42999999999995</ele>
        <time>2021-09-19T13:43:56Z</time>
      </trkpt>
      <trkpt lat="45.096300859004259" lon="7.346230857074261">
        <ele>769.49000000000001</ele>
        <time>2021-09-19T13:44:09Z</time>
      </trkpt>
      <trkpt lat="45.096235563978553" lon="7.346210656687617">
        <ele>767.37</ele>
        <time>2021-09-19T13:44:22Z</time>
      </trkpt>
      <trkpt lat="45.096209496259689" lon="7.346181320026517">
        <ele>766.30999999999995</ele>
        <time>2021-09-19T13:44:28Z</time>
      </trkpt>
      <trkpt lat="45.096188625320792" lon="7.3461804818362">
        <ele>765.48000000000002</ele>
        <time>2021-09-19T13:44:36Z</time>
      </trkpt>
      <trkpt lat="45.096199857071042" lon="7.346249129623175">
        <ele>765.22000000000003</ele>
        <time>2021-09-19T13:44:41Z</time>
      </trkpt>
      <trkpt lat="45.096200779080391" lon="7.34634124673903">
        <ele>764.54999999999995</ele>
        <time>2021-09-19T13:44:48Z</time>
      </trkpt>
      <trkpt lat="45.096197342500091" lon="7.346370918676257">
        <ele>764.58000000000004</ele>
        <time>2021-09-19T13:44:50Z</time>
      </trkpt>
      <trkpt lat="45.096171274781227" lon="7.346424898132682">
        <ele>763.57000000000005</ele>
        <time>2021-09-19T13:44:55Z</time>
      </trkpt>
      <trkpt lat="45.0961381662637" lon="7.346474351361394">
        <ele>762.07000000000005</ele>
        <time>2021-09-19T13:44:59Z</time>
      </trkpt>
      <trkpt lat="45.096062645316124" lon="7.346608294174075">
        <ele>759.51999999999998</ele>
        <time>2021-09-19T13:45:12Z</time>
      </trkpt>
      <trkpt lat="45.09605560451746" lon="7.34661877155304">
        <ele>759.36000000000001</ele>
        <time>2021-09-19T13:45:13Z</time>
      </trkpt>
      <trkpt lat="45.096041774377227" lon="7.346667302772403">
        <ele>758.75</ele>
        <time>2021-09-19T13:45:16Z</time>
      </trkpt>
      <trkpt lat="45.095947477966547" lon="7.346855895593762">
        <ele>755.72000000000003</ele>
        <time>2021-09-19T13:45:31Z</time>
      </trkpt>
      <trkpt lat="45.095905987545848" lon="7.34695496968925">
        <ele>753.39999999999998</ele>
        <time>2021-09-19T13:45:41Z</time>
      </trkpt>
      <trkpt lat="45.095858545973897" lon="7.347078267484903">
        <ele>750.33000000000004</ele>
        <time>2021-09-19T13:45:53Z</time>
      </trkpt>
      <trkpt lat="45.095780845731497" lon="7.347294436767697">
        <ele>746.87</ele>
        <time>2021-09-19T13:46:06Z</time>
      </trkpt>
      <trkpt lat="45.095697613433003" lon="7.347486214712262">
        <ele>743.77999999999997</ele>
        <time>2021-09-19T13:46:19Z</time>
      </trkpt>
      <trkpt lat="45.095672132447362" lon="7.347574476152659">
        <ele>742.78999999999996</ele>
        <time>2021-09-19T13:46:26Z</time>
      </trkpt>
      <trkpt lat="45.095766093581915" lon="7.347656283527613">
        <ele>742.28999999999996</ele>
        <time>2021-09-19T13:46:37Z</time>
      </trkpt>
      <trkpt lat="45.095804650336504" lon="7.347661480307579">
        <ele>741.05999999999995</ele>
        <time>2021-09-19T13:46:42Z</time>
      </trkpt>
      <trkpt lat="45.096014449372888" lon="7.347670281305909">
        <ele>738.61000000000001</ele>
        <time>2021-09-19T13:46:57Z</time>
      </trkpt>
      <trkpt lat="45.096099777147174" lon="7.34765661880374">
        <ele>736.40999999999997</ele>
        <time>2021-09-19T13:47:07Z</time>
      </trkpt>
      <trkpt lat="45.096140513196588" lon="7.347642369568348">
        <ele>735.21000000000004</ele>
        <time>2021-09-19T13:47:11Z</time>
      </trkpt>
      <trkpt lat="45.096181500703096" lon="7.347640106454492">
        <ele>734.54999999999995</ele>
        <time>2021-09-19T13:47:13Z</time>
      </trkpt>
      <trkpt lat="45.096257608383894" lon="7.347645638510585">
        <ele>732.76999999999998</ele>
        <time>2021-09-19T13:47:21Z</time>
      </trkpt>
      <trkpt lat="45.096192648634315" lon="7.347744209691882">
        <ele>729.69000000000005</ele>
        <time>2021-09-19T13:47:31Z</time>
      </trkpt>
      <trkpt lat="45.096186613664031" lon="7.347759297117591">
        <ele>729.51999999999998</ele>
        <time>2021-09-19T13:47:32Z</time>
      </trkpt>
      <trkpt lat="45.096157444640994" lon="7.347840182483196">
        <ele>727.96000000000004</ele>
        <time>2021-09-19T13:47:37Z</time>
      </trkpt>
      <trkpt lat="45.096127772703767" lon="7.347902208566666">
        <ele>727.09000000000003</ele>
        <time>2021-09-19T13:47:42Z</time>
      </trkpt>
      <trkpt lat="45.096084605902433" lon="7.34796741977334">
        <ele>726.28999999999996</ele>
        <time>2021-09-19T13:47:47Z</time>
      </trkpt>
      <trkpt lat="45.095983939245343" lon="7.34809105284512">
        <ele>724.64999999999998</ele>
        <time>2021-09-19T13:47:58Z</time>
      </trkpt>
      <trkpt lat="45.095875896513462" lon="7.3481853492558">
        <ele>722.79999999999995</ele>
        <time>2021-09-19T13:48:08Z</time>
      </trkpt>
      <trkpt lat="45.095832562074065" lon="7.348261792212725">
        <ele>721.46000000000004</ele>
        <time>2021-09-19T13:48:12Z</time>
      </trkpt>
      <trkpt lat="45.095736254006624" lon="7.348376791924238">
        <ele>719.53999999999996</ele>
        <time>2021-09-19T13:48:21Z</time>
      </trkpt>
      <trkpt lat="45.095726614817977" lon="7.348388526588678">
        <ele>719.35000000000002</ele>
        <time>2021-09-19T13:48:22Z</time>
      </trkpt>
      <trkpt lat="45.095690824091434" lon="7.348422724753618">
        <ele>718.76999999999998</ele>
        <time>2021-09-19T13:48:25Z</time>
      </trkpt>
      <trkpt lat="45.09557775221765" lon="7.348582483828068">
        <ele>715.79999999999995</ele>
        <time>2021-09-19T13:48:36Z</time>
      </trkpt>
      <trkpt lat="45.095594683662057" lon="7.348628249019384">
        <ele>714.51999999999998</ele>
        <time>2021-09-19T13:48:40Z</time>
      </trkpt>
      <trkpt lat="45.09570524096489" lon="7.348655993118882">
        <ele>711</ele>
        <time>2021-09-19T13:48:50Z</time>
      </trkpt>
      <trkpt lat="45.09573214687407" lon="7.34867786988616">
        <ele>709.72000000000003</ele>
        <time>2021-09-19T13:48:54Z</time>
      </trkpt>
      <trkpt lat="45.095827700570226" lon="7.348668649792671">
        <ele>706.16999999999996</ele>
        <time>2021-09-19T13:49:04Z</time>
      </trkpt>
      <trkpt lat="45.095906322821975" lon="7.348658842965961">
        <ele>703.16999999999996</ele>
        <time>2021-09-19T13:49:14Z</time>
      </trkpt>
      <trkpt lat="45.095929624512792" lon="7.348656663671136">
        <ele>702.39999999999998</ele>
        <time>2021-09-19T13:49:17Z</time>
      </trkpt>
      <trkpt lat="45.096009420230985" lon="7.348665883764625">
        <ele>700.88</ele>
        <time>2021-09-19T13:49:24Z</time>
      </trkpt>
      <trkpt lat="45.096122659742832" lon="7.348655238747597">
        <ele>699.38</ele>
        <time>2021-09-19T13:49:36Z</time>
      </trkpt>
      <trkpt lat="45.096235815435648" lon="7.348599247634411">
        <ele>697.67999999999995</ele>
        <time>2021-09-19T13:49:50Z</time>
      </trkpt>
      <trkpt lat="45.09636833332479" lon="7.348546274006367">
        <ele>694.44000000000005</ele>
        <time>2021-09-19T13:50:02Z</time>
      </trkpt>
      <trkpt lat="45.09640546515584" lon="7.348534874618053">
        <ele>693.12</ele>
        <time>2021-09-19T13:50:05Z</time>
      </trkpt>
      <trkpt lat="45.096499845385551" lon="7.348511824384332">
        <ele>690.08000000000004</ele>
        <time>2021-09-19T13:50:14Z</time>
      </trkpt>
      <trkpt lat="45.096504623070359" lon="7.348573515191674">
        <ele>687.99000000000001</ele>
        <time>2021-09-19T13:50:23Z</time>
      </trkpt>
      <trkpt lat="45.096565140411258" lon="7.34862263314426">
        <ele>685.44000000000005</ele>
        <time>2021-09-19T13:50:35Z</time>
      </trkpt>
      <trkpt lat="45.096698747947812" lon="7.348621543496847">
        <ele>682.35000000000002</ele>
        <time>2021-09-19T13:50:46Z</time>
      </trkpt>
      <trkpt lat="45.096848784014583" lon="7.348595978692174">
        <ele>679.09000000000003</ele>
        <time>2021-09-19T13:50:59Z</time>
      </trkpt>
      <trkpt lat="45.097006699070334" lon="7.34858407638967">
        <ele>675.96000000000004</ele>
        <time>2021-09-19T13:51:13Z</time>
      </trkpt>
      <trkpt lat="45.097124883905053" lon="7.348585836589336">
        <ele>672.88</ele>
        <time>2021-09-19T13:51:24Z</time>
      </trkpt>
      <trkpt lat="45.097246840596199" lon="7.348571084439755">
        <ele>670.5</ele>
        <time>2021-09-19T13:51:36Z</time>
      </trkpt>
      <trkpt lat="45.097271986305714" lon="7.348583489656448">
        <ele>669.92999999999995</ele>
        <time>2021-09-19T13:51:38Z</time>
      </trkpt>
      <trkpt lat="45.09727475233376" lon="7.348607713356614">
        <ele>668.94000000000005</ele>
        <time>2021-09-19T13:51:42Z</time>
      </trkpt>
      <trkpt lat="45.097207445651293" lon="7.348677031695843">
        <ele>667.27999999999997</ele>
        <time>2021-09-19T13:51:48Z</time>
      </trkpt>
      <trkpt lat="45.097100911661983" lon="7.348802257329226">
        <ele>663.74000000000001</ele>
        <time>2021-09-19T13:52:00Z</time>
      </trkpt>
      <trkpt lat="45.09708222001791" lon="7.34882103279233">
        <ele>663.42999999999995</ele>
        <time>2021-09-19T13:52:02Z</time>
      </trkpt>
      <trkpt lat="45.096961939707398" lon="7.348935529589653">
        <ele>659.88999999999999</ele>
        <time>2021-09-19T13:52:15Z</time>
      </trkpt>
      <trkpt lat="45.096850041300058" lon="7.349045500159264">
        <ele>657.46000000000004</ele>
        <time>2021-09-19T13:52:26Z</time>
      </trkpt>
      <trkpt lat="45.096781058236957" lon="7.349127056077123">
        <ele>655.61000000000001</ele>
        <time>2021-09-19T13:52:34Z</time>
      </trkpt>
      <trkpt lat="45.096761947497725" lon="7.349168378859758">
        <ele>654.59000000000003</ele>
        <time>2021-09-19T13:52:38Z</time>
      </trkpt>
      <trkpt lat="45.09675046429038" lon="7.349264603108168">
        <ele>651.82000000000005</ele>
        <time>2021-09-19T13:52:48Z</time>
      </trkpt>
      <trkpt lat="45.096792876720428" lon="7.349269045516849">
        <ele>650.16999999999996</ele>
        <time>2021-09-19T13:52:53Z</time>
      </trkpt>
      <trkpt lat="45.096850208938122" lon="7.349277762696147">
        <ele>648.88</ele>
        <time>2021-09-19T13:52:56Z</time>
      </trkpt>
      <trkpt lat="45.096933525055647" lon="7.349289832636714">
        <ele>645.66999999999996</ele>
        <time>2021-09-19T13:53:06Z</time>
      </trkpt>
      <trkpt lat="45.09700451977551" lon="7.349284132942557">
        <ele>644.48000000000002</ele>
        <time>2021-09-19T13:53:11Z</time>
      </trkpt>
      <trkpt lat="45.097080962732434" lon="7.349260244518518">
        <ele>643.63999999999999</ele>
        <time>2021-09-19T13:53:16Z</time>
      </trkpt>
      <trkpt lat="45.097164195030928" lon="7.349251946434379">
        <ele>640.85000000000002</ele>
        <time>2021-09-19T13:53:25Z</time>
      </trkpt>
      <trkpt lat="45.097246672958136" lon="7.349250102415681">
        <ele>639.78999999999996</ele>
        <time>2021-09-19T13:53:29Z</time>
      </trkpt>
      <trkpt lat="45.097371814772487" lon="7.349223447963595">
        <ele>638.11000000000001</ele>
        <time>2021-09-19T13:53:36Z</time>
      </trkpt>
      <trkpt lat="45.09745848365128" lon="7.349162846803665">
        <ele>637.21000000000004</ele>
        <time>2021-09-19T13:53:42Z</time>
      </trkpt>
      <trkpt lat="45.097512546926737" lon="7.349117668345571">
        <ele>637.11000000000001</ele>
        <time>2021-09-19T13:53:47Z</time>
      </trkpt>
      <trkpt lat="45.097619667649269" lon="7.349102413281798">
        <ele>635.51999999999998</ele>
        <time>2021-09-19T13:53:58Z</time>
      </trkpt>
      <trkpt lat="45.097653027623892" lon="7.349102413281798">
        <ele>635.33000000000004</ele>
        <time>2021-09-19T13:54:01Z</time>
      </trkpt>
      <trkpt lat="45.097764087840915" lon="7.34907609410584">
        <ele>635.13999999999999</ele>
        <time>2021-09-19T13:54:06Z</time>
      </trkpt>
      <trkpt lat="45.097864167764783" lon="7.349035358056426">
        <ele>634.11000000000001</ele>
        <time>2021-09-19T13:54:16Z</time>
      </trkpt>
      <trkpt lat="45.098009174689651" lon="7.349018175154924">
        <ele>631.29999999999995</ele>
        <time>2021-09-19T13:54:27Z</time>
      </trkpt>
      <trkpt lat="45.098023088648915" lon="7.349022533744574">
        <ele>630.86000000000001</ele>
        <time>2021-09-19T13:54:28Z</time>
      </trkpt>
      <trkpt lat="45.098115708678961" lon="7.349014822393656">
        <ele>628.40999999999997</ele>
        <time>2021-09-19T13:54:36Z</time>
      </trkpt>
      <trkpt lat="45.098135573789477" lon="7.349055642262101">
        <ele>626.71000000000004</ele>
        <time>2021-09-19T13:54:41Z</time>
      </trkpt>
      <trkpt lat="45.098116211593151" lon="7.349180029705167">
        <ele>623.19000000000005</ele>
        <time>2021-09-19T13:54:52Z</time>
      </trkpt>
      <trkpt lat="45.098200952634215" lon="7.349172402173281">
        <ele>620.03999999999996</ele>
        <time>2021-09-19T13:55:03Z</time>
      </trkpt>
      <trkpt lat="45.098214447498322" lon="7.349242977797985">
        <ele>617.02999999999997</ele>
        <time>2021-09-19T13:55:11Z</time>
      </trkpt>
      <trkpt lat="45.098273623734713" lon="7.349299304187298">
        <ele>614.13999999999999</ele>
        <time>2021-09-19T13:55:19Z</time>
      </trkpt>
      <trkpt lat="45.098326513543725" lon="7.349307015538216">
        <ele>612.66999999999996</ele>
        <time>2021-09-19T13:55:23Z</time>
      </trkpt>
      <trkpt lat="45.09836046025157" lon="7.349305339157581">
        <ele>611.74000000000001</ele>
        <time>2021-09-19T13:55:26Z</time>
      </trkpt>
      <trkpt lat="45.098420474678278" lon="7.349305506795645">
        <ele>610.38</ele>
        <time>2021-09-19T13:55:31Z</time>
      </trkpt>
      <trkpt lat="45.098441680893302" lon="7.34928815625608">
        <ele>609.91999999999996</ele>
        <time>2021-09-19T13:55:33Z</time>
      </trkpt>
      <trkpt lat="45.098553914576769" lon="7.349305506795645">
        <ele>606.47000000000003</ele>
        <time>2021-09-19T13:55:42Z</time>
      </trkpt>
      <trkpt lat="45.098661035299301" lon="7.34932579100132">
        <ele>603.19000000000005</ele>
        <time>2021-09-19T13:55:52Z</time>
      </trkpt>
      <trkpt lat="45.098670590668917" lon="7.349321851506829">
        <ele>602.75999999999999</ele>
        <time>2021-09-19T13:55:53Z</time>
      </trkpt>
      <trkpt lat="45.098689952865243" lon="7.349310787394643">
        <ele>602.40999999999997</ele>
        <time>2021-09-19T13:55:55Z</time>
      </trkpt>
      <trkpt lat="45.098734712228179" lon="7.349309530109167">
        <ele>601.67999999999995</ele>
        <time>2021-09-19T13:55:59Z</time>
      </trkpt>
      <trkpt lat="45.098759774118662" lon="7.349382117390633">
        <ele>600.22000000000003</ele>
        <time>2021-09-19T13:56:05Z</time>
      </trkpt>
      <trkpt lat="45.098671680316329" lon="7.349457051604986">
        <ele>596.84000000000003</ele>
        <time>2021-09-19T13:56:17Z</time>
      </trkpt>
      <trkpt lat="45.098655754700303" lon="7.34947239048779">
        <ele>596.22000000000003</ele>
        <time>2021-09-19T13:56:19Z</time>
      </trkpt>
      <trkpt lat="45.098582999780774" lon="7.349587809294462">
        <ele>592.66999999999996</ele>
        <time>2021-09-19T13:56:31Z</time>
      </trkpt>
      <trkpt lat="45.098650893196464" lon="7.349588144570589">
        <ele>590.5</ele>
        <time>2021-09-19T13:56:40Z</time>
      </trkpt>
      <trkpt lat="45.098609486594796" lon="7.349718064069748">
        <ele>587.67999999999995</ele>
        <time>2021-09-19T13:56:51Z</time>
      </trkpt>
      <trkpt lat="45.098609067499638" lon="7.34973524697125">
        <ele>587.35000000000002</ele>
        <time>2021-09-19T13:56:52Z</time>
      </trkpt>
      <trkpt lat="45.098558943718672" lon="7.349863238632679">
        <ele>583.82000000000005</ele>
        <time>2021-09-19T13:57:03Z</time>
      </trkpt>
      <trkpt lat="45.098602278158069" lon="7.3498500790447">
        <ele>582.83000000000004</ele>
        <time>2021-09-19T13:57:08Z</time>
      </trkpt>
      <trkpt lat="45.09872448630631" lon="7.349806996062398">
        <ele>581.55999999999995</ele>
        <time>2021-09-19T13:57:20Z</time>
      </trkpt>
      <trkpt lat="45.098833367228508" lon="7.349789058789611">
        <ele>578.67999999999995</ele>
        <time>2021-09-19T13:57:30Z</time>
      </trkpt>
      <trkpt lat="45.098909139633179" lon="7.34978755004704">
        <ele>576.65999999999997</ele>
        <time>2021-09-19T13:57:37Z</time>
      </trkpt>
      <trkpt lat="45.098960772156715" lon="7.349775061011314">
        <ele>575.09000000000003</ele>
        <time>2021-09-19T13:57:41Z</time>
      </trkpt>
      <trkpt lat="45.098998825997114" lon="7.349804397672415">
        <ele>573.49000000000001</ele>
        <time>2021-09-19T13:57:47Z</time>
      </trkpt>
      <trkpt lat="45.098932944238186" lon="7.34989944845438">
        <ele>571.25</ele>
        <time>2021-09-19T13:57:59Z</time>
      </trkpt>
      <trkpt lat="45.098940823227167" lon="7.349905986338854">
        <ele>571.03999999999996</ele>
        <time>2021-09-19T13:58:00Z</time>
      </trkpt>
      <trkpt lat="45.098999748006463" lon="7.349908584728837">
        <ele>569.05999999999995</ele>
        <time>2021-09-19T13:58:05Z</time>
      </trkpt>
      <trkpt lat="45.099013159051538" lon="7.349898442626">
        <ele>568.37</ele>
        <time>2021-09-19T13:58:07Z</time>
      </trkpt>
      <trkpt lat="45.099085997790098" lon="7.349899699911475">
        <ele>566.11000000000001</ele>
        <time>2021-09-19T13:58:16Z</time>
      </trkpt>
      <trkpt lat="45.099122626706958" lon="7.349889557808638">
        <ele>564.65999999999997</ele>
        <time>2021-09-19T13:58:20Z</time>
      </trkpt>
      <trkpt lat="45.099140563979745" lon="7.349907662719488">
        <ele>564.04999999999995</ele>
        <time>2021-09-19T13:58:22Z</time>
      </trkpt>
      <trkpt lat="45.099153053015471" lon="7.349927024915814">
        <ele>563.40999999999997</ele>
        <time>2021-09-19T13:58:24Z</time>
      </trkpt>
      <trkpt lat="45.099142994731665" lon="7.350026685744524">
        <ele>561.13</ele>
        <time>2021-09-19T13:58:31Z</time>
      </trkpt>
      <trkpt lat="45.099095050245523" lon="7.350204130634666">
        <ele>557.97000000000003</ele>
        <time>2021-09-19T13:58:43Z</time>
      </trkpt>
      <trkpt lat="45.098973261192441" lon="7.350327428430319">
        <ele>555.75999999999999</ele>
        <time>2021-09-19T13:58:55Z</time>
      </trkpt>
      <trkpt lat="45.098926573991776" lon="7.350331787019968">
        <ele>555.60000000000002</ele>
        <time>2021-09-19T13:58:59Z</time>
      </trkpt>
      <trkpt lat="45.098776454105973" lon="7.350482996553183">
        <ele>552.99000000000001</ele>
        <time>2021-09-19T13:59:14Z</time>
      </trkpt>
      <trkpt lat="45.098682912066579" lon="7.350530438125134">
        <ele>549.95000000000005</ele>
        <time>2021-09-19T13:59:25Z</time>
      </trkpt>
      <trkpt lat="45.098631028085947" lon="7.350570168346167">
        <ele>548.27999999999997</ele>
        <time>2021-09-19T13:59:31Z</time>
      </trkpt>
      <trkpt lat="45.098514938727021" lon="7.350637055933476">
        <ele>544.80999999999995</ele>
        <time>2021-09-19T13:59:42Z</time>
      </trkpt>
      <trkpt lat="45.098496582359076" lon="7.350686509162188">
        <ele>542.78999999999996</ele>
        <time>2021-09-19T13:59:46Z</time>
      </trkpt>
      <trkpt lat="45.098511083051562" lon="7.350747613236308">
        <ele>540.72000000000003</ele>
        <time>2021-09-19T13:59:50Z</time>
      </trkpt>
      <trkpt lat="45.098640583455563" lon="7.350897062569857">
        <ele>537.27999999999997</ele>
        <time>2021-09-19T14:00:03Z</time>
      </trkpt>
      <trkpt lat="45.098606888204813" lon="7.350977612659335">
        <ele>534.54999999999995</ele>
        <time>2021-09-19T14:00:10Z</time>
      </trkpt>
      <trkpt lat="45.098456935957074" lon="7.351095210760832">
        <ele>532.04999999999995</ele>
        <time>2021-09-19T14:00:23Z</time>
      </trkpt>
      <trkpt lat="45.098330536857247" lon="7.351169725880027">
        <ele>528.83000000000004</ele>
        <time>2021-09-19T14:00:32Z</time>
      </trkpt>
      <trkpt lat="45.098268510773778" lon="7.351207947358489">
        <ele>526.82000000000005</ele>
        <time>2021-09-19T14:00:37Z</time>
      </trkpt>
      <trkpt lat="45.098233474418521" lon="7.351225884631276">
        <ele>525.5</ele>
        <time>2021-09-19T14:00:40Z</time>
      </trkpt>
      <trkpt lat="45.098135154694319" lon="7.351310038939118">
        <ele>522.35000000000002</ele>
        <time>2021-09-19T14:00:48Z</time>
      </trkpt>
      <trkpt lat="45.098013784736395" lon="7.351418500766158">
        <ele>519.57000000000005</ele>
        <time>2021-09-19T14:00:59Z</time>
      </trkpt>
      <trkpt lat="45.098049826920033" lon="7.351458482444286">
        <ele>518.39999999999998</ele>
        <time>2021-09-19T14:01:04Z</time>
      </trkpt>
      <trkpt lat="45.09816650301218" lon="7.35150994732976">
        <ele>514.76999999999998</ele>
        <time>2021-09-19T14:01:15Z</time>
      </trkpt>
      <trkpt lat="45.098177986219525" lon="7.351514892652631">
        <ele>514.39999999999998</ele>
        <time>2021-09-19T14:01:16Z</time>
      </trkpt>
      <trkpt lat="45.098247472196817" lon="7.351557891815901">
        <ele>512</ele>
        <time>2021-09-19T14:01:22Z</time>
      </trkpt>
      <trkpt lat="45.098365992307663" lon="7.351614804938436">
        <ele>508.66000000000003</ele>
        <time>2021-09-19T14:01:32Z</time>
      </trkpt>
      <trkpt lat="45.098430197685957" lon="7.351664928719401">
        <ele>507.02999999999997</ele>
        <time>2021-09-19T14:01:37Z</time>
      </trkpt>
      <trkpt lat="45.098491217941046" lon="7.351716812700033">
        <ele>504.85000000000002</ele>
        <time>2021-09-19T14:01:42Z</time>
      </trkpt>
      <trkpt lat="45.098409913480282" lon="7.351846816018224">
        <ele>502.13999999999999</ele>
        <time>2021-09-19T14:01:51Z</time>
      </trkpt>
      <trkpt lat="45.098378816619515" lon="7.351881600916386">
        <ele>500.73000000000002</ele>
        <time>2021-09-19T14:01:54Z</time>
      </trkpt>
      <trkpt lat="45.098274378105998" lon="7.351911440491676">
        <ele>497.45999999999998</ele>
        <time>2021-09-19T14:02:03Z</time>
      </trkpt>
      <trkpt lat="45.098163150250912" lon="7.351969694718719">
        <ele>494.30000000000001</ele>
        <time>2021-09-19T14:02:13Z</time>
      </trkpt>
      <trkpt lat="45.098153678700328" lon="7.352017136290669">
        <ele>492.31999999999999</ele>
        <time>2021-09-19T14:02:17Z</time>
      </trkpt>
      <trkpt lat="45.098157869651914" lon="7.352029709145427">
        <ele>492.19999999999999</ele>
        <time>2021-09-19T14:02:18Z</time>
      </trkpt>
      <trkpt lat="45.098177399486303" lon="7.352082347497344">
        <ele>491.70999999999998</ele>
        <time>2021-09-19T14:02:22Z</time>
      </trkpt>
      <trkpt lat="45.098211681470275" lon="7.35214957036078">
        <ele>490.45999999999998</ele>
        <time>2021-09-19T14:02:27Z</time>
      </trkpt>
      <trkpt lat="45.098229954019189" lon="7.352213356643915">
        <ele>489.70999999999998</ele>
        <time>2021-09-19T14:02:31Z</time>
      </trkpt>
      <trkpt lat="45.098286028951406" lon="7.3523039650172">
        <ele>488.10000000000002</ele>
        <time>2021-09-19T14:02:38Z</time>
      </trkpt>
      <trkpt lat="45.098371440544724" lon="7.352372193709016">
        <ele>486.04000000000002</ele>
        <time>2021-09-19T14:02:45Z</time>
      </trkpt>
      <trkpt lat="45.098381750285625" lon="7.352397758513689">
        <ele>485.25999999999999</ele>
        <time>2021-09-19T14:02:47Z</time>
      </trkpt>
      <trkpt lat="45.098325088620186" lon="7.352435141801834">
        <ele>483.26999999999998</ele>
        <time>2021-09-19T14:02:52Z</time>
      </trkpt>
      <trkpt lat="45.098229786381125" lon="7.352466071024537">
        <ele>480.88</ele>
        <time>2021-09-19T14:03:01Z</time>
      </trkpt>
      <trkpt lat="45.098206233233213" lon="7.352463137358427">
        <ele>480.19999999999999</ele>
        <time>2021-09-19T14:03:03Z</time>
      </trkpt>
      <trkpt lat="45.098132388666272" lon="7.352424580603838">
        <ele>478.66000000000003</ele>
        <time>2021-09-19T14:03:08Z</time>
      </trkpt>
      <trkpt lat="45.098112020641565" lon="7.352420138195157">
        <ele>478.25</ele>
        <time>2021-09-19T14:03:09Z</time>
      </trkpt>
      <trkpt lat="45.098090898245573" lon="7.352418126538396">
        <ele>477.60000000000002</ele>
        <time>2021-09-19T14:03:10Z</time>
      </trkpt>
      <trkpt lat="45.098065920174122" lon="7.352414522320032">
        <ele>476.63</ele>
        <time>2021-09-19T14:03:12Z</time>
      </trkpt>
      <trkpt lat="45.098004145547748" lon="7.352427430450916">
        <ele>474.44</ele>
        <time>2021-09-19T14:03:21Z</time>
      </trkpt>
      <trkpt lat="45.098013784736395" lon="7.352435560896993">
        <ele>474.19999999999999</ele>
        <time>2021-09-19T14:03:22Z</time>
      </trkpt>
      <trkpt lat="45.09802183136344" lon="7.352444864809513">
        <ele>473.95999999999998</ele>
        <time>2021-09-19T14:03:23Z</time>
      </trkpt>
      <trkpt lat="45.098032141104341" lon="7.352455342188478">
        <ele>473.79000000000002</ele>
        <time>2021-09-19T14:03:24Z</time>
      </trkpt>
      <trkpt lat="45.098073380067945" lon="7.352517368271947">
        <ele>471.81999999999999</ele>
        <time>2021-09-19T14:03:30Z</time>
      </trkpt>
      <trkpt lat="45.098081007599831" lon="7.352530444040895">
        <ele>471.41000000000003</ele>
        <time>2021-09-19T14:03:31Z</time>
      </trkpt>
      <trkpt lat="45.098089640960097" lon="7.352544693276286">
        <ele>471.10000000000002</ele>
        <time>2021-09-19T14:03:32Z</time>
      </trkpt>
      <trkpt lat="45.098105315119028" lon="7.352567911148071">
        <ele>470.43000000000001</ele>
        <time>2021-09-19T14:03:34Z</time>
      </trkpt>
      <trkpt lat="45.098152421414852" lon="7.352650975808501">
        <ele>469.31999999999999</ele>
        <time>2021-09-19T14:03:42Z</time>
      </trkpt>
      <trkpt lat="45.098182512447238" lon="7.352706883102655">
        <ele>468.95999999999998</ele>
        <time>2021-09-19T14:03:46Z</time>
      </trkpt>
      <trkpt lat="45.09818603284657" lon="7.352729178965092">
        <ele>468.95999999999998</ele>
        <time>2021-09-19T14:03:47Z</time>
      </trkpt>
      <trkpt lat="45.098198689520359" lon="7.352764382958412">
        <ele>468.74000000000001</ele>
        <time>2021-09-19T14:03:49Z</time>
      </trkpt>
      <trkpt lat="45.098230540752411" lon="7.352822804823518">
        <ele>468.44</ele>
        <time>2021-09-19T14:03:53Z</time>
      </trkpt>
      <trkpt lat="45.098242275416851" lon="7.352834455668926">
        <ele>468.37</ele>
        <time>2021-09-19T14:03:54Z</time>
      </trkpt>
      <trkpt lat="45.098423073068261" lon="7.352987173944712">
        <ele>466.57999999999998</ele>
        <time>2021-09-19T14:04:08Z</time>
      </trkpt>
      <trkpt lat="45.098578808829188" lon="7.35312094911933">
        <ele>463.20999999999998</ele>
        <time>2021-09-19T14:04:20Z</time>
      </trkpt>
      <trkpt lat="45.098736975342035" lon="7.353155482560396">
        <ele>460.06999999999999</ele>
        <time>2021-09-19T14:04:33Z</time>
      </trkpt>
      <trkpt lat="45.09885055013001" lon="7.35309069044888">
        <ele>456.94999999999999</ele>
        <time>2021-09-19T14:04:42Z</time>
      </trkpt>
      <trkpt lat="45.098948618397117" lon="7.352945096790791">
        <ele>453.88</ele>
        <time>2021-09-19T14:04:54Z</time>
      </trkpt>
      <trkpt lat="45.098998742178082" lon="7.352858930826187">
        <ele>450.69</ele>
        <time>2021-09-19T14:05:01Z</time>
      </trkpt>
      <trkpt lat="45.099067557603121" lon="7.35272272489965">
        <ele>447.62</ele>
        <time>2021-09-19T14:05:12Z</time>
      </trkpt>
      <trkpt lat="45.09915548376739" lon="7.352574281394482">
        <ele>444.61000000000001</ele>
        <time>2021-09-19T14:05:24Z</time>
      </trkpt>
      <trkpt lat="45.099241146817803" lon="7.352425921708345">
        <ele>441.61000000000001</ele>
        <time>2021-09-19T14:05:35Z</time>
      </trkpt>
      <trkpt lat="45.099280960857868" lon="7.352383844554424">
        <ele>440.63999999999999</ele>
        <time>2021-09-19T14:05:39Z</time>
      </trkpt>
      <trkpt lat="45.09929227642715" lon="7.352384515106678">
        <ele>439.50999999999999</ele>
        <time>2021-09-19T14:05:44Z</time>
      </trkpt>
      <trkpt lat="45.09929277934134" lon="7.352401614189148">
        <ele>439.14999999999998</ele>
        <time>2021-09-19T14:05:45Z</time>
      </trkpt>
      <trkpt lat="45.09929571300745" lon="7.352418210357428">
        <ele>438.94999999999999</ele>
        <time>2021-09-19T14:05:46Z</time>
      </trkpt>
      <trkpt lat="45.099312141537666" lon="7.35260546207428">
        <ele>436.25</ele>
        <time>2021-09-19T14:05:56Z</time>
      </trkpt>
      <trkpt lat="45.09931230917573" lon="7.352626333013177">
        <ele>435.93000000000001</ele>
        <time>2021-09-19T14:05:57Z</time>
      </trkpt>
      <trkpt lat="45.099309124052525" lon="7.352687437087297">
        <ele>434.69</ele>
        <time>2021-09-19T14:06:00Z</time>
      </trkpt>
      <trkpt lat="45.099313734099269" lon="7.352855913341045">
        <ele>431.77999999999997</ele>
        <time>2021-09-19T14:06:10Z</time>
      </trkpt>
      <trkpt lat="45.099316919222474" lon="7.352976948022842">
        <ele>430.30000000000001</ele>
        <time>2021-09-19T14:06:16Z</time>
      </trkpt>
      <trkpt lat="45.099318930879235" lon="7.352994801476598">
        <ele>430.04000000000002</ele>
        <time>2021-09-19T14:06:17Z</time>
      </trkpt>
      <trkpt lat="45.099319601431489" lon="7.353014498949051">
        <ele>429.63</ele>
        <time>2021-09-19T14:06:18Z</time>
      </trkpt>
      <trkpt lat="45.099318260326982" lon="7.353034196421504">
        <ele>429.29000000000002</ele>
        <time>2021-09-19T14:06:19Z</time>
      </trkpt>
      <trkpt lat="45.099317757412791" lon="7.353054815903306">
        <ele>428.97000000000003</ele>
        <time>2021-09-19T14:06:20Z</time>
      </trkpt>
      <trkpt lat="45.099318511784077" lon="7.353072082623839">
        <ele>428.74000000000001</ele>
        <time>2021-09-19T14:06:21Z</time>
      </trkpt>
      <trkpt lat="45.099320858716965" lon="7.353090941905975">
        <ele>428.33999999999997</ele>
        <time>2021-09-19T14:06:22Z</time>
      </trkpt>
      <trkpt lat="45.099323121830821" lon="7.353110471740365">
        <ele>427.99000000000001</ele>
        <time>2021-09-19T14:06:23Z</time>
      </trkpt>
      <trkpt lat="45.099357571452856" lon="7.353381458669901">
        <ele>425.55000000000001</ele>
        <time>2021-09-19T14:06:37Z</time>
      </trkpt>
      <trkpt lat="45.099368887022138" lon="7.353531494736671">
        <ele>422.25</ele>
        <time>2021-09-19T14:06:44Z</time>
      </trkpt>
      <trkpt lat="45.09936947375536" lon="7.353555466979742">
        <ele>421.95999999999998</ele>
        <time>2021-09-19T14:06:45Z</time>
      </trkpt>
      <trkpt lat="45.099376011639833" lon="7.35372394323349">
        <ele>419.27999999999997</ele>
        <time>2021-09-19T14:06:53Z</time>
      </trkpt>
      <trkpt lat="45.099369725212455" lon="7.353743305429816">
        <ele>419.25999999999999</ele>
        <time>2021-09-19T14:06:54Z</time>
      </trkpt>
      <trkpt lat="45.099361091852188" lon="7.353759901598096">
        <ele>419.54000000000002</ele>
        <time>2021-09-19T14:06:55Z</time>
      </trkpt>
      <trkpt lat="45.099351201206446" lon="7.353777335956693">
        <ele>419.70999999999998</ele>
        <time>2021-09-19T14:06:56Z</time>
      </trkpt>
      <trkpt lat="45.099342735484242" lon="7.353793680667877">
        <ele>419.41000000000003</ele>
        <time>2021-09-19T14:06:57Z</time>
      </trkpt>
      <trkpt lat="45.099245924502611" lon="7.353960899636149">
        <ele>416.25</ele>
        <time>2021-09-19T14:07:08Z</time>
      </trkpt>
      <trkpt lat="45.09914567694068" lon="7.354069277644157">
        <ele>413.13999999999999</ele>
        <time>2021-09-19T14:07:18Z</time>
      </trkpt>
      <trkpt lat="45.099055655300617" lon="7.354160724207759">
        <ele>410.05000000000001</ele>
        <time>2021-09-19T14:07:27Z</time>
      </trkpt>
      <trkpt lat="45.098961275070906" lon="7.354252422228456">
        <ele>407.69999999999999</ele>
        <time>2021-09-19T14:07:36Z</time>
      </trkpt>
      <trkpt lat="45.098953312262893" lon="7.354264659807086">
        <ele>407.43000000000001</ele>
        <time>2021-09-19T14:07:37Z</time>
      </trkpt>
      <trkpt lat="45.098944092169404" lon="7.354277148842812">
        <ele>407.07999999999998</ele>
        <time>2021-09-19T14:07:38Z</time>
      </trkpt>
      <trkpt lat="45.098932106047869" lon="7.35428586602211">
        <ele>406.61000000000001</ele>
        <time>2021-09-19T14:07:39Z</time>
      </trkpt>
      <trkpt lat="45.098920622840524" lon="7.354290978983045">
        <ele>406.11000000000001</ele>
        <time>2021-09-19T14:07:40Z</time>
      </trkpt>
      <trkpt lat="45.098832026124001" lon="7.354377899318934">
        <ele>403.22000000000003</ele>
        <time>2021-09-19T14:07:52Z</time>
      </trkpt>
      <trkpt lat="45.098883491009474" lon="7.354401536285877">
        <ele>401.75999999999999</ele>
        <time>2021-09-19T14:07:57Z</time>
      </trkpt>
      <trkpt lat="45.098978960886598" lon="7.354453923180699">
        <ele>398.47000000000003</ele>
        <time>2021-09-19T14:08:06Z</time>
      </trkpt>
      <trkpt lat="45.099047273397446" lon="7.354496419429779">
        <ele>396.81999999999999</ele>
        <time>2021-09-19T14:08:13Z</time>
      </trkpt>
      <trkpt lat="45.099058421328664" lon="7.354502622038126">
        <ele>396.58999999999997</ele>
        <time>2021-09-19T14:08:14Z</time>
      </trkpt>
      <trkpt lat="45.09911734610796" lon="7.354536233469844">
        <ele>394.70999999999998</ele>
        <time>2021-09-19T14:08:20Z</time>
      </trkpt>
      <trkpt lat="45.099130589514971" lon="7.354539753869176">
        <ele>394.44</ele>
        <time>2021-09-19T14:08:21Z</time>
      </trkpt>
      <trkpt lat="45.099150957539678" lon="7.354553500190377">
        <ele>393.92000000000002</ele>
        <time>2021-09-19T14:08:23Z</time>
      </trkpt>
      <trkpt lat="45.099162356927991" lon="7.354559618979693">
        <ele>393.63999999999999</ele>
        <time>2021-09-19T14:08:24Z</time>
      </trkpt>
      <trkpt lat="45.099198399111629" lon="7.354580573737621">
        <ele>392.61000000000001</ele>
        <time>2021-09-19T14:08:28Z</time>
      </trkpt>
      <trkpt lat="45.099202925339341" lon="7.354591805487871">
        <ele>392.07999999999998</ele>
        <time>2021-09-19T14:08:29Z</time>
      </trkpt>
      <trkpt lat="45.099196722730994" lon="7.354630697518587">
        <ele>390.79000000000002</ele>
        <time>2021-09-19T14:08:32Z</time>
      </trkpt>
      <trkpt lat="45.099192531779408" lon="7.354631200432777">
        <ele>390.39999999999998</ele>
        <time>2021-09-19T14:08:33Z</time>
      </trkpt>
      <trkpt lat="45.099186161532998" lon="7.354632960632443">
        <ele>389.86000000000001</ele>
        <time>2021-09-19T14:08:34Z</time>
      </trkpt>
      <trkpt lat="45.099179791286588" lon="7.354636816307902">
        <ele>389.42000000000002</ele>
        <time>2021-09-19T14:08:35Z</time>
      </trkpt>
      <trkpt lat="45.099171157926321" lon="7.354644862934947">
        <ele>389.02999999999997</ele>
        <time>2021-09-19T14:08:36Z</time>
      </trkpt>
      <trkpt lat="45.09916378185153" lon="7.354650897905231">
        <ele>388.44</ele>
        <time>2021-09-19T14:08:37Z</time>
      </trkpt>
      <trkpt lat="45.099078034982085" lon="7.354769334197044">
        <ele>385.23000000000002</ele>
        <time>2021-09-19T14:08:48Z</time>
      </trkpt>
      <trkpt lat="45.099063282832503" lon="7.354819625616074">
        <ele>383.63999999999999</ele>
        <time>2021-09-19T14:08:52Z</time>
      </trkpt>
      <trkpt lat="45.099056661128998" lon="7.354863714426756">
        <ele>382.45999999999998</ele>
        <time>2021-09-19T14:08:55Z</time>
      </trkpt>
      <trkpt lat="45.099046602845192" lon="7.354874694719911">
        <ele>382.23000000000002</ele>
        <time>2021-09-19T14:08:56Z</time>
      </trkpt>
      <trkpt lat="45.098955072462559" lon="7.354950970038772">
        <ele>379.17000000000002</ele>
        <time>2021-09-19T14:09:05Z</time>
      </trkpt>
      <trkpt lat="45.098902685567737" lon="7.354970248416066">
        <ele>376.58999999999997</ele>
        <time>2021-09-19T14:09:14Z</time>
      </trkpt>
      <trkpt lat="45.098887430503964" lon="7.354993131011725">
        <ele>376.38999999999999</ele>
        <time>2021-09-19T14:09:16Z</time>
      </trkpt>
      <trkpt lat="45.098881144076586" lon="7.355009224265814">
        <ele>376.07999999999998</ele>
        <time>2021-09-19T14:09:17Z</time>
      </trkpt>
      <trkpt lat="45.098876198753715" lon="7.355026323348284">
        <ele>375.75999999999999</ele>
        <time>2021-09-19T14:09:18Z</time>
      </trkpt>
      <trkpt lat="45.098875276744366" lon="7.355044176802039">
        <ele>375.47000000000003</ele>
        <time>2021-09-19T14:09:19Z</time>
      </trkpt>
      <trkpt lat="45.098878210410476" lon="7.355060772970319">
        <ele>375.25</ele>
        <time>2021-09-19T14:09:20Z</time>
      </trkpt>
      <trkpt lat="45.098905032500625" lon="7.355115842074156">
        <ele>374.35000000000002</ele>
        <time>2021-09-19T14:09:24Z</time>
      </trkpt>
      <trkpt lat="45.098919617012143" lon="7.355136293917894">
        <ele>373.62</ele>
        <time>2021-09-19T14:09:26Z</time>
      </trkpt>
      <trkpt lat="45.098928166553378" lon="7.355147525668144">
        <ele>373.32999999999998</ele>
        <time>2021-09-19T14:09:27Z</time>
      </trkpt>
      <trkpt lat="45.098969489336014" lon="7.355204522609711">
        <ele>372.02999999999997</ele>
        <time>2021-09-19T14:09:31Z</time>
      </trkpt>
      <trkpt lat="45.098976865410805" lon="7.355219777673483">
        <ele>371.82999999999998</ele>
        <time>2021-09-19T14:09:32Z</time>
      </trkpt>
      <trkpt lat="45.099066803231835" lon="7.355437707155943">
        <ele>368.88999999999999</ele>
        <time>2021-09-19T14:09:45Z</time>
      </trkpt>
      <trkpt lat="45.099068731069565" lon="7.355461763218045">
        <ele>368.80000000000001</ele>
        <time>2021-09-19T14:09:46Z</time>
      </trkpt>
      <trkpt lat="45.098973847925663" lon="7.355686565861106">
        <ele>367.13</ele>
        <time>2021-09-19T14:09:58Z</time>
      </trkpt>
      <trkpt lat="45.098944259807467" lon="7.355817826464772">
        <ele>364.75999999999999</ele>
        <time>2021-09-19T14:10:05Z</time>
      </trkpt>
      <trkpt lat="45.098922634497285" lon="7.355969790369272">
        <ele>361.64999999999998</ele>
        <time>2021-09-19T14:10:14Z</time>
      </trkpt>
      <trkpt lat="45.09893948212266" lon="7.355990158393979">
        <ele>362.93000000000001</ele>
        <time>2021-09-19T14:10:16Z</time>
      </trkpt>
      <trkpt lat="45.098952641710639" lon="7.356001138687134">
        <ele>362.88999999999999</ele>
        <time>2021-09-19T14:10:17Z</time>
      </trkpt>
      <trkpt lat="45.098963538184762" lon="7.356010442599654">
        <ele>362.44</ele>
        <time>2021-09-19T14:10:18Z</time>
      </trkpt>
      <trkpt lat="45.098975356668234" lon="7.35601706430316">
        <ele>362.22000000000003</ele>
        <time>2021-09-19T14:10:19Z</time>
      </trkpt>
      <trkpt lat="45.09898834861815" lon="7.356021841987968">
        <ele>362.22000000000003</ele>
        <time>2021-09-19T14:10:20Z</time>
      </trkpt>
      <trkpt lat="45.099082142114639" lon="7.355994852259755">
        <ele>361.07999999999998</ele>
        <time>2021-09-19T14:10:28Z</time>
      </trkpt>
      <trkpt lat="45.099093876779079" lon="7.355984793975949">
        <ele>360.93000000000001</ele>
        <time>2021-09-19T14:10:29Z</time>
      </trkpt>
      <trkpt lat="45.099105359986424" lon="7.355974484235048">
        <ele>360.72000000000003</ele>
        <time>2021-09-19T14:10:30Z</time>
      </trkpt>
      <trkpt lat="45.099120531231165" lon="7.355947662144899">
        <ele>360.56</ele>
        <time>2021-09-19T14:10:32Z</time>
      </trkpt>
      <trkpt lat="45.099125728011131" lon="7.355932993814349">
        <ele>360.38</ele>
        <time>2021-09-19T14:10:33Z</time>
      </trkpt>
      <trkpt lat="45.099131260067225" lon="7.355864597484469">
        <ele>358.85000000000002</ele>
        <time>2021-09-19T14:10:42Z</time>
      </trkpt>
      <trkpt lat="45.099134026095271" lon="7.355920756235719">
        <ele>359.83999999999997</ele>
        <time>2021-09-19T14:11:10Z</time>
      </trkpt>
      <trkpt lat="45.099157243967056" lon="7.355884378775954">
        <ele>359.54000000000002</ele>
        <time>2021-09-19T14:11:28Z</time>
      </trkpt>
      <trkpt lat="45.099235195666552" lon="7.355849342420697">
        <ele>359.19999999999999</ele>
        <time>2021-09-19T14:11:40Z</time>
      </trkpt>
      <trkpt lat="45.099247684702277" lon="7.355849929153919">
        <ele>359.25</ele>
        <time>2021-09-19T14:11:41Z</time>
      </trkpt>
      <trkpt lat="45.099275847896934" lon="7.355862585827708">
        <ele>359.02999999999997</ele>
        <time>2021-09-19T14:11:44Z</time>
      </trkpt>
      <trkpt lat="45.099285319447517" lon="7.355872225016356">
        <ele>358.55000000000001</ele>
        <time>2021-09-19T14:11:45Z</time>
      </trkpt>
      <trkpt lat="45.099346339702606" lon="7.355940286070108">
        <ele>358.42000000000002</ele>
        <time>2021-09-19T14:11:54Z</time>
      </trkpt>
      <trkpt lat="45.09937584400177" lon="7.355985129252076">
        <ele>356.97000000000003</ele>
        <time>2021-09-19T14:11:58Z</time>
      </trkpt>
      <trkpt lat="45.099401911720634" lon="7.356013376265764">
        <ele>356.83999999999997</ele>
        <time>2021-09-19T14:12:15Z</time>
      </trkpt>
      <trkpt lat="45.099398391321301" lon="7.356013460084796">
        <ele>356.72000000000003</ele>
        <time>2021-09-19T14:12:33Z</time>
      </trkpt>
      <trkpt lat="45.099434852600098" lon="7.355987895280123">
        <ele>356.16000000000003</ele>
        <time>2021-09-19T14:12:48Z</time>
      </trkpt>
      <trkpt lat="45.099442815408111" lon="7.355969874188304">
        <ele>355.44999999999999</ele>
        <time>2021-09-19T14:13:05Z</time>
      </trkpt>
      <trkpt lat="45.099469888955355" lon="7.355905752629042">
        <ele>354.85000000000002</ele>
        <time>2021-09-19T14:13:14Z</time>
      </trkpt>
      <trkpt lat="45.099474331364036" lon="7.355864178389311">
        <ele>355.32999999999998</ele>
        <time>2021-09-19T14:13:26Z</time>
      </trkpt>
      <trkpt lat="45.099488748237491" lon="7.355792010203004">
        <ele>354.88999999999999</ele>
        <time>2021-09-19T14:13:39Z</time>
      </trkpt>
      <trkpt lat="45.099568879231811" lon="7.355675920844078">
        <ele>354.75</ele>
        <time>2021-09-19T14:13:51Z</time>
      </trkpt>
      <trkpt lat="45.09957080706954" lon="7.355658821761608">
        <ele>354.58999999999997</ele>
        <time>2021-09-19T14:13:52Z</time>
      </trkpt>
      <trkpt lat="45.099671725183725" lon="7.355475844815373">
        <ele>354.16000000000003</ele>
        <time>2021-09-19T14:14:07Z</time>
      </trkpt>
      <trkpt lat="45.099853696301579" lon="7.355325473472476">
        <ele>353.44999999999999</ele>
        <time>2021-09-19T14:14:22Z</time>
      </trkpt>
      <trkpt lat="45.099952854216099" lon="7.355180801823735">
        <ele>354.69</ele>
        <time>2021-09-19T14:14:36Z</time>
      </trkpt>
      <trkpt lat="45.100186793133616" lon="7.354945940896869">
        <ele>354.33999999999997</ele>
        <time>2021-09-19T14:14:52Z</time>
      </trkpt>
      <trkpt lat="45.10035116225481" lon="7.354802777990699">
        <ele>355.61000000000001</ele>
        <time>2021-09-19T14:15:05Z</time>
      </trkpt>
      <trkpt lat="45.100423749536276" lon="7.354675037786365">
        <ele>355.82999999999998</ele>
        <time>2021-09-19T14:15:14Z</time>
      </trkpt>
      <trkpt lat="45.10045912116766" lon="7.35464452765882">
        <ele>355.45999999999998</ele>
        <time>2021-09-19T14:15:17Z</time>
      </trkpt>
      <trkpt lat="45.100467838346958" lon="7.354629188776016">
        <ele>355.74000000000001</ele>
        <time>2021-09-19T14:15:18Z</time>
      </trkpt>
      <trkpt lat="45.100474962964654" lon="7.354612005874515">
        <ele>355.87</ele>
        <time>2021-09-19T14:15:19Z</time>
      </trkpt>
      <trkpt lat="45.10048552416265" lon="7.354598259553313">
        <ele>355.49000000000001</ele>
        <time>2021-09-19T14:15:20Z</time>
      </trkpt>
      <trkpt lat="45.1004933193326" lon="7.35458392649889">
        <ele>355.16000000000003</ele>
        <time>2021-09-19T14:15:21Z</time>
      </trkpt>
      <trkpt lat="45.100500276312232" lon="7.354567078873515">
        <ele>355.06999999999999</ele>
        <time>2021-09-19T14:15:22Z</time>
      </trkpt>
      <trkpt lat="45.100629776716232" lon="7.354405391961336">
        <ele>355.67000000000002</ele>
        <time>2021-09-19T14:15:35Z</time>
      </trkpt>
      <trkpt lat="45.100785344839096" lon="7.354207746684551">
        <ele>355.61000000000001</ele>
        <time>2021-09-19T14:15:50Z</time>
      </trkpt>
      <trkpt lat="45.100883413106203" lon="7.354093166068196">
        <ele>355.81999999999999</ele>
        <time>2021-09-19T14:15:59Z</time>
      </trkpt>
      <trkpt lat="45.100897662341595" lon="7.35408210195601">
        <ele>355.99000000000001</ele>
        <time>2021-09-19T14:16:00Z</time>
      </trkpt>
      <trkpt lat="45.100951055064797" lon="7.353997277095914">
        <ele>356.10000000000002</ele>
        <time>2021-09-19T14:16:06Z</time>
      </trkpt>
      <trkpt lat="45.100958179682493" lon="7.353984704241157">
        <ele>356.17000000000002</ele>
        <time>2021-09-19T14:16:07Z</time>
      </trkpt>
      <trkpt lat="45.101105952635407" lon="7.353753782808781">
        <ele>355.67000000000002</ele>
        <time>2021-09-19T14:16:24Z</time>
      </trkpt>
      <trkpt lat="45.101107629016042" lon="7.353738695383072">
        <ele>355.81</ele>
        <time>2021-09-19T14:16:25Z</time>
      </trkpt>
      <trkpt lat="45.101112993434072" lon="7.353723021224141">
        <ele>355.77999999999997</ele>
        <time>2021-09-19T14:16:26Z</time>
      </trkpt>
      <trkpt lat="45.101117854937911" lon="7.353706508874893">
        <ele>356.11000000000001</ele>
        <time>2021-09-19T14:16:27Z</time>
      </trkpt>
      <trkpt lat="45.101122800260782" lon="7.353690918534994">
        <ele>356.19</ele>
        <time>2021-09-19T14:16:28Z</time>
      </trkpt>
      <trkpt lat="45.101158171892166" lon="7.353548761457205">
        <ele>355.58999999999997</ele>
        <time>2021-09-19T14:16:36Z</time>
      </trkpt>
      <trkpt lat="45.101160686463118" lon="7.35352898016572">
        <ele>355.85000000000002</ele>
        <time>2021-09-19T14:16:37Z</time>
      </trkpt>
      <trkpt lat="45.101168900728226" lon="7.35351238399744">
        <ele>355.81999999999999</ele>
        <time>2021-09-19T14:16:38Z</time>
      </trkpt>
      <trkpt lat="45.101177282631397" lon="7.353496374562383">
        <ele>355.94</ele>
        <time>2021-09-19T14:16:39Z</time>
      </trkpt>
      <trkpt lat="45.101178623735905" lon="7.353478604927659">
        <ele>356.05000000000001</ele>
        <time>2021-09-19T14:16:40Z</time>
      </trkpt>
      <trkpt lat="45.101179461926222" lon="7.353460332378745">
        <ele>356.12</ele>
        <time>2021-09-19T14:16:41Z</time>
      </trkpt>
      <trkpt lat="45.101184155791998" lon="7.353443233296275">
        <ele>356.10000000000002</ele>
        <time>2021-09-19T14:16:42Z</time>
      </trkpt>
      <trkpt lat="45.101189771667123" lon="7.353425547480583">
        <ele>356.07999999999998</ele>
        <time>2021-09-19T14:16:43Z</time>
      </trkpt>
      <trkpt lat="45.101195219904184" lon="7.353390008211136">
        <ele>356.01999999999998</ele>
        <time>2021-09-19T14:16:45Z</time>
      </trkpt>
      <trkpt lat="45.101196728646755" lon="7.353373663499951">
        <ele>356.01999999999998</ele>
        <time>2021-09-19T14:16:46Z</time>
      </trkpt>
      <trkpt lat="45.101203434169292" lon="7.353357905521989">
        <ele>355.93000000000001</ele>
        <time>2021-09-19T14:16:47Z</time>
      </trkpt>
      <trkpt lat="45.10121064260602" lon="7.353341644629836">
        <ele>355.85000000000002</ele>
        <time>2021-09-19T14:16:48Z</time>
      </trkpt>
      <trkpt lat="45.101216174662113" lon="7.353324126452208">
        <ele>355.62</ele>
        <time>2021-09-19T14:16:49Z</time>
      </trkpt>
      <trkpt lat="45.101220533251762" lon="7.353306272998452">
        <ele>355.62</ele>
        <time>2021-09-19T14:16:50Z</time>
      </trkpt>
      <trkpt lat="45.101308207958937" lon="7.352972170338035">
        <ele>356.88</ele>
        <time>2021-09-19T14:17:09Z</time>
      </trkpt>
      <trkpt lat="45.101376520469785" lon="7.3527598567307">
        <ele>356.04000000000002</ele>
        <time>2021-09-19T14:17:21Z</time>
      </trkpt>
      <trkpt lat="45.101488083600998" lon="7.352493815124035">
        <ele>354.98000000000002</ele>
        <time>2021-09-19T14:17:37Z</time>
      </trkpt>
      <trkpt lat="45.101613225415349" lon="7.352181170135737">
        <ele>355.18000000000001</ele>
        <time>2021-09-19T14:17:56Z</time>
      </trkpt>
      <trkpt lat="45.101721100509167" lon="7.351867016404867">
        <ele>356.13999999999999</ele>
        <time>2021-09-19T14:18:14Z</time>
      </trkpt>
      <trkpt lat="45.101823946461082" lon="7.35152704641223">
        <ele>355.89999999999998</ele>
        <time>2021-09-19T14:18:33Z</time>
      </trkpt>
      <trkpt lat="45.101942382752895" lon="7.351127900183201">
        <ele>356.20999999999998</ele>
        <time>2021-09-19T14:18:55Z</time>
      </trkpt>
      <trkpt lat="45.102031230926514" lon="7.35087476670742">
        <ele>356.35000000000002</ele>
        <time>2021-09-19T14:19:10Z</time>
      </trkpt>
      <trkpt lat="45.102131059393287" lon="7.350651640444994">
        <ele>356.47000000000003</ele>
        <time>2021-09-19T14:19:24Z</time>
      </trkpt>
      <trkpt lat="45.102136423811316" lon="7.350634876638651">
        <ele>356.60000000000002</ele>
        <time>2021-09-19T14:19:25Z</time>
      </trkpt>
      <trkpt lat="45.102143464609981" lon="7.35061869956553">
        <ele>356.66000000000003</ele>
        <time>2021-09-19T14:19:26Z</time>
      </trkpt>
      <trkpt lat="45.102263242006302" lon="7.350379480049014">
        <ele>356.81999999999999</ele>
        <time>2021-09-19T14:19:42Z</time>
      </trkpt>
      <trkpt lat="45.102406907826662" lon="7.350144535303116">
        <ele>356.47000000000003</ele>
        <time>2021-09-19T14:19:57Z</time>
      </trkpt>
      <trkpt lat="45.102460971102118" lon="7.350057950243354">
        <ele>357.04000000000002</ele>
        <time>2021-09-19T14:20:03Z</time>
      </trkpt>
      <trkpt lat="45.102489553391933" lon="7.350014615803957">
        <ele>356.66000000000003</ele>
        <time>2021-09-19T14:20:06Z</time>
      </trkpt>
      <trkpt lat="45.102495588362217" lon="7.34999910928309">
        <ele>356.48000000000002</ele>
        <time>2021-09-19T14:20:07Z</time>
      </trkpt>
      <trkpt lat="45.1026501506567" lon="7.349733235314488">
        <ele>357.19999999999999</ele>
        <time>2021-09-19T14:20:24Z</time>
      </trkpt>
      <trkpt lat="45.102824745699763" lon="7.3494235239923">
        <ele>356.89999999999998</ele>
        <time>2021-09-19T14:20:44Z</time>
      </trkpt>
      <trkpt lat="45.103012584149837" lon="7.349096294492483">
        <ele>357.72000000000003</ele>
        <time>2021-09-19T14:21:06Z</time>
      </trkpt>
      <trkpt lat="45.103181898593903" lon="7.348802927881479">
        <ele>357.27999999999997</ele>
        <time>2021-09-19T14:21:26Z</time>
      </trkpt>
      <trkpt lat="45.103276865556836" lon="7.348663033917546">
        <ele>359.85000000000002</ele>
        <time>2021-09-19T14:21:36Z</time>
      </trkpt>
      <trkpt lat="45.103402929380536" lon="7.348505035042763">
        <ele>359.43000000000001</ele>
        <time>2021-09-19T14:21:48Z</time>
      </trkpt>
      <trkpt lat="45.103492615744472" lon="7.348337229341269">
        <ele>358.48000000000002</ele>
        <time>2021-09-19T14:21:59Z</time>
      </trkpt>
      <trkpt lat="45.103495717048645" lon="7.348321387544274">
        <ele>358.58999999999997</ele>
        <time>2021-09-19T14:22:00Z</time>
      </trkpt>
      <trkpt lat="45.103499740362167" lon="7.348304037004709">
        <ele>359.04000000000002</ele>
        <time>2021-09-19T14:22:01Z</time>
      </trkpt>
      <trkpt lat="45.103502003476024" lon="7.348286854103208">
        <ele>359.19999999999999</ele>
        <time>2021-09-19T14:22:02Z</time>
      </trkpt>
      <trkpt lat="45.103503596037626" lon="7.348269168287516">
        <ele>358.92000000000002</ele>
        <time>2021-09-19T14:22:03Z</time>
      </trkpt>
      <trkpt lat="45.10350476950407" lon="7.34825131483376">
        <ele>358.88</ele>
        <time>2021-09-19T14:22:04Z</time>
      </trkpt>
      <trkpt lat="45.103529999032617" lon="7.348022907972336">
        <ele>359.31999999999999</ele>
        <time>2021-09-19T14:22:15Z</time>
      </trkpt>
      <trkpt lat="45.103534692898393" lon="7.348005305975676">
        <ele>359.41000000000003</ele>
        <time>2021-09-19T14:22:16Z</time>
      </trkpt>
      <trkpt lat="45.103634353727102" lon="7.347660223022103">
        <ele>360.19</ele>
        <time>2021-09-19T14:22:36Z</time>
      </trkpt>
      <trkpt lat="45.103789670392871" lon="7.347405999898911">
        <ele>359.70999999999998</ele>
        <time>2021-09-19T14:22:54Z</time>
      </trkpt>
      <trkpt lat="45.103906933218241" lon="7.347242636606097">
        <ele>359.27999999999997</ele>
        <time>2021-09-19T14:23:07Z</time>
      </trkpt>
      <trkpt lat="45.103955212980509" lon="7.347162086516619">
        <ele>359.63</ele>
        <time>2021-09-19T14:23:13Z</time>
      </trkpt>
      <trkpt lat="45.103965606540442" lon="7.347148926928639">
        <ele>359.80000000000001</ele>
        <time>2021-09-19T14:23:14Z</time>
      </trkpt>
      <trkpt lat="45.104014556854963" lon="7.347058402374387">
        <ele>359.77999999999997</ele>
        <time>2021-09-19T14:23:21Z</time>
      </trkpt>
      <trkpt lat="45.104027129709721" lon="7.347048930823803">
        <ele>359.41000000000003</ele>
        <time>2021-09-19T14:23:22Z</time>
      </trkpt>
      <trkpt lat="45.104069793596864" lon="7.347016911953688">
        <ele>358.14999999999998</ele>
        <time>2021-09-19T14:23:26Z</time>
      </trkpt>
      <trkpt lat="45.10418638586998" lon="7.346953125670552">
        <ele>359</ele>
        <time>2021-09-19T14:23:37Z</time>
      </trkpt>
      <trkpt lat="45.104199545457959" lon="7.34690953977406">
        <ele>358.42000000000002</ele>
        <time>2021-09-19T14:23:47Z</time>
      </trkpt>
      <trkpt lat="45.104188062250614" lon="7.346907528117299">
        <ele>357.42000000000002</ele>
        <time>2021-09-19T14:23:58Z</time>
      </trkpt>
      <trkpt lat="45.104192672297359" lon="7.346910713240504">
        <ele>357.43000000000001</ele>
        <time>2021-09-19T14:24:08Z</time>
      </trkpt>
    </trkseg>
  </trk>

</gpx>